[[{"header":{"parameterUnit":"m.s-1","parameterCategory":1,"la1":31.0,"la2":29.5877,"lo1":-88.7671,"lo2":-86.6584,"dy":0.0162,"dx":0.0185,"nx":115,"ny":88,"refTime":"2023-06-12T12:00:00:Z","depth":0,"parameterNumber":2,"parameterNumberName":"U-component_of_WINDS"},"data":[0.0,0.0,0.0,0.0,0.0,0.0,0.0,0.0,0.0,0.0,0.0,0.0,0.0,0.0,0.0,0.0,0.0,0.0,0.0,0.0,0.0,0.0,0.0,0.0,0.0,0.0,0.0,0.0,0.0,0.0,0.0,0.0,0.0,0.0,0.0,0.0,0.0,0.0,0.0,0.0,0.0,0.0,0.0,0.0,0.0,0.0,0.0,0.0,0.0,0.0,0.0,0.0,0.0,0.0,0.0,0.0,0.0,0.0,0.0,0.0,0.0,0.0,0.0,0.0,0.0,0.0,0.0,0.0,0.0,0.0,0.0,0.0,0.0,0.0,0.0,0.0,0.0,0.0,0.0,0.0,0.0,0.0,0.0,0.0,0.0,0.0,0.0,0.0,0.0,0.0,0.0,0.0,0.0,0.0,0.0,0.0,0.0,0.0,0.0,0.0,0.0,0.0,0.0,0.0,0.0,0.0,0.0,0.0,0.0,0.0,0.0,0.0,0.0,0.0,0.0,0.0,0.0,0.0,0.0,0.0,0.0,0.0,0.0,0.0,0.0,0.0,0.0,0.0,0.0,0.0,0.0,0.0,0.0,0.0,0.0,0.0,0.0,0.0,0.0,0.0,0.0,0.0,0.0,0.0,0.0,0.0,0.0,0.0,0.0,0.0,0.0,0.0,0.0,0.0,0.0,0.0,0.0,0.0,0.0,0.0,0.0,0.0,0.0,0.0,0.0,0.0,0.0,0.0,0.0,0.0,0.0,0.0,0.0,0.0,0.0,0.0,0.0,0.0,0.0,0.0,0.0,0.0,0.0,0.0,0.0,0.0,0.0,0.0,0.0,0.0,0.0,0.0,0.0,0.0,0.0,0.0,0.0,0.0,0.0,0.0,0.0,0.0,0.0,0.0,0.0,0.0,0.0,0.0,0.0,0.0,0.0,0.0,0.0,0.0,0.0,0.0,0.0,0.0,0.0,0.0,0.0,0.0,0.0,0.0,0.0,0.0,0.0,0.0,0.0,0.0,0.0,0.0,0.0,0.0,0.0,0.0,0.0,0.0,0.0,0.0,0.0,0.0,0.0,0.0,0.0,0.0,0.0,0.0,0.0,0.0,0.0,0.0,0.0,0.0,0.0,0.0,0.0,0.0,0.0,0.0,0.0,0.0,0.0,0.0,0.0,0.0,0.0,0.0,0.0,0.0,0.0,0.0,0.0,0.0,0.0,0.0,0.0,0.0,0.0,0.0,0.0,0.0,0.0,0.0,0.0,0.0,0.0,0.0,0.0,0.0,0.0,0.0,0.0,0.0,0.0,0.0,0.0,0.0,0.0,0.0,0.0,0.0,0.0,0.0,0.0,0.0,0.0,0.0,0.0,0.0,0.0,0.0,0.0,0.0,0.0,0.0,0.0,0.0,0.0,0.0,0.0,0.0,0.0,0.0,0.0,0.0,0.0,0.0,0.0,0.0,0.0,0.0,0.0,0.0,0.0,0.0,0.0,0.0,0.0,0.0,0.0,0.0,0.0,0.0,0.0,0.0,0.0,0.0,0.0,0.0,0.0,0.0,0.0,0.0,0.0,0.0,0.0,0.0,0.0,0.0,0.0,0.0,0.0,0.0,0.0,0.0,0.0,0.0,0.0,0.0,0.0,0.0,0.0,0.0,0.0,0.0,0.0,0.0,0.0,0.0,0.0,0.0,0.0,0.0,0.0,0.0,0.0,0.0,0.0,0.0,0.0,0.0,0.0,0.0,0.0,0.0,0.0,0.0,0.0,0.0,0.0,0.0,0.0,0.0,0.0,0.0,0.0,0.0,0.0,0.0,0.0,0.0,0.0,0.0,0.0,0.0,0.0,0.0,0.0,0.0,0.0,0.0,0.0,0.0,0.0,0.0,0.0,0.0,0.0,0.0,0.0,0.0,0.0,0.0,0.0,0.0,0.0,0.0,0.0,0.0,0.0,0.0,0.0,0.0,0.0,0.0,0.0,0.0,0.0,0.0,0.0,0.0,0.0,0.0,0.0,0.0,0.0,0.0,0.0,0.0,0.0,0.0,0.0,0.0,0.0,0.0,0.0,0.0,0.0,0.0,0.0,0.0,0.0,0.0,0.0,0.0,0.0,0.0,0.0,0.0,0.0,0.0,0.0,0.0,0.0,0.0,0.0,0.0,0.0,0.0,0.0,0.0,0.0,0.0,0.0,0.0,0.0,0.0,0.0,0.0,0.0,0.0,0.0,0.0,0.0,0.0,0.0,0.0,0.0,0.0,0.0,0.0,0.0,0.0,0.0,0.0,0.0,0.0,0.0,0.0,0.0,0.0,0.0,0.0,0.0,0.0,0.0,0.0,0.0,0.0,0.0,0.0,0.0,0.0,0.0,0.0,0.0,0.0,0.0,0.0,0.0,0.0,0.0,0.0,0.0,0.0,0.0,0.0,0.0,0.0,0.0,0.0,0.0,0.0,0.0,0.0,0.0,0.0,0.0,0.0,0.0,0.0,0.0,0.0,0.0,0.0,0.0,0.0,0.0,0.0,0.0,0.0,0.0,0.0,0.0,0.0,0.0,0.0,0.0,0.0,0.0,0.0,0.0,0.0,0.0,0.0,0.0,0.0,0.0,0.0,0.0,0.0,0.0,0.0,0.0,0.0,0.0,0.0,0.0,0.0,0.0,0.0,0.0,0.0,0.0,0.0,0.0,0.0,0.0,0.0,0.0,0.0,0.0,0.0,0.0,0.0,0.0,0.0,0.0,0.0,0.0,0.0,0.0,0.0,0.0,0.0,0.0,0.0,0.0,0.0,0.0,0.0,0.0,0.0,0.0,0.0,0.0,0.0,0.0,0.0,0.0,0.0,0.0,0.0,0.0,0.0,0.0,0.0,0.0,0.0,0.0,0.0,0.0,0.0,0.0,0.0,0.0,0.0,0.0,0.0,0.0,0.0,0.0,0.0,0.0,0.0,0.0,0.0,0.0,0.0,0.0,0.0,0.0,0.0,0.0,0.0,0.0,0.0,0.0,0.0,0.0,0.0,0.0,0.0,0.0,0.0,0.0,0.0,0.0,0.0,0.0,0.0,0.0,0.0,0.0,0.0,0.0,0.0,0.0,0.0,0.0,0.0,0.0,0.0,0.0,0.0,0.0,0.0,0.0,0.0,0.0,0.0,0.0,0.0,0.0,0.0,0.0,0.0,0.0,0.0,0.0,0.0,0.0,0.0,0.0,0.0,0.0,0.0,0.0,0.0,0.0,0.0,0.0,0.0,0.0,0.0,0.0,0.0,0.0,0.0,0.0,0.0,0.0,0.0,0.0,0.0,0.0,0.0,0.0,0.0,0.0,0.0,0.0,0.0,0.0,0.0,0.0,0.0,0.0,0.0,0.0,0.0,0.0,0.0,0.0,0.0,0.0,0.0,0.0,0.0,0.0,0.0,0.0,0.0,0.0,0.0,0.0,0.0,0.0,0.0,0.0,0.0,0.0,0.0,0.0,0.0,0.0,0.0,0.0,0.0,0.0,0.0,0.0,0.0,0.0,0.0,0.0,0.0,0.0,0.0,0.0,0.0,0.0,0.0,0.0,0.0,0.0,0.0,0.0,0.0,0.0,0.0,0.0,0.0,0.0,0.0,0.0,0.0,0.0,0.0,0.0,0.0,0.0,0.0,0.0,0.0,0.0,0.0,0.0,0.0,0.0,0.0,0.0,0.0,0.0,0.0,0.0,0.0,0.0,0.0,0.0,0.0,0.0,0.0,0.0,0.0,0.0,0.0,0.0,0.0,0.0,0.0,0.0,0.0,0.0,0.0,0.0,0.0,0.0,0.0,0.0,0.0,0.0,0.0,0.0,0.0,0.0,0.0,0.0,0.0,0.0,0.0,0.0,0.0,0.0,0.0,0.0,0.0,0.0,0.0,0.0,0.0,0.0,0.0,0.0,0.0,0.0,0.0,0.0,0.0,0.0,0.0,0.0,0.0,0.0,0.0,0.0,0.0,0.0,0.0,0.0,0.0,0.0,0.0,0.0,0.0,0.0,0.0,0.0,0.0,0.0,0.0,0.0,0.0,0.0,0.0,0.0,0.0,0.0,0.0,0.0,0.0,0.0,0.0,0.0,0.0,0.0,0.0,0.0,0.0,0.0,0.0,0.0,0.0,0.0,0.0,0.0,0.0,0.0,0.0,0.0,0.0,0.0,0.0,0.0,0.0,0.0,0.0,0.0,0.0,0.0,0.0,0.0,0.0,0.0,0.0,0.0,0.0,0.0,0.0,0.0,0.0,0.0,0.0,0.0,0.0,-1.0788,0.0,0.0,0.0,0.0,0.0,0.0,0.0,0.0,0.0,0.0,0.0,0.0,0.0,0.0,0.0,0.0,0.0,0.0,0.0,0.0,0.0,0.0,0.0,0.0,0.0,0.0,0.0,0.0,0.0,0.0,0.0,0.0,0.0,0.0,0.0,0.0,0.0,0.0,0.0,0.0,0.0,0.0,0.0,0.0,0.0,0.0,0.0,0.0,0.0,0.0,0.0,0.0,0.0,0.0,0.0,0.0,0.0,0.0,0.0,0.0,0.0,0.0,0.0,0.0,0.0,0.0,0.0,0.0,0.0,0.0,0.0,0.0,0.0,0.0,0.0,0.0,0.0,0.0,0.0,0.0,0.0,0.0,0.0,0.0,0.0,0.0,0.0,0.0,0.0,0.0,0.0,0.0,0.0,0.0,0.0,0.0,0.0,0.0,0.0,0.0,0.0,0.0,0.0,0.0,0.0,0.0,0.0,0.0,0.0,0.0,-0.8625,-0.8772,-0.9835,-1.097,-1.2404,0.0,0.0,0.0,0.0,0.0,0.0,0.0,0.0,0.0,0.0,0.0,0.0,0.0,0.0,0.0,0.0,0.0,0.0,0.0,0.0,0.0,0.0,0.0,0.0,0.0,0.0,0.0,0.0,0.0,0.0,0.0,0.0,0.0,0.0,0.0,0.0,0.0,0.0,0.0,0.0,0.0,0.0,0.0,0.0,0.0,0.0,0.0,0.0,0.0,0.0,0.0,0.0,0.0,0.0,0.0,0.0,0.0,0.0,0.0,0.0,0.0,0.0,0.0,0.0,0.0,0.0,0.0,0.0,0.0,0.0,0.0,0.0,0.0,0.0,0.0,0.0,0.0,0.0,0.0,0.0,0.0,0.0,0.0,0.0,0.0,0.0,0.0,0.0,0.0,0.0,0.0,0.0,0.0,0.0,0.0,0.0,0.0,0.0,0.0,0.0,0.0,0.0,0.0,0.0,0.0,0.0,0.0,0.0,0.0,0.0,0.0,0.0,-1.1208,-1.3128,-1.5417,0.0,0.0,0.0,0.0,0.0,0.0,0.0,0.0,0.0,0.0,0.0,0.0,0.0,0.0,0.0,0.0,0.0,0.0,0.0,0.0,0.0,0.0,0.0,0.0,0.0,0.0,0.0,0.0,0.0,0.0,0.0,0.0,0.0,0.0,0.0,0.0,0.0,0.0,0.0,0.0,0.0,0.0,0.0,0.0,0.0,0.0,0.0,0.0,0.0,0.0,0.0,0.0,0.0,0.0,0.0,0.0,0.0,0.0,0.0,0.0,0.0,0.0,0.0,0.0,0.0,0.0,0.0,0.0,0.0,0.0,0.0,0.0,0.0,0.0,0.0,0.0,0.0,0.0,0.0,0.0,0.0,0.0,0.0,0.0,0.0,0.0,0.0,0.0,0.0,0.0,0.0,0.0,0.0,0.0,0.0,0.0,0.0,0.0,0.0,0.0,0.0,0.0,0.0,0.0,0.0,0.0,0.0,0.0,0.0,0.0,-1.0467,-1.1381,-1.3233,0.0,-2.1259,0.0,0.0,0.0,0.0,0.0,0.0,0.0,0.0,0.0,0.0,0.0,0.0,0.0,0.0,0.0,0.0,0.0,0.0,0.0,0.0,0.0,0.0,0.0,0.0,0.0,0.0,0.0,0.0,0.0,0.0,0.0,0.0,0.0,0.0,0.0,0.0,0.0,0.0,0.0,0.0,0.0,0.0,0.0,0.0,0.0,0.0,0.0,0.0,0.0,0.0,0.0,0.0,0.0,0.0,0.0,0.0,0.0,0.0,0.0,0.0,0.0,0.0,0.0,0.0,0.0,0.0,0.0,0.0,0.0,0.0,0.0,0.0,0.0,0.0,0.0,0.0,0.0,0.0,0.0,0.0,0.0,0.0,0.0,0.0,0.0,0.0,0.0,0.0,0.0,0.0,0.0,0.0,0.0,0.0,0.0,0.0,0.0,0.0,0.0,0.0,0.0,0.0,0.0,0.0,0.0,0.0,0.0,0.0,0.0,0.0,-1.2635,-1.3857,-1.763,-2.1572,0.0,0.0,0.0,0.0,0.0,0.0,0.0,0.0,0.0,0.0,0.0,0.0,0.0,0.0,0.0,0.0,0.0,0.0,0.0,0.0,0.0,0.0,0.0,0.0,0.0,0.0,0.0,0.0,0.0,0.0,0.0,0.0,0.0,0.0,0.0,0.0,0.0,0.0,0.0,0.0,0.0,0.0,0.0,0.0,0.0,0.0,0.0,0.0,0.0,0.0,0.0,0.0,0.0,0.0,0.0,0.0,0.0,0.0,0.0,0.0,0.0,0.0,0.0,0.0,0.0,0.0,0.0,0.0,0.0,0.0,0.0,0.0,0.0,0.0,0.0,0.0,0.0,0.0,0.0,0.0,0.0,0.0,0.0,0.0,0.0,0.0,0.0,0.0,0.0,0.0,0.0,0.0,0.0,0.0,0.0,0.0,0.0,0.0,0.0,0.0,0.0,0.0,0.0,0.0,0.0,0.0,0.0,0.0,0.0,0.0,-1.3527,-1.5651,-1.8238,-2.2611,-2.6275,-2.9205,0.0,0.0,0.0,0.0,0.0,0.0,0.0,0.0,0.0,0.0,0.0,0.0,0.0,0.0,0.0,0.0,0.0,0.0,0.0,0.0,0.0,0.0,0.0,0.0,0.0,0.0,0.0,0.0,0.0,0.0,0.0,0.0,0.0,0.0,0.0,0.0,0.0,0.0,0.0,0.0,0.0,0.0,0.0,0.0,0.0,0.0,0.0,0.0,0.0,0.0,0.0,0.0,0.0,0.0,0.0,0.0,0.0,0.0,0.0,0.0,0.0,0.0,0.0,0.0,0.0,0.0,0.0,0.0,0.0,0.0,0.0,0.0,0.0,0.0,0.0,0.0,0.0,0.0,0.0,0.0,0.0,0.0,0.0,0.0,0.0,0.0,0.0,0.0,0.0,0.0,0.0,0.0,0.0,0.0,0.0,0.0,0.0,0.0,0.0,0.0,0.0,0.0,0.0,0.0,0.0,0.0,0.0,0.0,-1.3539,-1.5871,-1.9688,-2.4993,-2.7671,-3.0183,0.0,0.0,0.0,0.0,0.0,0.0,0.0,0.0,0.0,0.0,0.0,0.0,0.0,0.0,0.0,0.0,0.0,0.0,0.0,0.0,0.0,0.0,0.0,0.0,0.0,0.0,0.0,0.0,0.0,0.0,0.0,0.0,0.0,0.0,0.0,0.0,0.0,0.0,0.0,0.0,0.0,0.0,0.0,0.0,0.0,0.0,0.0,0.0,0.0,0.0,0.0,0.0,0.0,0.0,0.0,0.0,0.0,0.0,0.0,0.0,0.0,0.0,0.0,0.0,0.0,0.0,0.0,0.0,0.0,0.0,0.0,0.0,0.0,0.0,0.0,0.0,0.0,0.0,0.0,0.0,0.0,0.0,0.0,0.0,0.0,0.0,0.0,0.0,0.0,0.0,0.0,0.0,0.0,0.0,0.0,0.0,0.0,0.0,0.0,0.0,0.0,0.0,0.0,0.0,0.0,0.0,0.0,0.0,0.0,-1.6799,-2.1015,-2.5105,-2.8797,-3.1054,-3.2733,0.0,0.0,0.0,0.0,0.0,0.0,0.0,0.0,0.0,0.0,0.0,0.0,0.0,0.0,0.0,0.0,0.0,0.0,0.0,0.0,0.0,0.0,0.0,0.0,0.0,0.0,0.0,0.0,0.0,0.0,0.0,0.0,0.0,0.0,0.0,0.0,0.0,0.0,0.0,0.0,0.0,0.0,0.0,0.0,0.0,0.0,0.0,0.0,0.0,0.0,0.0,0.0,0.0,0.0,0.0,0.0,0.0,0.0,0.0,0.0,0.0,0.0,0.0,0.0,0.0,0.0,0.0,0.0,0.0,0.0,0.0,0.0,0.0,0.0,0.0,0.0,0.0,0.0,0.0,0.0,0.0,0.0,0.0,0.0,0.0,0.0,0.0,0.0,0.0,0.0,0.0,0.0,0.0,0.0,0.0,0.0,0.0,0.0,0.0,0.0,0.0,0.0,0.0,0.0,0.0,0.0,0.0,0.0,0.0,-2.1246,0.0,-2.9866,-3.2403,-3.4426,-3.5697,0.0,0.0,0.0,0.0,0.0,0.0,0.0,0.0,0.0,0.0,0.0,0.0,0.0,0.0,0.0,0.0,0.0,0.0,0.0,0.0,0.0,0.0,0.0,0.0,0.0,0.0,0.0,0.0,0.0,0.0,0.0,0.0,0.0,0.0,0.0,0.0,0.0,0.0,0.0,0.0,0.0,0.0,0.0,0.0,0.0,0.0,0.0,0.0,0.0,0.0,0.0,0.0,0.0,0.0,0.0,0.0,0.0,0.0,0.0,0.0,0.0,0.0,0.0,0.0,0.0,0.0,0.0,0.0,0.0,0.0,0.0,0.0,0.0,0.0,0.0,0.0,0.0,0.0,0.0,0.0,0.0,0.0,0.0,0.0,0.0,0.0,0.0,0.0,0.0,0.0,0.0,0.0,0.0,0.0,0.0,0.0,0.0,0.0,0.0,0.0,0.0,0.0,0.0,0.0,0.0,0.0,0.0,0.0,-2.1895,-2.6898,-3.0601,-3.3607,-3.594,-3.7957,-3.8883,0.0,0.0,0.0,0.0,0.0,0.0,0.0,0.0,0.0,0.0,0.0,0.0,0.0,0.0,0.0,0.0,0.0,0.0,0.0,0.0,0.0,0.0,0.0,0.0,0.0,0.0,0.0,0.0,0.0,0.0,0.0,0.0,0.0,0.0,0.0,0.0,0.0,0.0,0.0,0.0,0.0,0.0,0.0,0.0,0.0,0.0,0.0,0.0,0.0,0.0,0.0,0.0,0.0,0.0,0.0,0.0,0.0,0.0,0.0,0.0,0.0,0.0,0.0,0.0,0.0,0.0,0.0,0.0,0.0,0.0,0.0,0.0,0.0,0.0,0.0,0.0,0.0,0.0,0.0,0.0,0.0,0.0,0.0,0.0,0.0,0.0,0.0,0.0,0.0,0.0,0.0,0.0,0.0,0.0,0.0,0.0,0.0,0.0,0.0,0.0,0.0,0.0,0.0,0.0,0.0,0.0,0.0,0.0,0.0,-3.0649,-3.3655,-3.6307,-3.838,-3.9541,-3.9726,0.0,0.0,0.0,0.0,0.0,0.0,0.0,0.0,0.0,0.0,0.0,0.0,0.0,0.0,0.0,0.0,0.0,0.0,0.0,0.0,0.0,0.0,0.0,0.0,0.0,0.0,0.0,0.0,0.0,0.0,0.0,0.0,0.0,0.0,0.0,0.0,0.0,0.0,0.0,0.0,0.0,0.0,0.0,0.0,0.0,0.0,0.0,0.0,0.0,0.0,0.0,0.0,0.0,0.0,0.0,0.0,0.0,0.0,0.0,0.0,0.0,0.0,0.0,0.0,0.0,0.0,0.0,0.0,0.0,0.0,0.0,0.0,0.0,0.0,0.0,0.0,0.0,0.0,0.0,0.0,0.0,0.0,0.0,0.0,0.0,0.0,0.0,0.0,0.0,0.0,0.0,0.0,0.0,0.0,0.0,0.0,0.0,0.0,0.0,0.0,0.0,0.0,0.0,0.0,0.0,0.0,0.0,0.0,0.0,-3.5223,-3.7226,-3.9207,-4.0944,-4.1736,-4.1558,-4.0111,0.0,0.0,0.0,0.0,0.0,0.0,0.0,0.0,0.0,0.0,0.0,0.0,0.0,0.0,0.0,0.0,0.0,0.0,0.0,0.0,0.0,0.0,0.0,0.0,0.0,0.0,0.0,0.0,0.0,0.0,0.0,0.0,0.0,0.0,0.0,0.0,0.0,0.0,0.0,0.0,0.0,0.0,0.0,0.0,0.0,0.0,0.0,0.0,0.0,0.0,0.0,0.0,0.0,0.0,0.0,0.0,0.0,0.0,0.0,0.0,0.0,0.0,0.0,0.0,0.0,0.0,0.0,0.0,0.0,0.0,0.0,0.0,0.0,0.0,0.0,0.0,0.0,0.0,0.0,0.0,0.0,0.0,0.0,0.0,0.0,0.0,0.0,0.0,0.0,0.0,0.0,0.0,0.0,0.0,0.0,0.0,0.0,0.0,0.0,0.0,0.0,0.0,0.0,0.0,0.0,0.0,0.0,0.0,-4.0229,-4.1255,-4.2315,-4.3449,-4.4511,-4.4153,0.0,0.0,0.0,0.0,0.0,0.0,0.0,0.0,0.0,0.0,0.0,0.0,0.0,0.0,0.0,0.0,0.0,0.0,0.0,0.0,0.0,0.0,0.0,0.0,0.0,0.0,0.0,0.0,0.0,0.0,0.0,0.0,0.0,0.0,0.0,0.0,0.0,0.0,0.0,0.0,0.0,0.0,0.0,0.0,0.0,0.0,0.0,0.0,0.0,0.0,0.0,0.0,0.0,0.0,0.0,0.0,0.0,0.0,0.0,0.0,0.0,0.0,0.0,0.0,0.0,0.0,0.0,0.0,0.0,0.0,0.0,0.0,0.0,0.0,0.0,0.0,0.0,0.0,0.0,0.0,0.0,0.0,0.0,0.0,0.0,0.0,0.0,0.0,0.0,0.0,0.0,0.0,0.0,0.0,0.0,0.0,0.0,0.0,0.0,0.0,0.0,0.0,0.0,0.0,0.0,0.0,0.0,0.0,0.0,-4.1924,-4.4381,-4.599,-4.6401,-4.6123,-4.4941,0.0,0.0,0.0,0.0,0.0,0.0,0.0,0.0,0.0,0.0,0.0,0.0,0.0,0.0,0.0,0.0,0.0,0.0,0.0,0.0,0.0,0.0,0.0,0.0,0.0,0.0,0.0,0.0,0.0,0.0,0.0,0.0,0.0,0.0,0.0,0.0,0.0,0.0,0.0,0.0,0.0,0.0,0.0,0.0,0.0,0.0,0.0,0.0,0.0,0.0,0.0,0.0,0.0,0.0,0.0,0.0,0.0,0.0,0.0,0.0,0.0,0.0,0.0,0.0,0.0,0.0,0.0,0.0,0.0,0.0,0.0,0.0,0.0,0.0,0.0,0.0,0.0,0.0,0.0,0.0,0.0,0.0,0.0,0.0,0.0,0.0,0.0,0.0,0.0,0.0,0.0,0.0,0.0,0.0,0.0,0.0,0.0,0.0,0.0,0.0,0.0,0.0,0.0,0.0,0.0,0.0,0.0,0.0,-3.9169,-4.3361,-4.6094,-4.8142,-4.9524,-4.8122,-4.6376,0.0,0.0,0.0,0.0,0.0,0.0,0.0,0.0,0.0,0.0,0.0,0.0,0.0,0.0,0.0,0.0,0.0,0.0,0.0,0.0,0.0,0.0,0.0,0.0,0.0,0.0,0.0,0.0,0.0,0.0,0.0,0.0,0.0,0.0,0.0,0.0,0.0,0.0,0.0,0.0,0.0,0.0,0.0,0.0,0.0,0.0,0.0,0.0,0.0,0.0,0.0,0.0,0.0,0.0,0.0,0.0,0.0,0.0,0.0,0.0,0.0,0.0,0.0,0.0,0.0,0.0,0.0,0.0,0.0,0.0,0.0,0.0,0.0,0.0,0.0,0.0,0.0,0.0,0.0,0.0,0.0,0.0,0.0,0.0,0.0,0.0,0.0,0.0,0.0,0.0,0.0,0.0,0.0,0.0,0.0,0.0,0.0,0.0,0.0,0.0,0.0,0.0,0.0,0.0,0.0,0.0,0.0,0.0,-4.0035,-4.4285,-4.6848,-4.9398,-5.1942,-5.0216,-4.8157,0.0,0.0,0.0,0.0,0.0,0.0,0.0,0.0,0.0,0.0,0.0,0.0,0.0,0.0,0.0,0.0,0.0,0.0,0.0,0.0,0.0,0.0,0.0,0.0,0.0,0.0,0.0,0.0,0.0,0.0,0.0,0.0,0.0,0.0,0.0,0.0,0.0,0.0,0.0,0.0,0.0,0.0,0.0,0.0,0.0,0.0,0.0,0.0,0.0,0.0,0.0,0.0,0.0,0.0,0.0,0.0,0.0,0.0,0.0,0.0,0.0,0.0,0.0,0.0,0.0,0.0,0.0,0.0,0.0,0.0,0.0,0.0,0.0,0.0,0.0,0.0,0.0,0.0,0.0,0.0,0.0,0.0,0.0,0.0,0.0,0.0,0.0,0.0,0.0,0.0,0.0,0.0,0.0,0.0,0.0,0.0,0.0,0.0,0.0,0.0,0.0,0.0,0.0,0.0,0.0,0.0,0.0,0.0,-4.0458,-4.4365,-4.7701,-5.0212,-5.1899,-5.1139,-4.9643,0.0,0.0,0.0,0.0,0.0,0.0,0.0,0.0,0.0,0.0,0.0,0.0,0.0,0.0,0.0,0.0,0.0,0.0,0.0,0.0,0.0,0.0,0.0,0.0,0.0,0.0,0.0,0.0,0.0,0.0,0.0,0.0,0.0,0.0,0.0,0.0,0.0,0.0,0.0,0.0,0.0,0.0,0.0,0.0,0.0,0.0,0.0,0.0,-2.7721,0.0,0.0,0.0,0.0,0.0,0.0,0.0,0.0,0.0,0.0,0.0,0.0,0.0,0.0,0.0,0.0,0.0,0.0,0.0,0.0,0.0,0.0,0.0,0.0,0.0,0.0,0.0,0.0,0.0,0.0,0.0,0.0,0.0,0.0,0.0,0.0,0.0,0.0,0.0,0.0,0.0,0.0,0.0,0.0,0.0,0.0,0.0,0.0,0.0,0.0,0.0,0.0,0.0,0.0,0.0,0.0,0.0,0.0,0.0,-4.074,-4.447,-4.754,-5.0106,-5.2091,-5.175,-5.0471,0.0,0.0,0.0,0.0,0.0,0.0,0.0,0.0,0.0,0.0,0.0,0.0,0.0,0.0,0.0,0.0,0.0,0.0,0.0,0.0,0.0,0.0,0.0,0.0,0.0,0.0,0.0,0.0,0.0,0.0,0.0,0.0,0.0,0.0,0.0,0.0,0.0,0.0,0.0,0.0,0.0,0.0,0.0,0.0,0.0,0.0,0.0,0.0,0.0,0.0,0.0,0.0,0.0,0.0,0.0,0.0,0.0,0.0,0.0,0.0,0.0,0.0,0.0,0.0,0.0,0.0,0.0,0.0,0.0,0.0,0.0,0.0,0.0,0.0,0.0,0.0,0.0,0.0,0.0,0.0,0.0,0.0,0.0,0.0,0.0,0.0,0.0,0.0,0.0,0.0,0.0,0.0,0.0,0.0,0.0,0.0,0.0,0.0,0.0,0.0,0.0,0.0,0.0,0.0,0.0,0.0,0.0,-3.8004,-4.0815,-4.4191,-4.7005,-4.9805,-5.2595,-5.2062,-5.0905,-4.9034,0.0,0.0,0.0,0.0,0.0,0.0,0.0,0.0,0.0,0.0,0.0,0.0,0.0,0.0,0.0,0.0,0.0,0.0,0.0,0.0,0.0,0.0,0.0,0.0,0.0,0.0,0.0,0.0,0.0,0.0,0.0,0.0,0.0,0.0,0.0,0.0,0.0,0.0,-2.4153,-2.6236,0.0,0.0,0.0,0.0,0.0,0.0,0.0,0.0,-3.8477,0.0,0.0,0.0,0.0,0.0,0.0,0.0,0.0,0.0,0.0,0.0,0.0,0.0,0.0,0.0,0.0,0.0,0.0,0.0,0.0,0.0,0.0,0.0,0.0,0.0,0.0,0.0,0.0,0.0,0.0,0.0,0.0,0.0,0.0,0.0,0.0,0.0,0.0,0.0,0.0,0.0,0.0,0.0,0.0,0.0,0.0,0.0,0.0,0.0,0.0,0.0,0.0,0.0,0.0,0.0,0.0,-3.52,-3.7821,-4.0562,-4.3177,-4.6622,-4.9582,-5.2041,-5.1964,-5.1128,-4.9581,0.0,0.0,0.0,0.0,0.0,0.0,0.0,0.0,0.0,0.0,0.0,0.0,0.0,0.0,0.0,0.0,0.0,0.0,0.0,0.0,0.0,0.0,0.0,0.0,0.0,0.0,0.0,0.0,0.0,0.0,0.0,0.0,0.0,0.0,0.0,0.0,0.0,0.0,0.0,-2.8487,-2.987,0.0,0.0,0.0,0.0,0.0,0.0,0.0,0.0,-4.2296,0.0,0.0,0.0,0.0,0.0,0.0,0.0,0.0,0.0,0.0,0.0,0.0,0.0,0.0,0.0,0.0,0.0,0.0,0.0,0.0,0.0,0.0,0.0,0.0,0.0,0.0,0.0,0.0,0.0,0.0,0.0,0.0,0.0,0.0,0.0,0.0,0.0,0.0,0.0,0.0,0.0,0.0,0.0,0.0,0.0,0.0,0.0,0.0,0.0,0.0,0.0,0.0,0.0,0.0,0.0,-3.5187,-3.7831,-4.0383,-4.2722,-4.5944,-4.8795,-5.1266,-5.0975,-5.0237,0.0,0.0,0.0,0.0,0.0,0.0,0.0,0.0,0.0,0.0,0.0,0.0,0.0,0.0,0.0,0.0,0.0,0.0,0.0,0.0,0.0,0.0,0.0,0.0,0.0,0.0,0.0,0.0,0.0,0.0,0.0,0.0,0.0,0.0,0.0,0.0,0.0,0.0,0.0,0.0,-3.0825,-3.2653,-3.432,0.0,0.0,0.0,0.0,0.0,0.0,-4.4077,-4.4892,0.0,0.0,0.0,0.0,0.0,0.0,0.0,0.0,0.0,0.0,0.0,0.0,0.0,0.0,0.0,0.0,0.0,0.0,0.0,0.0,0.0,0.0,0.0,0.0,0.0,0.0,0.0,0.0,0.0,0.0,0.0,0.0,0.0,0.0,0.0,0.0,0.0,0.0,0.0,0.0,0.0,0.0,0.0,0.0,0.0,0.0,0.0,0.0,0.0,0.0,0.0,0.0,0.0,0.0,0.0,-3.5072,-3.7741,-4.0193,-4.236,-4.5183,-4.792,-5.0445,-4.9933,-4.9104,0.0,0.0,0.0,0.0,0.0,0.0,0.0,0.0,0.0,0.0,0.0,0.0,0.0,0.0,0.0,0.0,0.0,0.0,0.0,0.0,0.0,0.0,0.0,0.0,0.0,0.0,0.0,0.0,0.0,0.0,0.0,0.0,0.0,0.0,0.0,0.0,0.0,0.0,0.0,0.0,0.0,-3.5365,-3.7025,-3.9243,0.0,0.0,0.0,0.0,-4.574,-4.659,0.0,0.0,0.0,0.0,0.0,0.0,0.0,0.0,0.0,0.0,0.0,0.0,0.0,0.0,0.0,0.0,0.0,0.0,0.0,0.0,0.0,0.0,0.0,0.0,0.0,0.0,0.0,0.0,0.0,0.0,0.0,0.0,0.0,0.0,0.0,0.0,0.0,0.0,0.0,0.0,0.0,0.0,0.0,0.0,0.0,0.0,0.0,0.0,0.0,0.0,0.0,0.0,0.0,0.0,0.0,0.0,-3.4891,-3.7715,-3.9998,-4.1571,-4.4784,-4.7513,-4.9609,-4.9286,-4.8462,0.0,0.0,0.0,0.0,0.0,0.0,0.0,0.0,0.0,0.0,0.0,0.0,0.0,0.0,0.0,0.0,0.0,0.0,0.0,0.0,0.0,0.0,0.0,0.0,0.0,0.0,0.0,0.0,0.0,0.0,0.0,0.0,0.0,0.0,0.0,0.0,0.0,0.0,0.0,0.0,0.0,-3.7284,-4.0,-4.1719,-4.3214,0.0,0.0,-4.7126,-4.7973,-4.8268,0.0,0.0,0.0,0.0,0.0,0.0,0.0,0.0,0.0,0.0,0.0,0.0,0.0,0.0,0.0,0.0,0.0,0.0,0.0,0.0,0.0,0.0,0.0,0.0,0.0,0.0,0.0,0.0,0.0,0.0,0.0,0.0,0.0,0.0,0.0,0.0,0.0,0.0,0.0,0.0,0.0,0.0,0.0,0.0,0.0,0.0,0.0,0.0,0.0,0.0,0.0,0.0,0.0,0.0,0.0,-3.4876,-3.5253,-3.7845,-3.9925,-4.1362,-4.4387,-4.6625,-4.8029,-4.7785,-4.7216,0.0,0.0,0.0,0.0,0.0,0.0,0.0,0.0,0.0,0.0,0.0,0.0,0.0,0.0,0.0,0.0,0.0,0.0,0.0,0.0,0.0,0.0,0.0,0.0,0.0,0.0,0.0,0.0,0.0,0.0,0.0,0.0,0.0,0.0,0.0,0.0,0.0,0.0,0.0,0.0,0.0,0.0,-4.2584,-4.4655,0.0,0.0,0.0,-4.9925,-5.0281,0.0,0.0,0.0,0.0,0.0,0.0,0.0,0.0,0.0,0.0,0.0,0.0,0.0,0.0,0.0,0.0,0.0,0.0,0.0,0.0,0.0,0.0,0.0,0.0,0.0,0.0,0.0,0.0,0.0,0.0,0.0,0.0,0.0,0.0,0.0,0.0,0.0,0.0,0.0,0.0,0.0,0.0,0.0,0.0,0.0,0.0,0.0,0.0,0.0,0.0,0.0,0.0,0.0,0.0,0.0,0.0,0.0,-3.578,-3.8108,-3.9931,-4.1258,-4.4059,-4.5846,-4.6619,-4.6645,0.0,0.0,0.0,0.0,0.0,0.0,0.0,0.0,0.0,0.0,0.0,0.0,0.0,0.0,0.0,0.0,0.0,0.0,0.0,0.0,0.0,0.0,0.0,0.0,0.0,0.0,0.0,-2.709,0.0,0.0,0.0,0.0,0.0,0.0,0.0,0.0,0.0,0.0,0.0,0.0,0.0,0.0,-4.1568,-4.4768,-4.6963,-4.859,0.0,0.0,-5.1848,-5.1848,-5.2356,-5.2284,0.0,0.0,0.0,0.0,0.0,0.0,0.0,0.0,0.0,0.0,0.0,0.0,0.0,0.0,0.0,0.0,0.0,0.0,0.0,0.0,0.0,0.0,0.0,0.0,0.0,0.0,0.0,0.0,0.0,0.0,0.0,0.0,0.0,0.0,0.0,0.0,0.0,0.0,0.0,0.0,0.0,0.0,0.0,0.0,0.0,0.0,0.0,0.0,0.0,0.0,0.0,0.0,0.0,0.0,0.0,-3.6332,-3.831,-3.9829,-4.092,-4.3759,-4.5538,-4.5969,-4.5995,-4.5563,0.0,0.0,0.0,0.0,0.0,0.0,0.0,0.0,0.0,0.0,0.0,0.0,0.0,0.0,0.0,0.0,0.0,0.0,0.0,0.0,0.0,0.0,0.0,0.0,0.0,0.0,0.0,0.0,0.0,0.0,0.0,0.0,0.0,0.0,0.0,0.0,0.0,0.0,0.0,0.0,0.0,-4.3121,-4.6003,-4.8361,-5.0124,0.0,0.0,-5.2051,-5.2051,-5.3382,-5.3631,-5.1147,0.0,0.0,0.0,0.0,0.0,0.0,0.0,0.0,0.0,0.0,0.0,0.0,0.0,0.0,0.0,0.0,0.0,0.0,0.0,0.0,0.0,0.0,0.0,0.0,0.0,0.0,0.0,0.0,0.0,0.0,0.0,0.0,0.0,0.0,0.0,0.0,0.0,0.0,0.0,0.0,0.0,0.0,0.0,0.0,0.0,0.0,0.0,0.0,0.0,0.0,0.0,0.0,0.0,-3.6107,-3.6885,-3.8969,-4.0354,-4.116,-4.3609,-4.4814,-4.4687,-4.5018,-4.4509,0.0,0.0,0.0,0.0,0.0,0.0,0.0,0.0,0.0,0.0,0.0,0.0,0.0,0.0,0.0,0.0,0.0,0.0,0.0,0.0,0.0,0.0,0.0,0.0,0.0,0.0,0.0,0.0,-2.8208,-2.841,-2.8609,0.0,0.0,0.0,0.0,0.0,0.0,0.0,0.0,0.0,0.0,-4.5164,-4.8158,-5.0066,0.0,0.0,-5.2754,-5.2967,-5.2829,-5.3767,-5.4087,-5.2317,-4.7691,0.0,0.0,0.0,0.0,0.0,0.0,0.0,0.0,0.0,0.0,0.0,0.0,0.0,0.0,0.0,0.0,0.0,0.0,0.0,0.0,0.0,0.0,0.0,0.0,0.0,0.0,0.0,0.0,0.0,0.0,0.0,0.0,0.0,0.0,0.0,0.0,0.0,0.0,0.0,0.0,0.0,0.0,0.0,0.0,0.0,0.0,0.0,0.0,0.0,0.0,0.0,0.0,-3.681,-3.7688,-3.9546,-4.0852,-4.158,-4.3413,-4.4192,-4.3815,-4.4192,-4.3689,0.0,0.0,0.0,0.0,0.0,0.0,0.0,0.0,0.0,0.0,0.0,0.0,0.0,0.0,0.0,0.0,0.0,0.0,0.0,0.0,0.0,0.0,0.0,0.0,0.0,0.0,0.0,0.0,-2.9394,-2.9414,-2.9217,0.0,0.0,0.0,0.0,0.0,0.0,0.0,0.0,0.0,0.0,-4.6543,-4.9067,-5.0702,-5.1731,-5.2139,-5.2511,-5.2709,-5.228,-5.3017,-5.3351,-5.2296,0.0,0.0,0.0,0.0,0.0,0.0,0.0,0.0,0.0,0.0,0.0,0.0,0.0,0.0,0.0,0.0,0.0,0.0,0.0,0.0,0.0,0.0,0.0,0.0,0.0,0.0,0.0,0.0,0.0,0.0,-3.3972,0.0,0.0,0.0,0.0,0.0,0.0,0.0,0.0,0.0,0.0,0.0,0.0,0.0,0.0,0.0,0.0,0.0,0.0,0.0,0.0,0.0,0.0,-3.7236,-3.8818,-3.9948,-4.1053,-4.2108,-4.3237,-4.3815,-4.379,-4.3815,-4.3288,-4.2158,0.0,0.0,0.0,0.0,0.0,0.0,0.0,0.0,0.0,0.0,0.0,0.0,0.0,0.0,0.0,0.0,0.0,0.0,0.0,0.0,0.0,0.0,0.0,0.0,0.0,0.0,-3.0088,-3.0487,-3.0391,0.0,0.0,0.0,0.0,0.0,0.0,0.0,0.0,0.0,0.0,-4.4563,-4.6876,-4.8209,-4.9592,-5.044,-5.0668,-5.0624,-5.0479,-5.0022,-5.0978,-5.1544,0.0,0.0,0.0,0.0,0.0,0.0,0.0,0.0,0.0,0.0,0.0,0.0,0.0,0.0,0.0,0.0,0.0,0.0,0.0,0.0,0.0,0.0,0.0,0.0,0.0,0.0,0.0,-3.9243,-3.847,0.0,0.0,0.0,0.0,0.0,0.0,0.0,0.0,0.0,0.0,0.0,-4.0249,-4.0978,0.0,0.0,0.0,0.0,0.0,0.0,0.0,0.0,0.0,0.0,0.0,0.0,-3.8115,-3.9396,-4.0501,-4.143,-4.2158,-4.3237,-4.3614,-4.3263,-4.3614,-4.3112,-4.1656,0.0,0.0,0.0,0.0,0.0,0.0,0.0,0.0,0.0,0.0,0.0,0.0,0.0,0.0,0.0,0.0,0.0,0.0,0.0,0.0,0.0,0.0,0.0,0.0,0.0,-3.1043,0.0,0.0,0.0,0.0,0.0,0.0,0.0,0.0,0.0,0.0,0.0,-4.06,-4.2644,-4.4982,-4.686,-4.7877,-4.8434,-4.8939,0.0,0.0,0.0,0.0,0.0,0.0,0.0,0.0,0.0,0.0,0.0,0.0,0.0,0.0,-4.1614,-4.0915,-4.0394,-3.9629,-3.875,0.0,0.0,0.0,0.0,0.0,0.0,0.0,0.0,0.0,0.0,0.0,0.0,0.0,0.0,-4.1301,0.0,-3.9091,0.0,0.0,0.0,0.0,0.0,0.0,0.0,0.0,-4.0224,-4.1304,-4.2208,-4.276,-4.3011,0.0,-4.2258,-4.1354,0.0,0.0,0.0,0.0,0.0,0.0,0.0,0.0,-3.9069,-3.9973,-4.1078,-4.1907,-4.2434,-4.3137,-4.3338,-4.2986,-4.3137,-4.2635,-4.1379,-4.0124,-3.9038,0.0,0.0,0.0,0.0,0.0,0.0,0.0,0.0,0.0,0.0,0.0,0.0,0.0,0.0,0.0,0.0,0.0,0.0,0.0,0.0,0.0,0.0,0.0,-3.1825,0.0,0.0,0.0,0.0,0.0,0.0,0.0,0.0,0.0,-3.6578,-3.903,-4.124,-4.3044,-4.4929,-4.6165,-4.638,0.0,0.0,0.0,0.0,0.0,0.0,0.0,-4.7356,-4.5622,-4.3292,-4.1578,-4.1762,-4.2021,-4.2104,-4.2097,0.0,0.0,-4.076,-4.0286,-3.9634,-3.8665,-3.8616,-3.8569,-3.8685,-3.8228,-3.8031,0.0,0.0,0.0,0.0,0.0,0.0,0.0,0.0,-4.3598,-4.2885,0.0,-4.043,0.0,0.0,0.0,0.0,0.0,-3.8442,0.0,0.0,-4.2258,-4.3313,-4.3865,-4.4418,-4.4669,-4.4593,-4.3539,-4.2986,-4.2785,-4.0249,0.0,0.0,0.0,0.0,0.0,0.0,-3.9973,-4.0601,-4.1605,-4.2409,-4.2936,-4.2986,-4.2986,-4.2961,-4.2459,-4.1932,-4.1354,-4.0802,-3.9935,-3.8865,-3.7283,0.0,0.0,0.0,0.0,0.0,0.0,0.0,0.0,0.0,0.0,0.0,0.0,0.0,0.0,0.0,0.0,0.0,0.0,0.0,0.0,-3.193,0.0,0.0,0.0,0.0,0.0,0.0,0.0,0.0,0.0,0.0,-3.7789,-3.9744,-4.1497,-4.2944,0.0,0.0,0.0,0.0,-4.4337,-4.4059,-4.4018,-4.4039,-4.3912,-4.5103,-4.523,-4.2921,0.0,0.0,-4.0901,-4.1854,-4.1988,-4.1251,-4.1396,-4.147,-4.0934,-4.0459,-4.0045,-3.9505,-3.9329,-3.9292,-3.9191,-3.8487,-3.8047,-5.0024,0.0,0.0,0.0,0.0,-4.6778,-4.6877,-4.6375,-4.6462,-4.5586,-4.4135,-4.2971,0.0,0.0,0.0,0.0,0.0,0.0,-4.1229,-4.2308,-4.3564,-4.4443,-4.502,-4.5573,-4.5623,-4.5221,-4.4518,-4.374,-4.2961,-4.1781,-4.0526,-3.922,0.0,0.0,0.0,0.0,-4.035,-4.163,-4.2007,-4.2434,-4.2986,-4.2986,-4.2986,-4.2986,-4.2434,-4.1798,-4.1031,-4.0483,-3.9618,-3.834,-3.7405,0.0,0.0,0.0,0.0,0.0,0.0,0.0,0.0,0.0,0.0,0.0,0.0,0.0,0.0,0.0,0.0,0.0,0.0,0.0,-3.1019,-3.1762,-3.2447,0.0,0.0,0.0,0.0,0.0,0.0,0.0,0.0,0.0,-3.8138,-3.9481,-4.0657,0.0,0.0,-4.2441,-4.2146,-4.201,-4.1976,-4.2314,0.0,0.0,0.0,-4.3631,-4.3865,-4.231,-4.1203,-4.0617,-4.1164,-4.1085,-4.0966,-4.0661,-4.0523,-4.042,-4.0275,-4.0262,-4.0302,-4.0097,-3.9662,-3.9346,-3.9327,-3.8826,-3.8347,-5.2778,-5.0922,-4.9759,-4.8923,-4.8474,-4.9233,-4.9296,-4.8779,-4.8764,-4.7861,-4.6247,-4.473,-4.3119,-4.1402,-4.0983,0.0,0.0,0.0,-4.2585,-4.3664,-4.4568,-4.5271,-4.5824,-4.615,-4.6125,-4.5799,-4.5246,-4.4493,-4.3614,-4.2861,-4.1856,-4.0676,0.0,0.0,-4.0325,-4.0576,-4.1153,-4.2108,-4.2384,-4.2635,-4.2961,-4.2986,-4.2986,-4.2849,-4.2323,-4.1554,-4.0572,-4.0162,-3.93,-3.7916,-3.7358,-3.611,0.0,0.0,0.0,0.0,0.0,0.0,0.0,0.0,0.0,0.0,0.0,-2.9687,-2.9121,0.0,0.0,0.0,-2.9045,-2.9662,-3.0805,-3.1716,0.0,0.0,0.0,0.0,0.0,0.0,0.0,-3.4418,-3.5811,-3.6975,-3.7826,-3.8827,-3.9857,-4.0688,-4.0959,-4.0862,-4.0576,0.0,-4.0329,-4.061,-4.0894,-4.109,-4.1384,-4.2119,-4.22,-4.09,-4.0636,-4.0582,-4.0566,-4.041,-4.0293,-4.0215,-3.9922,-3.9629,-3.9609,-3.9707,-3.9824,-4.0073,-3.97,-3.9219,-3.9386,-3.875,-3.832,-5.494,-5.4132,-5.2306,-5.1468,-5.1439,-5.181,-5.1689,-5.1128,-5.0726,-4.9805,-4.8165,-4.6031,-4.4577,-4.3508,-4.2116,0.0,-4.2384,-4.2911,-4.374,-4.4719,-4.5296,-4.5824,-4.6301,-4.6301,-4.6326,-4.6301,-4.5698,-4.5146,-4.4568,-4.3514,-4.271,-4.2208,-4.1706,-4.1455,-4.143,-4.1882,-4.2183,-4.2233,-4.271,-4.2986,-4.2986,-4.2986,-4.2849,-4.2513,-4.2041,-4.1164,-4.0026,-3.978,-3.9053,-3.7643,-3.7251,-3.6133,-3.4381,0.0,0.0,0.0,0.0,0.0,0.0,0.0,0.0,0.0,0.0,0.0,0.0,0.0,0.0,0.0,-2.9291,0.0,-3.0323,-3.1646,0.0,0.0,0.0,-3.3693,-3.3922,-3.4103,-3.4453,-3.5293,0.0,0.0,-3.7207,0.0,-3.8912,-3.9921,-4.0126,-3.9878,-3.9321,-3.9136,-3.9109,-3.9151,-3.9082,-3.9238,-3.9739,-4.0464,-4.0334,-3.8744,-3.9179,-3.9596,-3.9368,-3.9518,-3.9726,-3.9668,-3.9355,-3.9023,-3.9043,-3.873,-3.8711,-3.9414,-3.9297,-3.9082,-3.9004,-3.8418,-3.7871,-5.5987,-5.494,-5.4431,-5.3653,-5.2785,-5.3119,-5.3089,-5.2746,-5.2538,-5.1484,-4.9827,-4.8352,-4.6645,-4.4675,-4.3627,-4.3514,-4.4066,-4.4618,-4.502,-4.5296,-4.5849,-4.6175,-4.6301,-4.6326,-4.6326,-4.625,-4.5296,-4.4769,-4.4568,-4.3514,-4.2911,-4.2785,-4.266,-4.2384,-4.1982,-4.2082,-4.2359,-4.276,-4.2911,-4.2986,-4.2986,-4.2986,-4.2849,-4.2538,-4.2389,-4.1533,-3.983,-3.9661,-3.8851,-3.6998,-3.6603,-3.5881,-3.4538,-3.3279,0.0,0.0,0.0,0.0,0.0,0.0,0.0,0.0,0.0,-2.9824,-2.9297,0.0,-2.9258,0.0,-2.9688,-3.0418,-3.1673,-3.1917,0.0,0.0,-3.3271,-3.3585,-3.3956,-3.4297,-3.4766,-3.5332,-3.6152,-3.6699,-3.6797,-3.7266,-3.774,-3.8043,-3.8596,-3.9011,-3.872,-3.8426,-3.8249,-3.8223,-3.8242,-3.8262,-3.8418,-3.8857,-3.8681,-3.6938,-3.7901,-3.8701,-3.8124,-3.8224,-3.8398,-3.8379,-3.8047,-3.7793,-3.7754,-3.7656,-3.7539,-3.7519,-3.7851,-3.8223,-3.8223,-3.7793,-3.7441,-5.6107,-5.5209,-5.5209,-5.476,-5.4102,-5.4391,-5.4209,-5.3934,-5.3669,-5.2636,-5.1089,-4.8946,-4.697,-4.5081,-4.4432,-4.4468,-4.502,-4.5347,-4.5623,-4.5874,-4.6175,-4.6326,-4.6326,-4.6326,-4.6326,-4.6276,-4.5422,-4.4869,-4.4593,-4.3765,-4.3212,-4.2986,-4.2986,-4.2836,-4.2534,-4.2509,-4.266,-4.2986,-4.2986,-4.2986,-4.2986,-4.2986,-4.2762,-4.2287,-4.2065,-4.1223,-3.961,-3.9459,-3.8516,-3.6535,-3.6379,-3.5623,-3.3741,-3.3008,-3.222,0.0,0.0,0.0,0.0,0.0,0.0,0.0,0.0,0.0,0.0,0.0,-2.957,-2.957,-2.9858,-3.0596,-3.1799,-3.1978,-3.2355,-3.3218,-3.3336,-3.3591,-3.4004,-3.4277,-3.459,-3.5039,-3.5684,-3.6113,-3.6113,-3.666,-3.7031,-3.7031,-3.7241,-3.7592,-3.7949,-3.7793,-3.7637,-3.7656,-3.7656,-3.7637,-3.7637,-3.7896,-3.7553,-3.601,-3.6598,-3.7261,-3.7042,-3.7047,-3.707,-3.7051,-3.6738,-3.6445,-3.6445,-3.6269,-3.6055,-3.5937,-3.6152,-3.6601,-3.6992,-3.6758,-3.6445,-5.5777,-5.5209,-5.5209,-5.5209,-5.5209,-5.5209,-5.5108,-5.4773,-5.4142,-5.3116,-5.1807,-4.8911,-4.6783,-4.5425,-4.5077,-4.5121,-4.5573,-4.5598,-4.5849,-4.6301,-4.6326,-4.6326,-4.6326,-4.6326,-4.6276,-4.6175,-4.5648,-4.5095,-4.4518,-4.3966,-4.3438,-4.2986,-4.2986,-4.2986,-4.2986,-4.2986,-4.2986,-4.2986,-4.2986,-4.2986,-4.2986,-4.2986,-4.2762,-4.2086,-4.1643,-4.0765,-3.949,-3.9155,-3.8055,-3.6072,-3.6162,-3.5179,-3.2706,-3.2591,-3.2064,0.0,-3.078,0.0,0.0,0.0,0.0,0.0,0.0,0.0,0.0,-2.9746,-2.9746,-2.9746,-3.0078,-3.0625,-3.1445,-3.1914,-3.248,-3.3242,-3.3379,-3.3594,-3.4004,-3.4062,-3.4238,-3.4648,-3.5059,-3.5312,-3.5351,-3.6132,-3.6583,-3.6367,-3.6171,-3.615,-3.6836,-3.6953,-3.6992,-3.7051,-3.6992,-3.6816,-3.7014,-3.7174,-3.676,-3.5097,-3.5256,-3.5704,-3.5898,-3.582,-3.5762,-3.5742,-3.541,-3.5156,-3.5137,-3.4805,-3.4551,-3.4473,-3.4492,-3.4805,-3.5527,-3.5586,-3.5273,-5.5777,-5.5209,-5.5209,-5.5209,-5.5209,-5.5209,-5.5179,-5.5048,-5.4209,-5.2791,-5.0864,-4.9603,-4.8373,-4.7133,-4.6569,-4.6289,-4.615,-4.615,-4.6225,-4.6326,-4.6326,-4.6326,-4.6326,-4.6326,-4.6075,-4.5623,-4.5045,-4.4493,-4.394,-4.3413,-4.3087,-4.2986,-4.2986,-4.2986,-4.2986,0.0,0.0,0.0,-4.2986,-4.2986,-4.2986,-4.2986,-4.2762,-4.211,-4.2012,0.0,-3.8995,-3.8606,-3.7469,-3.5402,-3.4756,0.0,0.0,0.0,0.0,0.0,0.0,0.0,0.0,0.0,0.0,0.0,-3.082,-3.0723,-3.0644,-3.0644,-3.0644,-3.0644,-3.0723,-3.0957,-3.1465,-3.1914,-3.2363,-3.2851,-3.3223,-3.3594,-3.4004,-3.4062,-3.4238,-3.4648,-3.4766,-3.4824,-3.4824,-3.5,-3.5078,-3.5098,-3.5059,-3.4945,-3.5176,-3.5547,-3.5762,-3.5742,-3.5527,-3.5579,-3.6097,-3.5904,-3.5269,-3.4013,-3.4145,-3.4599,-3.4883,-3.4629,-3.4453,-3.4434,-3.4082,-3.3809,-3.3809,-3.3711,-3.3574,-3.3223,-3.3184,-3.3418,-3.4258,-3.4648,-3.4629,-5.5508,0.0,-5.5209,-5.5209,0.0,-5.5209,-5.5209,-5.5149,-5.4161,-5.2719,-5.091,-4.9719,-4.8779,-4.7795,-4.7138,-4.6566,-4.6326,-4.6326,-4.6326,-4.6326,-4.6326,-4.6326,-4.6326,-4.6326,-4.6024,-4.5472,-4.4895,-4.4342,-4.379,-4.3237,-4.2986,-4.2986,-4.2986,-4.2986,-4.2986,-4.2986,-4.2986,-4.2986,-4.2986,-4.2986,-4.2986,-4.2986,-4.2762,-4.211,0.0,0.0,0.0,0.0,0.0,0.0,0.0,0.0,0.0,0.0,0.0,-3.1112,-3.1015,-3.0898,-3.0898,-3.0898,-3.0898,-3.0898,-3.0898,-3.0898,-3.0898,-3.0898,-3.0898,-3.0898,-3.0898,-3.1074,-3.1465,-3.1719,-3.2012,-3.2441,-3.2676,-3.291,-3.3086,-3.3125,-3.3348,-3.3564,-3.3603,-3.3535,-3.4064,-3.4113,-3.4062,-3.4062,-3.4062,-3.4004,-3.3887,-3.4512,-3.5039,-3.5039,-3.4687,-3.4642,-3.5119,-3.5131,-3.4556,-3.365,-3.3359,-3.3311,-3.3623,-3.3426,-3.3125,-3.3125,-3.293,-3.2812,-3.2793,-3.2793,-3.2734,-3.2539,-3.248,-3.25,-3.2812,-3.3144,-3.334,-5.5209,-5.5209,-5.5209,-5.5209,-5.5209,-5.5209,-5.5059,-5.479,0.0,0.0,0.0,-4.9829,-4.8771,-4.7989,-4.7324,-4.6661,-4.6301,-4.6326,-4.6326,-4.6326,-4.6326,-4.625,-4.6175,-4.6175,-4.5824,-4.5196,-4.4694,-4.4192,-4.3664,-4.3187,-4.2986,-4.2986,-4.2986,-4.2986,-4.2986,-4.2986,-4.2986,-4.2986,-4.2986,-4.2986,-4.2986,-4.2986,-4.2712,-4.1963,-4.1296,-4.017,-3.871,-3.7634,-3.6156,-3.4325,-3.3728,-3.2868,-3.1344,-3.1208,-3.1112,-3.0898,-3.0898,-3.0898,-3.0898,-3.0898,-3.0898,-3.0898,-3.0898,-3.0898,-3.0898,-3.0898,-3.0898,-3.0898,-3.0898,-3.1035,-3.1367,-3.1484,-3.166,-3.2012,-3.2129,-3.2168,-3.2187,-3.2168,-3.2387,-3.2489,-3.2407,-3.2446,-3.3001,-3.3172,-3.3203,-3.3203,-3.3203,-3.3105,-3.2891,-3.3555,-3.4141,-3.4101,-3.3809,-3.3809,-3.4152,-3.4432,-3.4037,-3.2961,-3.2332,-3.2168,-3.2309,-3.225,-3.207,-3.2129,-3.2012,-3.1953,-3.1934,-3.1934,-3.1934,-3.1934,-3.1934,-3.1836,-3.1543,-3.1699,-3.1953,-5.5209,-5.5209,-5.5209,-5.5209,-5.5209,-5.5209,-5.4521,-5.3533,-5.3684,-5.2541,-5.037,-5.0431,-4.9419,-4.781,-4.7587,-4.7112,-4.6301,-4.6326,-4.6326,0.0,-4.6326,-4.605,-4.5623,-4.5598,-4.5045,-4.4091,-4.394,-4.3639,-4.3137,-4.3011,-4.2986,-4.2986,-4.2986,-4.2986,-4.2986,-4.2986,-4.2986,-4.2986,-4.2986,-4.2986,-4.2986,-4.2986,-4.2538,-4.1447,-4.1125,-3.9698,-3.7353,-3.6455,-3.5059,-3.338,-3.2559,-3.1848,-3.1344,-3.1112,-3.0898,-3.0898,-3.0898,-3.0898,-3.0898,-3.0898,-3.0898,-3.0898,-3.0898,-3.0898,-3.0898,-3.0898,-3.0898,-3.0898,-3.0898,-3.0898,-3.0996,-3.1309,-3.1523,-3.1621,-3.1934,-3.2168,-3.2129,-3.2109,-3.225,-3.243,-3.2329,-3.2109,-3.2066,-3.2163,-3.2383,-3.2363,-3.2363,-3.2305,-3.2285,-3.2402,-3.2519,-3.2519,-3.248,-3.2461,-3.2799,-3.3109,-3.2911,-3.1501,-3.1264,-3.1271,-3.1731,-3.1777,-3.1621,-3.1601,-3.1367,-3.1172,-3.1133,-3.1074,-3.1113,-3.1113,-3.1094,-3.1035,-3.0957,-3.1055,-3.1094,-5.5209,-5.5209,-5.5209,-5.5209,-5.5209,-5.5209,-5.4431,-5.3234,-5.3208,-5.2229,-5.0414,-4.9671,-4.8599,-4.7542,-4.7094,-4.656,-4.5874,-4.6175,-4.6326,-4.6276,-4.5999,-4.5748,-4.5472,-4.5171,-4.4593,-4.3815,-4.379,-4.3514,-4.3037,-4.2986,-4.2986,-4.2986,-4.2986,-4.2986,-4.2986,-4.2986,-4.2986,-4.2986,-4.2986,-4.2986,-4.2986,-4.2986,-4.2488,-4.1521,-4.0893,-3.9474,-3.7368,-3.5938,-3.4575,-3.2913,-3.2227,-3.1556,-3.1112,-3.0995,-3.0898,-3.0898,-3.0898,-3.0898,-3.0898,-3.0898,-3.0898,-3.0898,-3.0898,-3.0898,-3.0898,-3.0898,-3.0898,-3.0898,-3.0898,-3.0898,-3.0898,-3.1074,-3.1191,-3.1191,-3.1367,-3.1465,-3.1465,-3.1465,-3.1484,-3.1642,-3.1623,-3.1404,-3.1301,-3.1638,-3.1816,-3.1797,-3.166,-3.1484,-3.1504,-3.1484,-3.166,-3.2051,-3.1973,-3.1953,-3.209,-3.2056,-3.176,-3.0964,-3.0969,-3.1011,-3.1287,-3.125,-3.1191,-3.1172,-3.0996,-3.0918,-3.0879,-3.0954,-3.0836,-3.0508,-3.0447,-3.0407,-3.0545,-3.0508,-3.0605,-5.5209,-5.5209,-5.5209,-5.5209,-5.5209,-5.5209,-5.4521,-5.3443,-5.297,-5.1935,-5.0456,-4.8949,-4.7862,-4.7017,-4.6498,-4.5999,-4.5347,-4.5723,-4.5924,-4.5874,-4.5497,-4.5221,-4.507,-4.4644,-4.4141,-4.3664,-4.3614,-4.3388,-4.3011,-4.2986,-4.2986,-4.2986,-4.2986,-4.2986,-4.2986,-4.2986,-4.2986,-4.2986,-4.2986,-4.2986,-4.2986,-4.2986,-4.2524,-4.1544,-4.0599,-3.9163,-3.7426,-3.5668,-3.4134,-3.2799,-3.2018,-3.146,-3.0898,-3.0898,-3.0898,-3.0898,-3.0898,-3.0898,-3.0898,-3.0898,-3.0898,-3.0898,-3.0898,-3.0898,-3.0898,-3.0898,-3.0898,-3.0898,-3.0898,-3.0898,-3.0898,-3.0898,-3.0898,-3.0898,-3.0898,-3.0937,-3.0898,-3.0898,-3.0898,-3.0898,-3.0898,-3.0898,-3.0975,-3.121,-3.1367,-3.1328,-3.1094,-3.0898,-3.0898,-3.0898,-3.1211,-3.1582,-3.1582,-3.1484,-3.1797,-3.1387,-3.0976,-3.0876,-3.0957,-3.0996,-3.0937,-3.0859,-3.0742,-3.0723,-3.0625,-3.0527,-3.0547,-3.06,-3.0403,-3.0172,-2.9996,-3.001,-3.0,-3.0059,-3.0215,-5.5209,-5.5209,-5.5209,-5.5209,-5.5209,-5.5209,-5.476,-5.3943,-5.2951,-5.1608,-5.0227,-4.9257,-4.7906,-4.6568,-4.6152,-4.5502,-4.4719,-4.4744,-4.4819,-4.4819,-4.4744,-4.4443,-4.4041,-4.3915,-4.3589,-4.3137,-4.3087,-4.3062,-4.2986,-4.2986,-4.2986,-4.2986,-4.2986,-4.2986,-4.2986,-4.2986,-4.2986,-4.2986,-4.2986,-4.2986,-4.2986,-4.2986,-4.2374,-4.0997,-4.0403,-3.8995,-3.696,-3.54,-3.4022,-3.2799,-3.1903,-3.1228,-3.0995,-3.0898,-3.0898,-3.0898,-3.0898,-3.0898,-3.0898,-3.0898,-3.0898,-3.0898,-3.0898,-3.0898,-3.0898,-3.0898,-3.0898,-3.0898,-3.0898,-3.0898,-3.0898,-3.0898,-3.0898,-3.0898,-3.0898,-3.0898,-3.0898,-3.0898,-3.0898,-3.0898,-3.0898,-3.0918,-3.0957,-3.0957,-3.0918,-3.0879,-3.0801,-3.0742,-3.0742,-3.0742,-3.0762,-3.0957,-3.0937,-3.0957,-3.1016,-3.0976,-3.082,-3.0879,-3.0898,-3.0781,-3.0684,-3.0469,-3.0254,-3.0254,-3.0019,-2.9844,-2.9805,-2.976,-2.976,-2.9741,-2.957,-2.9682,-2.9629,-2.9629,-2.9785,-5.5209,-5.5209,-5.5209,-5.5209,-5.5209,-5.5209,-5.482,-5.4062,-5.2981,-5.1608,-5.0069,-4.8555,-4.7042,-4.5631,-4.5356,-4.4826,-4.4166,-4.4468,-4.4618,-4.4593,-4.4292,-4.4016,-4.379,-4.3438,-4.3162,-4.3011,-4.2986,-4.2986,-4.2986,-4.2986,-4.2986,-4.2986,-4.2986,-4.2986,-4.2986,-4.2986,-4.2986,-4.2986,-4.2986,-4.2986,-4.2986,-4.2986,-4.2459,-4.1239,-4.0789,-3.9515,-3.7345,-3.6122,-3.4692,-3.3119,-3.2227,-3.1556,-3.0879,-3.0898,-3.0898,-3.0898,-3.0898,-3.0898,-3.0898,-3.0898,-3.0898,-3.0898,-3.0898,-3.0898,-3.0898,-3.0898,-3.0898,-3.0898,-3.0898,-3.0898,-3.0898,-3.0898,-3.0898,-3.0898,-3.0898,-3.0898,-3.0898,-3.0898,-3.0898,-3.0898,-3.0898,-3.0879,-3.084,-3.0644,-3.0391,-3.0195,-3.0117,-3.0156,-3.0137,-3.0117,-3.0117,-3.0117,-3.0117,-3.0234,-3.0371,-3.0388,-3.0482,-3.071,-3.027,-2.9945,-3.0098,-3.0,-2.9824,-2.9824,-2.9629,-2.9531,-2.9629,-2.9466,-2.9329,-2.9199,-2.918,-2.918,-2.9199,-2.918,-2.9277,-5.5209,-5.5209,-5.5209,-5.5209,-5.5209,-5.5209,-5.482,-5.4062,-5.2852,-5.1479,-4.994,-4.7866,-4.6269,-4.5099,-4.4642,-4.4153,-4.3639,-4.3991,-4.4166,-4.4141,-4.3765,-4.3589,-4.3539,-4.3187,-4.2986,-4.2961,-4.2811,-4.2735,-4.276,-4.276,-4.2811,-4.2961,-4.2986,-4.2986,-4.2986,-4.2986,-4.2986,-4.2986,-4.2986,-4.2911,-4.276,-4.276,-4.2308,-4.1322,-4.0856,-3.9775,-3.7679,-3.6665,-3.5223,-3.3346,-3.255,-3.1767,-3.0995,-3.0898,-3.0898,-3.0898,-3.0898,-3.0898,-3.0898,-3.0898,-3.0898,-3.0898,-3.0898,-3.0898,-3.0898,-3.0898,-3.0898,-3.0898,-3.0898,-3.0898,-3.0898,-3.0898,-3.0898,-3.0898,-3.0898,-3.0898,-3.0898,-3.0898,-3.0898,-3.0898,-3.0762,-3.0644,-3.0508,-3.0215,-2.9922,-2.9687,-2.9609,-2.957,-2.957,-2.9609,-2.9609,-2.957,-2.9492,-2.9551,-2.975,-2.9844,-3.0043,-3.0004,-2.9497,-2.9366,-2.9381,-2.9342,-2.9394,-2.9375,-2.9316,-2.9199,-2.9062,-2.8976,-2.8917,-2.8769,-2.8769,-2.8769,-2.875,-2.875,-2.875,-5.5209,-5.5179,-5.5179,-5.5119,-5.5179,-5.5119,-5.479,-5.3973,-5.2623,-5.1149,-4.9636,-4.7481,-4.5847,-4.4722,-4.4145,-4.3593,-4.3148,-4.3112,-4.3162,-4.3137,-4.3087,-4.3037,-4.3011,-4.2986,-4.2961,-4.2861,-4.2459,-4.2233,-4.2208,-4.2208,-4.2459,-4.2936,-4.2961,-4.2986,-4.2986,-4.2986,-4.2986,-4.2986,-4.2986,-4.2735,-4.2283,-4.2208,-4.1907,-4.1222,-4.0508,-3.9431,-3.8046,-3.6773,-3.5356,-3.3572,-3.2664,-3.1787,-3.0995,-3.0898,-3.0898,-3.0898,-3.0898,-3.0898,-3.0898,-3.0898,-3.0898,-3.0898,-3.0898,-3.0898,-3.0898,-3.0898,-3.0898,-3.0898,-3.0898,-3.0898,-3.0898,-3.0898,-3.0898,-3.0898,-3.0898,-3.0898,-3.0898,-3.0898,-3.0898,-3.0801,-3.0469,-3.0098,-2.9726,-2.9609,-2.957,-2.9492,-2.9531,-2.9492,-2.9434,-2.9492,-2.9473,-2.9394,-2.9219,-2.8972,-2.9191,-2.9375,-2.9133,-2.9075,-2.9147,-2.9303,-2.8814,-2.868,-2.8804,-2.8887,-2.8711,-2.8555,-2.8398,-2.8359,-2.8398,-2.8398,-2.8418,-2.8418,-2.8476,-2.8379,-2.8398,-5.4311,-5.3922,-5.3892,-5.3892,-5.3892,-5.3922,-5.3674,-5.3208,-5.1964,-5.063,-4.9172,-4.7246,-4.5662,-4.4396,-4.3489,-4.2992,-4.2961,-4.2986,-4.2986,-4.2986,-4.2986,-4.2986,-4.2986,-4.2986,-4.2785,-4.2459,-4.2258,-4.1982,-4.1706,-4.1982,-4.2258,-4.2484,-4.2811,-4.2986,-4.2986,-4.2986,-4.2986,-4.2986,-4.2986,-4.271,-4.2133,-4.1806,-4.1247,-4.0508,-4.0283,-3.9275,-3.7465,-3.6665,-3.5333,-3.3346,-3.2571,-3.1787,-3.0995,-3.0898,-3.0898,-3.0898,-3.0898,-3.0898,-3.0898,-3.0898,-3.0898,-3.0898,-3.0898,-3.0898,-3.0898,-3.0898,-3.0898,-3.0898,-3.0898,-3.0898,-3.0898,-3.0898,-3.0898,-3.0898,-3.0879,-3.0859,-3.0898,-3.0879,-3.0781,-3.0315,-2.9906,-2.9478,-2.9277,-2.916,-2.9043,-2.8809,-2.8769,-2.8789,-2.8769,-2.875,-2.8809,-2.875,-2.8633,-2.8555,-2.8544,-2.873,-2.8602,-2.8583,-2.8563,-2.8602,-2.8416,-2.8435,-2.8594,-2.8613,-2.8359,-2.832,-2.832,-2.832,-2.8301,-2.8301,-2.8301,-2.8301,-2.8301,-2.8301,-2.8301,-5.3623,-5.3204,-5.3174,-5.3174,-5.3174,-5.3174,-5.2957,-5.2358,-5.1425,-5.0112,-4.8555,-4.666,-4.5156,-4.395,-4.2703,-4.2301,-4.2434,-4.2459,-4.2459,-4.2434,-4.2434,-4.2459,-4.2459,-4.2434,-4.2258,-4.1907,-4.1706,-4.143,-4.1153,-4.1455,-4.1806,-4.2183,-4.2534,-4.2811,-4.2936,-4.2986,-4.2911,-4.276,-4.271,-4.2359,-4.1681,-4.1279,-4.0589,-3.9798,-3.9488,-3.8679,-3.7143,-3.6472,-3.5135,-3.3346,-3.255,-3.1787,-3.0995,-3.0898,-3.0898,-3.0898,-3.0898,-3.0898,-3.0898,-3.0898,-3.0898,-3.0898,-3.0898,-3.0898,-3.0898,-3.0898,-3.0898,-3.0898,-3.0898,-3.0859,-3.0703,-3.0664,-3.0664,-3.0644,-3.0547,-3.0469,-3.0469,-3.0449,-3.0215,-2.9692,-2.923,-2.8881,-2.87,-2.873,-2.8594,-2.832,-2.8301,-2.8301,-2.8301,-2.8301,-2.8301,-2.8301,-2.834,-2.834,-2.8398,-2.8457,-2.8476,-2.8437,-2.831,-2.834,-2.8301,-2.8301,-2.8301,-2.8301,-2.8301,-2.8301,-2.8301,-2.8301,-2.8301,-2.8301,-2.8301,-2.8301,-2.8301,-2.8301,-2.8301,-5.3084,-5.2935,-5.3114,-5.2875,-5.2815,-5.2785,-5.2569,-5.1587,-5.0847,-4.9395,-4.7623,-4.5619,-4.4283,-4.3329,-4.2011,-4.1354,-4.1404,-4.1354,-4.1404,-4.148,-4.1455,-4.1455,-4.148,-4.1505,-4.1455,-4.1304,-4.0777,-4.0526,-4.0526,-4.0651,-4.1153,-4.1957,-4.2183,-4.2509,-4.2986,-4.2961,-4.271,-4.2333,-4.2233,-4.1681,-4.0676,-4.0601,-4.0009,-3.8964,-3.8364,-3.7702,-3.7012,-3.6145,-3.4781,-3.3233,-3.2436,-3.1767,-3.0995,-3.0898,-3.0898,-3.0898,-3.0898,-3.0898,-3.0898,-3.0898,-3.0898,-3.0898,-3.0898,-3.0898,-3.0898,-3.0898,-3.0879,-3.082,-3.0801,-3.0684,-3.0293,-3.0156,-3.0156,-3.0156,-2.9922,-2.9746,-2.9687,-2.959,-2.9414,-2.9082,-2.8668,-2.8327,-2.8291,-2.8359,-2.834,-2.832,-2.8301,-2.8301,-2.8301,-2.8301,-2.8301,-2.8301,-2.8301,-2.8301,-2.8301,-2.8301,-2.8301,-2.8301,-2.832,-2.8301,-2.8301,-2.8301,-2.8301,-2.8301,-2.8301,-2.8301,-2.8301,-2.8301,-2.8301,-2.8301,-2.8301,-2.8301,-2.8301,-2.8301,-2.8301,-5.09,-5.0511,-5.0481,-5.0481,-5.0481,-5.0481,-5.0176,-4.9533,-4.8938,-4.7738,-4.6134,-4.4657,-4.3572,-4.2523,-4.1347,-4.0777,-4.0752,-4.0425,-4.0601,-4.1204,-4.1304,-4.1304,-4.1304,-4.1304,-4.1153,-4.0727,-4.0224,-3.9948,-4.0023,-4.0325,-4.0902,-4.153,-4.1982,-4.2434,-4.2936,-4.2961,-4.271,-4.2233,-4.2158,-4.1605,-4.0626,-4.029,-3.9699,-3.8575,-3.7761,-3.6904,-3.5927,-3.5024,-3.3888,-3.2571,-3.1883,-3.1325,-3.0995,-3.0898,-3.0898,-3.0898,-3.0898,-3.0898,-3.0898,-3.0898,-3.0898,-3.0898,-3.0898,-3.0898,-3.0898,-3.0879,-3.0742,-3.0488,-3.0391,-3.0081,-2.9824,-2.9473,-2.9473,-2.9726,-2.9648,-2.9531,-2.9473,-2.9277,-2.9082,-2.8926,-2.8524,-2.831,-2.832,-2.8301,-2.8301,-2.8301,-2.8301,-2.8301,-2.8301,-2.8301,-2.8301,-2.8301,-2.8301,-2.8301,-2.8301,-2.8301,-2.8301,-2.8301,-2.8301,-2.8301,-2.8301,-2.8301,-2.8301,-2.8301,-2.8301,-2.8301,-2.8301,-2.8301,-2.8301,-2.8301,-2.8301,-2.8301,-2.8301,-2.8301,-2.8301,-4.9643,-4.9284,-4.9254,-4.9254,-4.9254,-4.9254,-4.9073,-4.8617,-4.8155,-4.7091,-4.5678,-4.4366,-4.3069,-4.1956,-4.0869,-4.0329,-4.0174,-3.9823,-4.0049,-4.0651,-4.0727,-4.0727,-4.0727,-4.0727,-4.0576,-4.0224,-3.9848,-3.9697,-3.9722,-4.0049,-4.0501,-4.1028,-4.158,-4.2133,-4.261,-4.266,-4.2384,-4.1907,-4.163,-4.1103,-4.0295,-3.999,-3.929,-3.8234,-3.7334,-3.6145,-3.4936,-3.3909,-3.3006,-3.2227,-3.1556,-3.1112,-3.0879,-3.0898,-3.0898,-3.0898,-3.0898,-3.0898,-3.0898,-3.0898,-3.0898,-3.0898,-3.0898,-3.0898,-3.0859,-3.0781,-3.0469,-3.0254,-3.0039,-2.9653,-2.9375,-2.9101,-2.9004,-2.9062,-2.9062,-2.9101,-2.9043,-2.8867,-2.8711,-2.8613,-2.8457,-2.832,-2.8301,-2.8301,-2.8301,-2.8301,-2.8301,-2.8301,-2.8301,-2.8301,-2.8301,-2.8301,-2.8301,-2.8301,-2.8301,-2.8301,-2.8301,-2.8301,-2.8301,-2.8301,-2.8301,-2.8301,-2.8301,-2.8301,-2.8301,-2.8301,-2.8301,-2.8301,-2.8301,-2.8301,-2.8301,-2.8301,-2.8301,-2.8301,-2.8301,-4.9194,-4.9164,-4.9134,-4.9045,-4.9045,-4.9045,-4.8835,-4.8652,-4.8135,-4.7117,-4.5858,-4.4245,-4.2838,-4.1671,-4.0568,-3.9979,-3.9697,-3.9722,-3.9722,-3.9823,-3.9848,-3.9873,-3.9873,-3.9898,-3.9873,-3.9772,-3.9697,-3.9697,-3.9697,-3.9772,-3.9973,-4.0576,-4.1078,-4.158,-4.2007,-4.2108,-4.1831,-4.1304,-4.0852,-4.035,-3.9694,-3.9411,-3.8761,-3.7868,-3.6665,-3.5466,-3.4134,-3.2892,-3.2227,-3.1998,-3.1344,-3.0898,-3.0898,-3.0898,-3.0898,-3.0898,-3.0898,-3.0898,-3.0898,-3.0898,-3.0898,-3.0898,-3.0898,-3.0859,-3.0762,-3.0488,-3.0195,-2.998,-2.9726,-2.9355,-2.9004,-2.8848,-2.8691,-2.8398,-2.8457,-2.8418,-2.832,-2.834,-2.8379,-2.834,-2.8301,-2.8301,-2.8301,-2.8301,-2.8301,-2.8301,-2.8301,-2.8301,-2.8301,-2.8301,-2.8301,-2.8301,-2.8301,-2.8301,-2.8301,-2.8301,-2.8301,-2.8301,-2.8301,-2.8301,-2.8301,-2.8301,-2.8301,-2.8301,-2.8301,-2.8301,-2.8301,-2.8301,-2.8301,-2.8301,-2.8301,-2.8301,-2.8301,-2.8301,-2.8301,-4.8267,-4.7848,-4.7818,-4.7818,-4.7818,-4.7818,-4.7642,-4.7377,-4.6931,-4.6235,-4.4978,-4.3671,-4.2476,-4.138,-4.0568,-3.9981,-3.98,-3.9697,-3.9697,-3.9697,-3.9697,-3.9697,-3.9697,-3.9697,-3.9697,-3.9697,-3.9697,-3.9697,-3.9697,-3.9697,-3.9973,-4.0501,-4.0676,-4.1028,-4.148,-4.1555,-4.1254,-4.0802,-4.0626,-4.012,-3.9461,-3.8945,-3.808,-3.7012,-3.5904,-3.4692,-3.3346,-3.2227,-3.1441,-3.1228,-3.1112,-3.0898,-3.0898,-3.0898,-3.0898,-3.0898,-3.0898,-3.0898,-3.0898,-3.0898,-3.0898,-3.0898,-3.0859,-3.0742,-3.041,-3.0273,-2.9883,-2.9453,-2.927,-2.9074,-2.8574,-2.8476,-2.8398,-2.834,-2.8301,-2.8301,-2.8301,-2.8301,-2.8301,-2.8301,-2.8301,-2.8301,-2.8301,-2.8301,-2.8301,-2.8301,-2.8301,-2.8301,-2.8301,-2.8301,-2.8301,-2.8301,-2.8301,-2.8301,-2.8301,-2.8301,-2.8301,-2.8301,-2.8301,-2.8301,-2.8301,-2.8301,-2.8301,-2.8301,-2.8301,-2.8301,-2.8301,-2.8301,-2.8301,-2.8301,-2.8301,-2.8301,-2.8301,-2.8301,-2.8301,-4.7668,-4.7309,-4.7309,-4.7309,-4.7309,-4.7309,-4.7222,-4.7019,-4.658,-4.5837,-4.4897,-4.3681,-4.2528,-4.1471,-4.0593,-4.0083,-3.9697,-3.9697,-3.9697,-3.9697,-3.9697,-3.9697,-3.9697,-3.9697,-3.9697,-3.9697,-3.9697,-3.9697,-3.9697,-3.9697,-3.9898,-4.0149,-4.04,-4.0676,-4.0953,-4.0978,-4.0852,-4.0526,-4.0325,-3.9869,-3.9283,-3.8631,-3.7655,-3.6472,-3.5245,-3.3909,-3.2457,-3.1556,-3.0995,-3.0898,-3.0898,-3.0898,-3.0898,-3.0898,-3.0898,-3.0898,-3.0898,-3.0898,-3.0898,-3.0898,-3.0898,-3.084,-3.0742,-3.0488,-3.0176,-2.9902,-2.9355,-2.9043,-2.8917,-2.8682,-2.8379,-2.8301,-2.8301,-2.8301,-2.8301,-2.8301,-2.8301,-2.8301,-2.8301,-2.8301,-2.8301,-2.8301,-2.8301,-2.8301,-2.8301,-2.8301,-2.8301,-2.8301,-2.8301,-2.8301,-2.8301,-2.8301,-2.8301,-2.8301,-2.8301,-2.8301,-2.8301,-2.8301,-2.8301,-2.8301,-2.8301,-2.8301,-2.8301,-2.8301,-2.8301,-2.8301,-2.8301,-2.8301,-2.8301,-2.8301,-2.8301,-2.8301,-2.8301,-2.8301,-2.8301,-4.7309,-4.7309,-4.7309,-4.7309,-4.7309,-4.7309,-4.7309,-4.7222,-4.6785,-4.6135,-4.5293,-4.4153,-4.2846,-4.1696,-4.0795,-4.0211,-3.9697,-3.9697,-3.9697,-3.9697,-3.9697,-3.9697,-3.9697,-3.9697,-3.9697,-3.9697,-3.9697,-3.9697,-3.9697,-3.9697,-3.9697,-3.9848,-4.0199,-4.0375,-4.0425,-4.0425,-4.045,-4.0325,-3.9869,-3.9565,-3.8945,-3.821,-3.712,-3.5904,-3.4246,-3.2892,-3.1672,-3.0995,-3.0898,-3.0898,-3.0898,-3.0898,-3.0898,-3.0898,-3.0898,-3.0898,-3.0898,-3.0898,-3.0898,-3.0898,-3.0898,-3.084,-3.0469,-3.0156,-2.998,-2.9453,-2.8984,-2.8789,-2.8496,-2.8359,-2.832,-2.8301,-2.8301,-2.8301,-2.8301,-2.8301,-2.8301,-2.8301,-2.8301,-2.8301,-2.8301,-2.8301,-2.8301,-2.8301,-2.8301,-2.8301,-2.8301,-2.8301,-2.8301,-2.8301,-2.8301,-2.8301,-2.8301,-2.8301,-2.8301,-2.8301,-2.8301,-2.8301,-2.8301,-2.8301,-2.8301,-2.8301,-2.8301,-2.8301,-2.8301,-2.8301,-2.8301,-2.8301,-2.8301,-2.8301,-2.8301,-2.8301,-2.8301,-2.8301,-2.8301,-4.7309,-4.7309,-4.7309,-4.7309,-4.7309,-4.7309,-4.7309,-4.7222,-4.6756,-4.6225,-4.5475,-4.4247,-4.3012,-4.1842,-4.0997,-4.0211,-3.9697,-3.9697,-3.9697,-3.9697,-3.9697,-3.9697,-3.9697,-3.9697,-3.9697,-3.9697,-3.9697,-3.9697,-3.9697,-3.9697,-3.9697,-3.9747,-3.9823,-3.9873,-3.9898,-3.9948,-3.9873,-3.9848,-3.9515,-3.9154,-3.8526,-3.7548,-3.6363,-3.4803,-3.3006,-3.1767,-3.1228,-3.0879,-3.0898,-3.0898,-3.0898,-3.0898,-3.0898,-3.0898,-3.0898,-3.0898,-3.0898,-3.0898,-3.0898,-3.0898,-3.0879,-3.0801,-3.041,-3.0059,-2.9687,-2.9219,-2.8769,-2.8535,-2.834,-2.8301,-2.8301,-2.8301,-2.8301,-2.8301,-2.8301,-2.8301,-2.8301,-2.8301,-2.8301,-2.8301,-2.8301,-2.8301,-2.8301,-2.8301,-2.8301,-2.8301,-2.8301,-2.8301,-2.8301,-2.8301,-2.8301,-2.8301,-2.8301,-2.8301,-2.8301,-2.8301,-2.8301,-2.8301,-2.8301,-2.8301,-2.8301,-2.8301,-2.8301,-2.8301,-2.8301,-2.8301,-2.8301,-2.8301,-2.8301,-2.8301,-2.8301,-2.8301,-2.8301,-2.8301,-2.8301,-4.7309,-4.7309,-4.7309,-4.7309,-4.7309,-4.7309,-4.7309,-4.7222,-4.6785,-4.6314,-4.5566,-4.4247,-4.3012,-4.194,-4.0971,-4.0185,-3.98,-3.9697,-3.9697,-3.9697,-3.9697,-3.9697,-3.9697,-3.9697,-3.9697,-3.9697,-3.9697,-3.9697,-3.9697,-3.9697,-3.9697,-3.9697,-3.9697,-3.9722,-3.9697,-3.9697,-3.9722,-3.9722,-3.9465,-3.905,-3.8315,-3.712,-3.5356,-3.3685,-3.2113,-3.1228,-3.0879,-3.0898,-3.0898,-3.0898,-3.0898,-3.0898,-3.0898,-3.0898,-3.0898,-3.0898,-3.0898,-3.0898,-3.0898,-3.0879,-3.0801,-3.0586,-3.0156,-2.9726,-2.9297,-2.8867,-2.8574,-2.8359,-2.8301,-2.8301,-2.8301,-2.8301,-2.8301,-2.8301,-2.8301,-2.8301,-2.8301,-2.8301,-2.8301,-2.8301,-2.8301,-2.8301,-2.8301,-2.8184,-2.8242,-2.8203,-2.8223,-2.8242,-2.8281,-2.8281,-2.8301,-2.8301,-2.8301,-2.8301,-2.8301,-2.8301,-2.8301,-2.8301,-2.8301,-2.8301,-2.8301,-2.8301,-2.8301,-2.8301,-2.8301,-2.8301,-2.8301,-2.8301,-2.8301,-2.8301,-2.8301,-2.8301,-2.8301,-2.8301,-2.8301,-4.7309,-4.7309,-4.7309,-4.7309,-4.7309,-4.7309,-4.7309,-4.7135,-4.6785,-4.6314,-4.5566,-4.4247,-4.3108,-4.194,-4.0971,-4.0287,-3.98,-3.9697,-3.9697,-3.9697,-3.9697,-3.9697,-3.9697,-3.9697,-3.9697,-3.9697,-3.9697,-3.9697,-3.9697,-3.9697,-3.9697,-3.9697,-3.9697,-3.9697,-3.9697,-3.9697,-3.9697,-3.9697,-3.9362,-3.8841,-3.808,-3.6773,-3.4803,-3.2685,-3.1672,-3.1112,-3.0879,-3.0898,-3.0898,-3.0898,-3.0898,-3.0898,-3.0898,-3.0898,-3.0898,-3.0898,-3.0898,-3.0898,-3.0898,-3.0859,-3.0703,-3.0234,-2.9824,-2.9414,-2.8984,-2.8613,-2.8379,-2.832,-2.8301,-2.8301,-2.8301,-2.8301,-2.8301,-2.8301,-2.8301,-2.8301,-2.8301,-2.8301,-2.8281,-2.8164,-2.8086,-2.8047,-2.7969,-2.7891,-2.8008,-2.8105,-2.8125,-2.8125,-2.8144,-2.8184,-2.8125,-2.8203,-2.8203,-2.8281,-2.8301,-2.8301,-2.8301,-2.8301,-2.8301,-2.8301,-2.8301,-2.8301,-2.8301,-2.8301,-2.8301,-2.8301,-2.8194,-2.8194,-2.8194,-2.8301,-2.8194,-2.8194,-2.8194,-2.8301,-2.8301,-4.7309,-4.7309,-4.7309,-4.7309,-4.7309,-4.7279,-4.7133,-4.6931,-4.655,-4.6225,-4.5384,-4.434,-4.315,-4.2039,-4.1172,-4.0389,-3.98,-3.9697,-3.9697,-3.9697,-3.9697,-3.9697,-3.9697,-3.9697,-3.9697,-3.9697,-3.9697,-3.9697,-3.9697,-3.9697,-3.9697,-3.9697,-3.9697,-3.9697,-3.9697,-3.9697,-3.9697,-3.9594,-3.9154,-3.8502,-3.7524,-3.61,-3.4357,-3.2133,-3.1344,-3.0995,-3.0898,-3.0898,-3.0898,-3.0898,-3.0898,-3.0898,-3.0898,-3.0898,-3.0898,-3.0898,-3.0898,-3.0898,-3.0898,-3.0879,-3.0644,-3.0234,-2.9805,-2.9355,-2.8926,-2.8555,-2.834,-2.8301,-2.8301,-2.8301,-2.8301,-2.8301,-2.8301,-2.8301,-2.8301,-2.8301,-2.8301,-2.8281,-2.8105,-2.7832,-2.7754,-2.7695,-2.7598,-2.7519,-2.7539,-2.7559,-2.7415,-2.7519,-2.7519,-2.7656,-2.7773,-2.791,-2.8086,-2.8203,-2.8301,-2.8301,-2.8301,-2.8301,-2.8281,-2.8174,-2.8281,-2.8301,-2.8301,-2.8087,-2.8194,-2.8194,-2.8174,-2.8067,-2.7999,-2.8018,-2.7999,-2.7979,-2.8087,-2.8194,-2.8301,-4.6262,-4.6262,-4.6262,-4.6262,-4.6262,-4.6262,-4.6177,-4.5921,-4.5664,-4.5318,-4.4657,-4.3706,-4.274,-4.1887,-4.1097,-4.0287,-3.9878,-3.9697,-3.9697,-3.9697,-3.9697,-3.9697,-3.9697,-3.9697,-3.9697,-3.9697,-3.9697,-3.9697,-3.9697,-3.9697,-3.9697,-3.9697,-3.9697,-3.9697,-3.9697,-3.9697,-3.9594,-3.9362,-3.8841,-3.8185,-3.7096,-3.5356,-3.3346,-3.2113,-3.1228,-3.0898,-3.0898,-3.0898,-3.0898,-3.0898,-3.0898,-3.0898,-3.0898,-3.0898,-3.0898,-3.0898,-3.0898,-3.0898,-3.0898,-3.0859,-3.0586,-2.9941,-2.9668,-2.9258,-2.8769,-2.8398,-2.8301,-2.8301,-2.8301,-2.8301,-2.8301,-2.8301,-2.8301,-2.8301,-2.8301,-2.8301,-2.8301,-2.8301,-2.7969,-2.7578,-2.7617,-2.7519,-2.7187,-2.7129,-2.7172,-2.7012,-2.6851,-2.6832,-2.6914,-2.7129,-2.7363,-2.7754,-2.7969,-2.8164,-2.8174,-2.8194,-2.8067,-2.8048,-2.8067,-2.8067,-2.7853,-2.7745,-2.7745,-2.7745,-2.7853,-2.7853,-2.8067,-2.7853,-2.7891,-2.7714,-2.7783,-2.7745,-2.796,-2.8067,-2.8087,-4.5274,-4.5274,-4.5274,-4.5274,-4.5304,-4.5221,-4.5168,-4.4887,-4.4663,-4.4269,-4.3849,-4.2879,-4.2005,-4.1195,-4.0434,-3.9753,-3.9496,-3.9496,-3.9546,-3.9697,-3.9697,-3.9697,-3.9697,-3.9697,-3.9697,-3.9697,-3.9697,-3.9697,-3.9697,-3.9697,-3.9697,-3.9697,-3.9697,-3.9697,-3.9697,-3.9697,-3.949,-3.9154,-3.8631,-3.7785,-3.6231,-3.4224,-3.2571,-3.1787,-3.1228,-3.0898,-3.0898,-3.0898,-3.0898,-3.0898,-3.0898,-3.0898,-3.0898,-3.0898,-3.0898,-3.0898,-3.0898,-3.0898,-3.0879,-3.0723,-3.0371,-2.9707,-2.9512,-2.9023,-2.8574,-2.834,-2.8301,-2.8301,-2.8301,-2.8301,-2.8301,-2.8301,-2.8301,-2.8301,-2.8301,-2.8301,-2.8301,-2.8223,-2.7949,-2.7715,-2.7637,-2.7266,-2.6836,-2.6562,-2.6465,-2.6465,-2.6306,-2.6345,-2.6465,-2.6719,-2.7031,-2.7559,-2.7891,-2.7999,-2.8135,-2.7979,-2.7833,-2.7561,-2.7492,-2.7511,-2.7295,-2.706,-2.7079,-2.6989,-2.7098,-2.7206,-2.7422,-2.753,-2.7116,-2.7008,-2.7206,-2.7295,-2.6971,-2.7295,-2.753,-4.5274,-4.5274,-4.5274,-4.5274,-4.5244,-4.5078,-4.4828,-4.4545,-4.4177,-4.3719,-4.2923,-4.2175,-4.1218,-4.0123,-3.8885,-3.8642,-3.8843,-3.9069,-3.927,-3.9546,-3.9672,-3.9697,-3.9697,-3.9697,-3.9697,-3.9697,-3.9697,-3.9697,-3.9697,-3.9697,-3.9697,-3.9697,-3.9697,-3.9697,-3.9697,-3.9697,-3.9594,-3.9154,-3.8396,-3.6773,-3.467,-3.3119,-3.2113,-3.1441,-3.1112,-3.0898,-3.0898,-3.0898,-3.0898,-3.0898,-3.0898,-3.0898,-3.0898,-3.0898,-3.0898,-3.0898,-3.0898,-3.0898,-3.084,-3.0566,-3.0156,-2.9609,-2.9277,-2.8809,-2.8457,-2.8301,-2.8301,-2.8301,-2.8301,-2.8301,-2.8301,-2.8301,-2.8301,-2.8301,-2.8301,-2.8301,-2.8301,-2.8281,-2.7988,-2.7754,-2.7637,-2.6953,-2.6348,-2.6094,-2.5879,-2.5879,-2.5918,-2.5996,-2.6014,-2.6326,-2.6575,-2.7014,-2.7333,-2.7564,-2.7707,-2.7657,-2.7403,-2.7004,-2.6933,-2.6862,-2.6518,-2.6191,-2.5972,-2.599,-2.61,-2.61,-2.6209,-2.6209,-2.6008,-2.6008,-2.6209,-2.5972,-2.5643,-2.6191,-2.6881,-4.3953,-4.4167,-4.4197,-4.4167,-4.4116,-4.3924,-4.3678,-4.3294,-4.2876,-4.2367,-4.1686,-4.0995,-4.0054,-3.9058,-3.8187,-3.814,-3.8417,-3.8668,-3.8969,-3.9295,-3.9496,-3.9672,-3.9697,-3.9697,-3.9697,-3.9697,-3.9697,-3.9697,-3.9697,-3.9697,-3.9697,-3.9697,-3.9697,-3.9697,-3.9697,-3.9569,-3.9154,-3.8396,-3.7096,-3.5333,-3.3685,-3.2571,-3.1787,-3.1344,-3.0995,-3.0898,-3.0898,-3.0898,-3.0898,-3.0898,-3.0898,-3.0898,-3.0898,-3.0898,-3.0898,-3.0898,-3.0898,-3.0898,-3.084,-3.043,-3.0,-2.959,-2.916,-2.875,-2.8418,-2.8301,-2.8301,-2.8301,-2.8301,-2.8301,-2.8301,-2.8301,-2.8301,-2.8301,-2.8301,-2.8301,-2.8301,-2.8281,-2.8144,-2.7891,-2.7637,-2.709,-2.6641,-2.6462,-2.6365,-2.6387,-2.6309,-2.625,-2.617,-2.6148,-2.6212,-2.6305,-2.6578,-2.688,-2.7056,-2.7135,-2.6862,-2.6481,-2.6318,-2.6118,-2.5533,-2.5203,-2.4872,-2.4539,-2.4428,-2.4539,-2.4872,-2.4982,-2.511,-2.5,-2.5017,-2.4872,-2.4744,-2.5441,-2.6008,-4.2393,-4.293,-4.309,-4.317,-4.309,-4.285,-4.2555,-4.2228,-4.1676,-4.1027,-4.046,-3.9671,-3.871,-3.8069,-3.7733,-3.7588,-3.7839,-3.8266,-3.8517,-3.8793,-3.917,-3.9421,-3.9496,-3.9546,-3.9697,-3.9697,-3.9697,-3.9697,-3.9697,-3.9697,-3.9697,-3.9697,-3.9697,-3.9697,-3.9569,-3.9362,-3.8945,-3.7655,-3.5772,-3.4246,-3.3006,-3.2113,-3.1556,-3.1228,-3.0995,-3.0898,-3.0898,-3.0898,-3.0898,-3.0898,-3.0898,-3.0898,-3.0898,-3.0898,-3.0898,-3.0859,-3.0781,-3.0644,-3.0527,-3.0234,-2.9863,-2.9434,-2.9043,-2.8574,-2.8379,-2.8301,-2.8301,-2.8301,-2.8301,-2.8301,-2.8301,-2.8301,-2.8301,-2.8301,-2.8301,-2.8301,-2.8301,-2.8281,-2.8262,-2.8105,-2.791,-2.7773,-2.7441,-2.7221,-2.7085,-2.6992,-2.6797,-2.6562,-2.6245,-2.5987,-2.5812,-2.5759,-2.5459,-2.5736,-2.6064,-2.6118,-2.5972,-2.5735,-2.5569,-2.5145,-2.4428,-2.3871,-2.3328,-2.3103,-2.2862,-2.2862,-2.3087,-2.3648,-2.4094,-2.3776,-2.3552,-2.376,-2.3983,-2.4667,-2.4778,-4.0879,-4.1868,-4.2415,-4.2659,-4.2688,-4.2281,-4.1951,-4.1702,-4.083,-4.0083,-3.94,-3.8383,-3.7449,-3.6937,-3.6804,-3.6885,-3.7262,-3.7287,-3.7663,-3.8165,-3.8617,-3.8919,-3.912,-3.9396,-3.9647,-3.9697,-3.9697,-3.9697,-3.9697,-3.9697,-3.9697,-3.9697,-3.9697,-3.9697,-3.949,-3.905,-3.7974,-3.6557,-3.4803,-3.3459,-3.2457,-3.1672,-3.1208,-3.0995,-3.0898,-3.0898,-3.0898,-3.0898,-3.0898,-3.0898,-3.082,-3.0781,-3.0762,-3.0703,-3.0664,-3.0605,-3.041,-3.0254,-3.0078,-2.9824,-2.9434,-2.9004,-2.8652,-2.8398,-2.8301,-2.8301,-2.8301,-2.8301,-2.8301,-2.8301,-2.8301,-2.8301,-2.8301,-2.8301,-2.8301,-2.8301,-2.8301,-2.8301,-2.8281,-2.8262,-2.8164,-2.8008,-2.7969,-2.7707,-2.7428,-2.7338,-2.684,-2.6628,-2.592,-2.5541,-2.5284,-2.499,-2.4403,-2.4489,-2.4751,-2.4778,-2.4684,-2.4189,-2.3838,-2.3424,-2.2974,-2.2425,-2.1972,-2.1744,-2.1631,-2.1517,-2.1517,-2.2085,-2.2425,-2.2199,-2.2199,-2.241,-2.2523,-2.2862,-2.2862,-3.9222,-3.9562,-4.0003,-4.0953,-4.2252,-4.1951,-4.1702,-4.1367,-4.0315,-3.9149,-3.8096,-3.7294,-3.6828,-3.6546,-3.6452,-3.6458,-3.6734,-3.7086,-3.7287,-3.7613,-3.804,-3.8492,-3.8818,-3.9069,-3.9346,-3.9597,-3.9672,-3.9697,-3.9697,-3.9697,-3.9697,-3.9697,-3.9697,-3.9594,-3.9258,-3.8291,-3.6773,-3.5333,-3.3909,-3.2685,-3.1767,-3.1325,-3.0995,-3.0898,-3.0898,-3.0898,-3.0898,-3.0898,-3.0898,-3.082,-3.0625,-3.0547,-3.0449,-3.0293,-3.0176,-3.0156,-2.9922,-2.9726,-2.9512,-2.9277,-2.8984,-2.8633,-2.8398,-2.8301,-2.8301,-2.8301,-2.8301,-2.8301,-2.8301,-2.8301,-2.8301,-2.8301,-2.8301,-2.8301,-2.8301,-2.8301,-2.8301,-2.8301,-2.8194,-2.8155,-2.8281,-2.8223,-2.8116,-2.8116,-2.7854,-2.7554,-2.716,-2.6522,-2.5853,-2.5061,-2.4729,-2.4175,-2.3606,-2.3102,-2.3326,-2.3344,-2.3295,-2.278,-2.2251,-2.1926,-2.1616,-2.1288,-2.0845,-2.0615,-2.05,-2.0615,-2.073,-2.0845,-2.096,-2.1189,-2.1303,-2.1288,-2.1402,-2.1402,-2.1402,-3.7621,-3.784,-3.7952,-3.9196,-4.0958,-4.0879,-4.0772,-4.0492,-3.9491,-3.8299,-3.7015,-3.6709,-3.6615,-3.6452,-3.6358,-3.6358,-3.6483,-3.6734,-3.6885,-3.7136,-3.7513,-3.7965,-3.8341,-3.8743,-3.9094,-3.9421,-3.9647,-3.9697,-3.9697,-3.9697,-3.9697,-3.9697,-3.9594,-3.949,-3.8945,-3.7441,-3.5817,-3.4469,-3.3233,-3.2227,-3.1441,-3.1112,-3.0879,-3.0898,-3.0898,-3.0898,-3.0898,-3.0898,-3.0898,-3.0742,-3.0527,-3.0254,-3.0059,-2.9863,-2.9629,-2.9531,-2.9414,-2.9219,-2.9004,-2.875,-2.8613,-2.8379,-2.832,-2.8301,-2.8301,-2.8301,-2.8301,-2.8301,-2.8301,-2.8301,-2.8301,-2.8301,-2.8301,-2.8301,-2.8301,-2.8301,-2.8281,-2.8174,-2.8174,-2.8174,-2.8067,-2.7745,-2.753,-2.7314,-2.7239,-2.6943,-2.6767,-2.612,-2.5496,-2.4667,-2.4034,-2.3369,-2.2589,-2.2196,-2.1926,-2.1972,-2.1904,-2.1645,-2.113,-2.0787,-2.0458,-2.0256,-2.004,-2.0053,-1.9938,-1.9822,-1.9938,-2.0169,-2.027,-2.0385,-2.0385,-2.05,-2.0385,-2.0385,-2.05,-3.6195,-3.6855,-3.6683,-3.7538,-3.8833,-3.8753,-3.895,-3.9084,-3.8216,-3.7441,-3.6777,-3.6615,-3.6546,-3.6452,-3.6358,-3.6358,-3.6358,-3.6433,-3.6483,-3.6634,-3.696,-3.7211,-3.7638,-3.8165,-3.8693,-3.8817,-3.927,-3.9572,-3.9697,-3.9697,-3.9697,-3.949,-3.9258,-3.905,-3.905,-3.7203,-3.5466,-3.4022,-3.2778,-3.1883,-3.1325,-3.0995,-3.0898,-3.0898,-3.0898,-3.0898,-3.0898,-3.0898,-3.0898,-3.082,-3.0351,-3.0117,-3.0039,-2.9629,-2.9414,-2.9414,-2.9101,-2.8926,-2.8867,-2.8516,-2.8359,-2.832,-2.8301,-2.8301,-2.8301,-2.8301,-2.8301,-2.8301,-2.8301,-2.8301,-2.8301,-2.8301,-2.8301,-2.8301,-2.8301,-2.8194,-2.8174,-2.796,-2.796,-2.7638,-2.7314,-2.6989,-2.6663,-2.6445,-2.6336,-2.6173,-2.6133,-2.5647,-2.4915,-2.4253,-2.3461,-2.2654,-2.1846,-2.1406,-2.1031,-2.0601,-2.0385,-2.0256,-2.0127,-2.0012,-2.0012,-1.9924,-1.9707,-1.9488,-1.9475,-1.9591,-1.9591,-1.9475,-1.9707,-1.9924,-1.9707,-1.9707,-1.9591,-1.9591,-1.9822,-3.4523,-3.4777,-3.5015,-3.5541,-3.6306,-3.762,-3.8171,-3.8136,-3.7449,-3.6753,-3.6539,-3.6546,-3.6452,-3.6452,-3.6358,-3.6358,-3.6358,-3.6358,-3.6358,-3.6408,-3.6609,-3.6885,-3.7236,-3.7613,-3.814,-3.8718,-3.912,-3.9371,-3.9697,-3.9647,-3.9569,-3.9362,-3.8631,-3.7974,-3.7227,-3.5927,-3.4357,-3.3233,-3.2113,-3.1441,-3.1112,-3.1015,-3.0898,-3.0898,-3.0898,-3.0898,-3.0898,-3.0898,-3.0898,-3.0781,-3.0293,-2.9863,-2.9687,-2.9258,-2.8789,-2.8769,-2.8535,-2.8516,-2.8496,-2.834,-2.8301,-2.8301,-2.8301,-2.8301,-2.8301,-2.8301,-2.8301,-2.8301,-2.8301,-2.8301,-2.8301,-2.8301,-2.8301,-2.8301,-2.8301,-2.8174,-2.8067,-2.7745,-2.7422,-2.6971,-2.6645,-2.5881,-2.5441,-2.4982,-2.4761,-2.465,-2.4446,-2.4429,-2.3938,-2.3529,-2.2879,-2.1999,-2.1185,-2.0659,-2.0141,-2.004,-1.9938,-1.9809,-1.9693,-1.9577,-1.9591,-1.9591,-1.9591,-1.9488,-1.9488,-1.9372,-1.9372,-1.9372,-1.9475,-1.9475,-1.9359,-1.9372,-1.9488,-1.9488,-1.9475,-3.352,-3.37,-3.423,-3.4481,-3.4918,-3.6302,-3.6901,-3.6802,-3.6441,-3.6284,-3.6125,-3.6257,-3.6358,-3.6358,-3.6358,-3.6358,-3.6358,-3.6358,-3.6358,-3.6358,-3.6383,-3.6584,-3.6835,-3.7111,-3.744,-3.8066,-3.8542,-3.8818,-3.9295,-3.9371,-3.9187,-3.8792,-3.7868,-3.6881,-3.5904,-3.4803,-3.3797,-3.2685,-3.1767,-3.1228,-3.0995,-3.0898,-3.0898,-3.0898,-3.0898,-3.0898,-3.0898,-3.0898,-3.0879,-3.0644,-3.0176,-2.9609,-2.9316,-2.8867,-2.8359,-2.8301,-2.8301,-2.8301,-2.832,-2.832,-2.8301,-2.8301,-2.8301,-2.8301,-2.8301,-2.8301,-2.8301,-2.8301,-2.8301,-2.8301,-2.8301,-2.8301,-2.8194,-2.8194,-2.796,-2.7853,-2.753,-2.7206,-2.6663,-2.6209,-2.5313,-2.4761,-2.4094,-2.3536,-2.3087,-2.2974,-2.2733,-2.2749,-2.2862,-2.2523,-2.2184,-2.1388,-2.0702,-2.0256,-1.9809,-1.9591,-1.9475,-1.9488,-1.9372,-1.9372,-1.9372,-1.9475,-1.9475,-1.9372,-1.9372,-1.9372,-1.9372,-1.9359,-1.9475,-1.9475,-1.9359,-1.9372,-1.9372,-1.9372,-1.9372,-3.3162,-3.3707,-3.4204,-3.4428,-3.4703,-3.5057,-3.5152,-3.502,-3.5609,-3.5729,-3.5604,-3.6107,-3.6282,-3.6358,-3.6358,-3.6358,-3.6358,-3.6358,-3.6358,-3.6358,-3.6358,-3.6433,-3.6584,-3.686,-3.7039,-3.7067,-3.7442,-3.8241,-3.8592,-3.8766,-3.8733,-3.8194,-3.7227,-3.6013,-3.4914,-3.4022,-3.3119,-3.2227,-3.1556,-3.1112,-3.0898,-3.0898,-3.0898,-3.0898,-3.0898,-3.0898,-3.0898,-3.0898,-3.084,-3.0547,-3.0059,-2.9707,-2.9277,-2.873,-2.8457,-2.8301,-2.8301,-2.8301,-2.8301,-2.8301,-2.8301,-2.8301,-2.8301,-2.8301,-2.8301,-2.8301,-2.8301,-2.8301,-2.8301,-2.8301,-2.8301,-2.8067,-2.796,-2.7745,-2.753,-2.7206,-2.6881,-2.6336,-2.5771,-2.5,-2.3983,-2.3199,-2.2523,-2.1957,-2.1957,-2.1502,-2.1388,-2.1402,-2.1402,-2.1517,-2.1174,-2.0716,-2.0155,-1.9809,-1.9591,-1.9475,-1.9372,-1.9372,-1.9372,-1.9372,-1.9372,-1.9372,-1.9372,-1.9372,-1.9372,-1.9372,-1.9372,-1.9372,-1.9372,-1.9372,-1.9372,-1.9372,-1.9372,-1.9372,-1.9372,-3.1984,-3.2408,-3.3368,-3.396,-3.4175,-3.4462,-3.4737,-3.4857,-3.4805,-3.4906,-3.5462,-3.5705,-3.6006,-3.6358,-3.6358,-3.6358,-3.6358,-3.6358,-3.6358,-3.6358,-3.6358,-3.6358,-3.6433,-3.6584,-3.6689,-3.6939,-3.7362,-3.7688,-3.8141,-3.8266,-3.8069,-3.7666,-3.6642,-3.5223,-3.4134,-3.3119,-3.2342,-3.1767,-3.1208,-3.0995,-3.0898,-3.0898,-3.0898,-3.0898,-3.0898,-3.0898,-3.0898,-3.0898,-3.0781,-3.0332,-2.9883,-2.9492,-2.9043,-2.8594,-2.8301,-2.8301,-2.8301,-2.8301,-2.8301,-2.8301,-2.8301,-2.8301,-2.8301,-2.8301,-2.8301,-2.8301,-2.8301,-2.8301,-2.8174,-2.8174,-2.8067,-2.7853,-2.7638,-2.7314,-2.6989,-2.6318,-2.599,-2.5203,-2.4556,-2.3536,-2.2523,-2.1843,-2.1174,-2.106,-2.0945,-2.0486,-2.0155,-2.0155,-2.027,-2.0385,-2.0385,-2.004,-1.9809,-1.9591,-1.9475,-1.9372,-1.9372,-1.9372,-1.9372,-1.9372,-1.9372,-1.9372,-1.9372,-1.9372,-1.9372,-1.9372,-1.9372,-1.9372,-1.9372,-1.9372,-1.9372,-1.9372,-1.9372,-1.9372,-1.9372,-3.1453,-3.2085,-3.2984,-3.3647,-3.4099,-3.4383,-3.4523,-3.441,-3.4208,-3.4514,-3.5177,-3.5479,-3.5855,-3.6307,-3.6358,-3.6358,-3.6358,-3.6358,-3.6358,-3.6358,-3.6358,-3.6358,-3.6358,-3.6383,-3.6533,-3.6784,-3.6935,-3.7136,-3.7542,-3.7762,-3.7629,-3.6956,-3.5962,-3.4781,-3.3572,-3.2571,-3.1767,-3.1325,-3.0995,-3.0898,-3.0898,-3.0898,-3.0898,-3.0898,-3.0898,-3.0898,-3.0898,-3.0898,-3.0644,-3.0215,-2.9805,-2.9375,-2.8945,-2.8535,-2.8301,-2.8301,-2.8301,-2.8301,-2.8301,-2.8301,-2.8301,-2.8301,-2.8301,-2.8301,-2.8301,-2.8301,-2.8301,-2.8301,-2.8174,-2.8048,-2.7853,-2.7638,-2.7206,-2.6899,-2.6209,-2.5441,-2.4761,-2.4094,-2.3087,-2.207,-2.1288,-2.0716,-2.0385,-2.027,-2.0155,-1.9924,-1.9707,-1.9707,-1.9707,-1.9822,-1.9938,-1.9707,-1.9591,-1.9591,-1.9475,-1.9372,-1.9372,-1.9372,-1.9372,-1.9372,-1.9372,-1.9372,-1.9372,-1.9372,-1.9372,-1.9372,-1.9372,-1.9372,-1.9372,-1.9372,-1.9372,-1.9372,-1.9372,-1.9372,-1.9372,-3.1233,-3.2304,-3.2883,-3.3674,-3.4499,-3.4629,-3.4314,-3.3777,-3.3832,-3.4123,-3.4675,-3.5228,-3.5705,-3.6132,-3.6282,-3.6358,-3.6358,-3.6358,-3.6358,-3.6358,-3.6358,-3.6358,-3.6358,-3.6383,-3.6433,-3.6408,-3.6483,-3.681,-3.707,-3.7093,-3.6788,-3.6239,-3.5237,-3.4115,-3.2985,-3.2105,-3.1261,-3.0895,-3.0644,-3.0644,-3.084,-3.0898,-3.0898,-3.0898,-3.0898,-3.0898,-3.0898,-3.082,-3.0664,-3.0195,-2.9785,-2.9355,-2.8848,-2.8535,-2.834,-2.8301,-2.8301,-2.8301,-2.8301,-2.8301,-2.8301,-2.8301,-2.8301,-2.8301,-2.8301,-2.8301,-2.8301,-2.8174,-2.8048,-2.7833,-2.7618,-2.6989,-2.6445,-2.5771,-2.4982,-2.4317,-2.3648,-2.2862,-2.1843,-2.0945,-2.05,-1.9924,-1.9822,-1.9822,-1.9822,-1.9475,-1.9475,-1.9488,-1.9488,-1.9488,-1.9488,-1.9475,-1.9475,-1.9475,-1.9475,-1.9372,-1.9372,-1.9372,-1.9372,-1.9372,-1.9372,-1.9372,-1.9372,-1.9372,-1.9372,-1.9372,-1.9372,-1.9372,-1.9372,-1.9372,-1.9372,-1.9372,-1.9372,-1.9372,-1.9372,-3.0676,-3.1496,-3.3108,-3.4194,-3.4869,-3.4792,-3.4397,-3.3979,-3.3452,-3.3596,-3.4123,-3.4675,-3.5253,-3.578,-3.6232,-3.6358,-3.6358,-3.6358,-3.6358,-3.6358,-3.6358,-3.6358,-3.6358,-3.6358,-3.6358,-3.6358,-3.6458,-3.6513,-3.6601,-3.6378,-3.5924,-3.5488,-3.4338,-3.3236,-3.2385,-3.1445,-3.0829,-3.0351,-3.0176,-3.0351,-3.0703,-3.084,-3.0898,-3.0859,-3.084,-3.0781,-3.0801,-3.0801,-3.0371,-2.9844,-2.9668,-2.918,-2.8496,-2.8359,-2.8301,-2.8301,-2.8301,-2.8301,-2.8301,-2.8301,-2.8301,-2.8301,-2.8301,-2.8301,-2.8301,-2.8301,-2.8174,-2.8048,-2.7814,-2.7599,-2.7187,-2.6318,-2.5459,-2.4667,-2.3871,-2.3215,-2.2539,-2.1631,-2.0601,-2.0155,-1.9707,-1.9591,-1.9488,-1.9372,-1.9372,-1.9372,-1.9372,-1.9372,-1.9372,-1.9488,-1.9488,-1.9488,-1.9488,-1.9488,-1.9372,-1.9372,-1.9372,-1.9372,-1.9372,-1.9372,-1.9372,-1.9372,-1.9372,-1.9372,-1.9372,-1.9372,-1.9372,-1.9372,-1.9372,-1.9372,-1.9372,-1.9372,-1.9372,-1.9372,-1.9372,-3.052,-3.1356,-3.3127,-3.4109,-3.4386,-3.4523,-3.4314,-3.392,-3.3326,-3.3244,-3.3646,-3.4349,-3.5027,-3.5579,-3.6107,-3.6358,-3.6358,-3.6358,-3.6358,-3.6358,-3.6358,-3.6358,-3.6358,-3.6358,-3.6358,-3.6358,-3.6288,-3.6177,-3.6063,-3.5394,-3.4932,-3.42,-3.3074,-3.2259,-3.1523,-3.0737,-3.028,-2.9902,-2.9629,-2.9844,-3.0312,-3.0332,-3.0312,-3.0312,-3.0312,-3.0332,-3.0312,-3.0273,-2.9902,-2.9375,-2.9101,-2.8848,-2.8398,-2.832,-2.8301,-2.8301,-2.8301,-2.8301,-2.8301,-2.8301,-2.8301,-2.8301,-2.8301,-2.8301,-2.8174,-2.8174,-2.8067,-2.7833,-2.7365,-2.7041,-2.6191,-2.5331,-2.4317,-2.3536,-2.2523,-2.1616,-2.1174,-2.0615,-2.004,-1.9822,-1.9475,-1.9475,-1.9372,-1.9372,-1.9372,-1.9372,-1.9372,-1.9372,-1.9372,-1.9372,-1.9372,-1.9372,-1.9372,-1.9372,-1.9372,-1.9372,-1.9372,-1.9372,-1.9372,-1.9372,-1.9372,-1.9372,-1.9372,-1.9372,-1.9372,-1.9372,-1.9372,-1.9372,-1.9372,-1.9372,-1.9372,-1.9372,-1.9372,-1.9372,-1.9372,-3.0596,-3.1505,-3.3127,-3.3688,-3.367,-3.4173,-3.4147,-3.3725,-3.3326,-3.3093,-3.3269,-3.4274,-3.4977,-3.5479,-3.6081,-3.6257,-3.6358,-3.6358,-3.6358,-3.6358,-3.6358,-3.6358,-3.6358,-3.6358,-3.6358,-3.6263,-3.6193,-3.5716,-3.5308,-3.4516,-3.3742,-3.2663,-3.1913,-3.1168,-3.053,-3.0067,-2.9715,-2.9564,-2.9336,-2.9336,-2.9434,-2.9531,-2.9648,-2.9629,-2.957,-2.957,-2.959,-2.9531,-2.9336,-2.8984,-2.8652,-2.8457,-2.8359,-2.8301,-2.8301,-2.8301,-2.8301,-2.8301,-2.8301,-2.8301,-2.8301,-2.8301,-2.8301,-2.8174,-2.8174,-2.796,-2.7726,-2.7276,-2.6698,-2.6155,-2.5313,-2.4334,-2.3311,-2.241,-2.1388,-2.0486,-2.0155,-1.9822,-1.9591,-1.9372,-1.9372,-1.9372,-1.9372,-1.9372,-1.9372,-1.9372,-1.9372,-1.9372,-1.9372,-1.9372,-1.9372,-1.9372,-1.9372,-1.9372,-1.9372,-1.9372,-1.9372,-1.9372,-1.9372,-1.9372,-1.9372,-1.9372,-1.9372,-1.9372,-1.9372,-1.9372,-1.9372,-1.9372,-1.9372,-1.9386,-1.9372,-1.9372,-1.9372,-1.9372,-1.9372,-3.0823,-3.1649,-3.2871,-3.3378,-3.3435,-3.3927,-3.3979,-3.3641,-3.3326,-3.3093,-3.3395,-3.4173,-3.4826,-3.4951,-3.5956,-3.6358,-3.6358,-3.6358,-3.6358,-3.6358,-3.6358,-3.6358,-3.6358,-3.6358,-3.6358,-3.6288,-3.6003,-3.5524,-3.4628,-3.3837,-3.296,-3.1949,-3.0935,-3.0364,-3.0118,-2.9538,-2.9153,-2.9004,-2.8809,-2.8691,-2.8848,-2.9082,-2.9531,-2.957,-2.957,-2.957,-2.957,-2.957,-2.9316,-2.8945,-2.8535,-2.8359,-2.8301,-2.8301,-2.8301,-2.8301,-2.8301,-2.8301,-2.8301,-2.8301,-2.8301,-2.8174,-2.8174,-2.796,-2.7745,-2.7314,-2.6971,-2.6318,-2.5735,-2.5278,-2.4522,-2.3424,-2.2523,-2.1616,-2.0716,-2.0155,-1.9707,-1.9591,-1.9475,-1.9372,-1.9372,-1.9372,-1.9372,-1.9372,-1.9372,-1.9372,-1.9372,-1.9372,-1.9372,-1.9372,-1.9372,-1.9372,-1.9372,-1.9372,-1.9372,-1.9372,-1.9372,-1.9372,-1.9372,-1.9372,-1.9372,-1.9372,-1.9372,-1.9372,-1.9372,-1.9372,-1.9372,-1.9399,-1.9426,-1.9439,-1.9386,-1.9372,-1.9372,-1.9372,-1.9372]},{"header":{"parameterUnit":"m.s-1","parameterCategory":1,"la1":31.0,"la2":29.5877,"lo1":-88.7671,"lo2":-86.6584,"dy":0.0162,"dx":0.0185,"nx":115,"ny":88,"refTime":"2023-06-12T12:00:00:Z","depth":0,"parameterNumber":3,"parameterNumberName":"V-component_of_WINDS"},"data":[0.0,0.0,0.0,0.0,0.0,0.0,0.0,0.0,0.0,0.0,0.0,0.0,0.0,0.0,0.0,0.0,0.0,0.0,0.0,0.0,0.0,0.0,0.0,0.0,0.0,0.0,0.0,0.0,0.0,0.0,0.0,0.0,0.0,0.0,0.0,0.0,0.0,0.0,0.0,0.0,0.0,0.0,0.0,0.0,0.0,0.0,0.0,0.0,0.0,0.0,0.0,0.0,0.0,0.0,0.0,0.0,0.0,0.0,0.0,0.0,0.0,0.0,0.0,0.0,0.0,0.0,0.0,0.0,0.0,0.0,0.0,0.0,0.0,0.0,0.0,0.0,0.0,0.0,0.0,0.0,0.0,0.0,0.0,0.0,0.0,0.0,0.0,0.0,0.0,0.0,0.0,0.0,0.0,0.0,0.0,0.0,0.0,0.0,0.0,0.0,0.0,0.0,0.0,0.0,0.0,0.0,0.0,0.0,0.0,0.0,0.0,0.0,0.0,0.0,0.0,0.0,0.0,0.0,0.0,0.0,0.0,0.0,0.0,0.0,0.0,0.0,0.0,0.0,0.0,0.0,0.0,0.0,0.0,0.0,0.0,0.0,0.0,0.0,0.0,0.0,0.0,0.0,0.0,0.0,0.0,0.0,0.0,0.0,0.0,0.0,0.0,0.0,0.0,0.0,0.0,0.0,0.0,0.0,0.0,0.0,0.0,0.0,0.0,0.0,0.0,0.0,0.0,0.0,0.0,0.0,0.0,0.0,0.0,0.0,0.0,0.0,0.0,0.0,0.0,0.0,0.0,0.0,0.0,0.0,0.0,0.0,0.0,0.0,0.0,0.0,0.0,0.0,0.0,0.0,0.0,0.0,0.0,0.0,0.0,0.0,0.0,0.0,0.0,0.0,0.0,0.0,0.0,0.0,0.0,0.0,0.0,0.0,0.0,0.0,0.0,0.0,0.0,0.0,0.0,0.0,0.0,0.0,0.0,0.0,0.0,0.0,0.0,0.0,0.0,0.0,0.0,0.0,0.0,0.0,0.0,0.0,0.0,0.0,0.0,0.0,0.0,0.0,0.0,0.0,0.0,0.0,0.0,0.0,0.0,0.0,0.0,0.0,0.0,0.0,0.0,0.0,0.0,0.0,0.0,0.0,0.0,0.0,0.0,0.0,0.0,0.0,0.0,0.0,0.0,0.0,0.0,0.0,0.0,0.0,0.0,0.0,0.0,0.0,0.0,0.0,0.0,0.0,0.0,0.0,0.0,0.0,0.0,0.0,0.0,0.0,0.0,0.0,0.0,0.0,0.0,0.0,0.0,0.0,0.0,0.0,0.0,0.0,0.0,0.0,0.0,0.0,0.0,0.0,0.0,0.0,0.0,0.0,0.0,0.0,0.0,0.0,0.0,0.0,0.0,0.0,0.0,0.0,0.0,0.0,0.0,0.0,0.0,0.0,0.0,0.0,0.0,0.0,0.0,0.0,0.0,0.0,0.0,0.0,0.0,0.0,0.0,0.0,0.0,0.0,0.0,0.0,0.0,0.0,0.0,0.0,0.0,0.0,0.0,0.0,0.0,0.0,0.0,0.0,0.0,0.0,0.0,0.0,0.0,0.0,0.0,0.0,0.0,0.0,0.0,0.0,0.0,0.0,0.0,0.0,0.0,0.0,0.0,0.0,0.0,0.0,0.0,0.0,0.0,0.0,0.0,0.0,0.0,0.0,0.0,0.0,0.0,0.0,0.0,0.0,0.0,0.0,0.0,0.0,0.0,0.0,0.0,0.0,0.0,0.0,0.0,0.0,0.0,0.0,0.0,0.0,0.0,0.0,0.0,0.0,0.0,0.0,0.0,0.0,0.0,0.0,0.0,0.0,0.0,0.0,0.0,0.0,0.0,0.0,0.0,0.0,0.0,0.0,0.0,0.0,0.0,0.0,0.0,0.0,0.0,0.0,0.0,0.0,0.0,0.0,0.0,0.0,0.0,0.0,0.0,0.0,0.0,0.0,0.0,0.0,0.0,0.0,0.0,0.0,0.0,0.0,0.0,0.0,0.0,0.0,0.0,0.0,0.0,0.0,0.0,0.0,0.0,0.0,0.0,0.0,0.0,0.0,0.0,0.0,0.0,0.0,0.0,0.0,0.0,0.0,0.0,0.0,0.0,0.0,0.0,0.0,0.0,0.0,0.0,0.0,0.0,0.0,0.0,0.0,0.0,0.0,0.0,0.0,0.0,0.0,0.0,0.0,0.0,0.0,0.0,0.0,0.0,0.0,0.0,0.0,0.0,0.0,0.0,0.0,0.0,0.0,0.0,0.0,0.0,0.0,0.0,0.0,0.0,0.0,0.0,0.0,0.0,0.0,0.0,0.0,0.0,0.0,0.0,0.0,0.0,0.0,0.0,0.0,0.0,0.0,0.0,0.0,0.0,0.0,0.0,0.0,0.0,0.0,0.0,0.0,0.0,0.0,0.0,0.0,0.0,0.0,0.0,0.0,0.0,0.0,0.0,0.0,0.0,0.0,0.0,0.0,0.0,0.0,0.0,0.0,0.0,0.0,0.0,0.0,0.0,0.0,0.0,0.0,0.0,0.0,0.0,0.0,0.0,0.0,0.0,0.0,0.0,0.0,0.0,0.0,0.0,0.0,0.0,0.0,0.0,0.0,0.0,0.0,0.0,0.0,0.0,0.0,0.0,0.0,0.0,0.0,0.0,0.0,0.0,0.0,0.0,0.0,0.0,0.0,0.0,0.0,0.0,0.0,0.0,0.0,0.0,0.0,0.0,0.0,0.0,0.0,0.0,0.0,0.0,0.0,0.0,0.0,0.0,0.0,0.0,0.0,0.0,0.0,0.0,0.0,0.0,0.0,0.0,0.0,0.0,0.0,0.0,0.0,0.0,0.0,0.0,0.0,0.0,0.0,0.0,0.0,0.0,0.0,0.0,0.0,0.0,0.0,0.0,0.0,0.0,0.0,0.0,0.0,0.0,0.0,0.0,0.0,0.0,0.0,0.0,0.0,0.0,0.0,0.0,0.0,0.0,0.0,0.0,0.0,0.0,0.0,0.0,0.0,0.0,0.0,0.0,0.0,0.0,0.0,0.0,0.0,0.0,0.0,0.0,0.0,0.0,0.0,0.0,0.0,0.0,0.0,0.0,0.0,0.0,0.0,0.0,0.0,0.0,0.0,0.0,0.0,0.0,0.0,0.0,0.0,0.0,0.0,0.0,0.0,0.0,0.0,0.0,0.0,0.0,0.0,0.0,0.0,0.0,0.0,0.0,0.0,0.0,0.0,0.0,0.0,0.0,0.0,0.0,0.0,0.0,0.0,0.0,0.0,0.0,0.0,0.0,0.0,0.0,0.0,0.0,0.0,0.0,0.0,0.0,0.0,0.0,0.0,0.0,0.0,0.0,0.0,0.0,0.0,0.0,0.0,0.0,0.0,0.0,0.0,0.0,0.0,0.0,0.0,0.0,0.0,0.0,0.0,0.0,0.0,0.0,0.0,0.0,0.0,0.0,0.0,0.0,0.0,0.0,0.0,0.0,0.0,0.0,0.0,0.0,0.0,0.0,0.0,0.0,0.0,0.0,0.0,0.0,0.0,0.0,0.0,0.0,0.0,0.0,0.0,0.0,0.0,0.0,0.0,0.0,0.0,0.0,0.0,0.0,0.0,0.0,0.0,0.0,0.0,0.0,0.0,0.0,0.0,0.0,0.0,0.0,0.0,0.0,0.0,0.0,0.0,0.0,0.0,0.0,0.0,0.0,0.0,0.0,0.0,0.0,0.0,0.0,0.0,0.0,0.0,0.0,0.0,0.0,0.0,0.0,0.0,0.0,0.0,0.0,0.0,0.0,0.0,0.0,0.0,0.0,0.0,0.0,0.0,0.0,0.0,0.0,0.0,0.0,0.0,0.0,0.0,0.0,0.0,0.0,0.0,0.0,0.0,0.0,0.0,0.0,0.0,0.0,0.0,0.0,0.0,0.0,0.0,0.0,0.0,0.0,0.0,0.0,0.0,0.0,0.0,0.0,0.0,0.0,0.0,0.0,0.0,0.0,0.0,0.0,0.0,0.0,0.0,0.0,0.0,0.0,0.0,0.0,0.0,0.0,0.0,0.0,0.0,0.0,0.0,0.0,0.0,0.0,0.0,0.0,0.0,0.0,0.0,0.0,0.0,0.0,0.0,0.0,0.0,0.0,0.0,0.0,0.0,0.0,0.0,0.0,0.0,0.0,0.0,0.0,0.0,0.0,0.0,0.0,0.0,0.0,0.0,0.0,0.0,-4.4934,0.0,0.0,0.0,0.0,0.0,0.0,0.0,0.0,0.0,0.0,0.0,0.0,0.0,0.0,0.0,0.0,0.0,0.0,0.0,0.0,0.0,0.0,0.0,0.0,0.0,0.0,0.0,0.0,0.0,0.0,0.0,0.0,0.0,0.0,0.0,0.0,0.0,0.0,0.0,0.0,0.0,0.0,0.0,0.0,0.0,0.0,0.0,0.0,0.0,0.0,0.0,0.0,0.0,0.0,0.0,0.0,0.0,0.0,0.0,0.0,0.0,0.0,0.0,0.0,0.0,0.0,0.0,0.0,0.0,0.0,0.0,0.0,0.0,0.0,0.0,0.0,0.0,0.0,0.0,0.0,0.0,0.0,0.0,0.0,0.0,0.0,0.0,0.0,0.0,0.0,0.0,0.0,0.0,0.0,0.0,0.0,0.0,0.0,0.0,0.0,0.0,0.0,0.0,0.0,0.0,0.0,0.0,0.0,0.0,0.0,-4.7108,-4.6206,-4.6271,-4.5694,-4.4353,0.0,0.0,0.0,0.0,0.0,0.0,0.0,0.0,0.0,0.0,0.0,0.0,0.0,0.0,0.0,0.0,0.0,0.0,0.0,0.0,0.0,0.0,0.0,0.0,0.0,0.0,0.0,0.0,0.0,0.0,0.0,0.0,0.0,0.0,0.0,0.0,0.0,0.0,0.0,0.0,0.0,0.0,0.0,0.0,0.0,0.0,0.0,0.0,0.0,0.0,0.0,0.0,0.0,0.0,0.0,0.0,0.0,0.0,0.0,0.0,0.0,0.0,0.0,0.0,0.0,0.0,0.0,0.0,0.0,0.0,0.0,0.0,0.0,0.0,0.0,0.0,0.0,0.0,0.0,0.0,0.0,0.0,0.0,0.0,0.0,0.0,0.0,0.0,0.0,0.0,0.0,0.0,0.0,0.0,0.0,0.0,0.0,0.0,0.0,0.0,0.0,0.0,0.0,0.0,0.0,0.0,0.0,0.0,0.0,0.0,0.0,0.0,-4.6239,-4.504,-4.2941,0.0,0.0,0.0,0.0,0.0,0.0,0.0,0.0,0.0,0.0,0.0,0.0,0.0,0.0,0.0,0.0,0.0,0.0,0.0,0.0,0.0,0.0,0.0,0.0,0.0,0.0,0.0,0.0,0.0,0.0,0.0,0.0,0.0,0.0,0.0,0.0,0.0,0.0,0.0,0.0,0.0,0.0,0.0,0.0,0.0,0.0,0.0,0.0,0.0,0.0,0.0,0.0,0.0,0.0,0.0,0.0,0.0,0.0,0.0,0.0,0.0,0.0,0.0,0.0,0.0,0.0,0.0,0.0,0.0,0.0,0.0,0.0,0.0,0.0,0.0,0.0,0.0,0.0,0.0,0.0,0.0,0.0,0.0,0.0,0.0,0.0,0.0,0.0,0.0,0.0,0.0,0.0,0.0,0.0,0.0,0.0,0.0,0.0,0.0,0.0,0.0,0.0,0.0,0.0,0.0,0.0,0.0,0.0,0.0,0.0,-4.7213,-4.6076,-4.6148,0.0,-4.0193,0.0,0.0,0.0,0.0,0.0,0.0,0.0,0.0,0.0,0.0,0.0,0.0,0.0,0.0,0.0,0.0,0.0,0.0,0.0,0.0,0.0,0.0,0.0,0.0,0.0,0.0,0.0,0.0,0.0,0.0,0.0,0.0,0.0,0.0,0.0,0.0,0.0,0.0,0.0,0.0,0.0,0.0,0.0,0.0,0.0,0.0,0.0,0.0,0.0,0.0,0.0,0.0,0.0,0.0,0.0,0.0,0.0,0.0,0.0,0.0,0.0,0.0,0.0,0.0,0.0,0.0,0.0,0.0,0.0,0.0,0.0,0.0,0.0,0.0,0.0,0.0,0.0,0.0,0.0,0.0,0.0,0.0,0.0,0.0,0.0,0.0,0.0,0.0,0.0,0.0,0.0,0.0,0.0,0.0,0.0,0.0,0.0,0.0,0.0,0.0,0.0,0.0,0.0,0.0,0.0,0.0,0.0,0.0,0.0,0.0,-4.7569,-4.678,-4.4191,-4.144,0.0,0.0,0.0,0.0,0.0,0.0,0.0,0.0,0.0,0.0,0.0,0.0,0.0,0.0,0.0,0.0,0.0,0.0,0.0,0.0,0.0,0.0,0.0,0.0,0.0,0.0,0.0,0.0,0.0,0.0,0.0,0.0,0.0,0.0,0.0,0.0,0.0,0.0,0.0,0.0,0.0,0.0,0.0,0.0,0.0,0.0,0.0,0.0,0.0,0.0,0.0,0.0,0.0,0.0,0.0,0.0,0.0,0.0,0.0,0.0,0.0,0.0,0.0,0.0,0.0,0.0,0.0,0.0,0.0,0.0,0.0,0.0,0.0,0.0,0.0,0.0,0.0,0.0,0.0,0.0,0.0,0.0,0.0,0.0,0.0,0.0,0.0,0.0,0.0,0.0,0.0,0.0,0.0,0.0,0.0,0.0,0.0,0.0,0.0,0.0,0.0,0.0,0.0,0.0,0.0,0.0,0.0,0.0,0.0,0.0,-4.7567,-4.7117,-4.5715,-4.1862,-3.8771,-3.6715,0.0,0.0,0.0,0.0,0.0,0.0,0.0,0.0,0.0,0.0,0.0,0.0,0.0,0.0,0.0,0.0,0.0,0.0,0.0,0.0,0.0,0.0,0.0,0.0,0.0,0.0,0.0,0.0,0.0,0.0,0.0,0.0,0.0,0.0,0.0,0.0,0.0,0.0,0.0,0.0,0.0,0.0,0.0,0.0,0.0,0.0,0.0,0.0,0.0,0.0,0.0,0.0,0.0,0.0,0.0,0.0,0.0,0.0,0.0,0.0,0.0,0.0,0.0,0.0,0.0,0.0,0.0,0.0,0.0,0.0,0.0,0.0,0.0,0.0,0.0,0.0,0.0,0.0,0.0,0.0,0.0,0.0,0.0,0.0,0.0,0.0,0.0,0.0,0.0,0.0,0.0,0.0,0.0,0.0,0.0,0.0,0.0,0.0,0.0,0.0,0.0,0.0,0.0,0.0,0.0,0.0,0.0,0.0,-4.6832,-4.6755,-4.528,-4.2219,-3.9518,-3.6778,0.0,0.0,0.0,0.0,0.0,0.0,0.0,0.0,0.0,0.0,0.0,0.0,0.0,0.0,0.0,0.0,0.0,0.0,0.0,0.0,0.0,0.0,0.0,0.0,0.0,0.0,0.0,0.0,0.0,0.0,0.0,0.0,0.0,0.0,0.0,0.0,0.0,0.0,0.0,0.0,0.0,0.0,0.0,0.0,0.0,0.0,0.0,0.0,0.0,0.0,0.0,0.0,0.0,0.0,0.0,0.0,0.0,0.0,0.0,0.0,0.0,0.0,0.0,0.0,0.0,0.0,0.0,0.0,0.0,0.0,0.0,0.0,0.0,0.0,0.0,0.0,0.0,0.0,0.0,0.0,0.0,0.0,0.0,0.0,0.0,0.0,0.0,0.0,0.0,0.0,0.0,0.0,0.0,0.0,0.0,0.0,0.0,0.0,0.0,0.0,0.0,0.0,0.0,0.0,0.0,0.0,0.0,0.0,0.0,-4.6471,-4.5067,-4.2833,-3.9818,-3.7173,-3.4797,0.0,0.0,0.0,0.0,0.0,0.0,0.0,0.0,0.0,0.0,0.0,0.0,0.0,0.0,0.0,0.0,0.0,0.0,0.0,0.0,0.0,0.0,0.0,0.0,0.0,0.0,0.0,0.0,0.0,0.0,0.0,0.0,0.0,0.0,0.0,0.0,0.0,0.0,0.0,0.0,0.0,0.0,0.0,0.0,0.0,0.0,0.0,0.0,0.0,0.0,0.0,0.0,0.0,0.0,0.0,0.0,0.0,0.0,0.0,0.0,0.0,0.0,0.0,0.0,0.0,0.0,0.0,0.0,0.0,0.0,0.0,0.0,0.0,0.0,0.0,0.0,0.0,0.0,0.0,0.0,0.0,0.0,0.0,0.0,0.0,0.0,0.0,0.0,0.0,0.0,0.0,0.0,0.0,0.0,0.0,0.0,0.0,0.0,0.0,0.0,0.0,0.0,0.0,0.0,0.0,0.0,0.0,0.0,0.0,-4.5304,0.0,-4.0732,-3.7771,-3.5339,-3.3143,0.0,0.0,0.0,0.0,0.0,0.0,0.0,0.0,0.0,0.0,0.0,0.0,0.0,0.0,0.0,0.0,0.0,0.0,0.0,0.0,0.0,0.0,0.0,0.0,0.0,0.0,0.0,0.0,0.0,0.0,0.0,0.0,0.0,0.0,0.0,0.0,0.0,0.0,0.0,0.0,0.0,0.0,0.0,0.0,0.0,0.0,0.0,0.0,0.0,0.0,0.0,0.0,0.0,0.0,0.0,0.0,0.0,0.0,0.0,0.0,0.0,0.0,0.0,0.0,0.0,0.0,0.0,0.0,0.0,0.0,0.0,0.0,0.0,0.0,0.0,0.0,0.0,0.0,0.0,0.0,0.0,0.0,0.0,0.0,0.0,0.0,0.0,0.0,0.0,0.0,0.0,0.0,0.0,0.0,0.0,0.0,0.0,0.0,0.0,0.0,0.0,0.0,0.0,0.0,0.0,0.0,0.0,0.0,-4.5905,-4.3256,-4.1355,-3.9003,-3.6097,-3.4027,-3.2052,0.0,0.0,0.0,0.0,0.0,0.0,0.0,0.0,0.0,0.0,0.0,0.0,0.0,0.0,0.0,0.0,0.0,0.0,0.0,0.0,0.0,0.0,0.0,0.0,0.0,0.0,0.0,0.0,0.0,0.0,0.0,0.0,0.0,0.0,0.0,0.0,0.0,0.0,0.0,0.0,0.0,0.0,0.0,0.0,0.0,0.0,0.0,0.0,0.0,0.0,0.0,0.0,0.0,0.0,0.0,0.0,0.0,0.0,0.0,0.0,0.0,0.0,0.0,0.0,0.0,0.0,0.0,0.0,0.0,0.0,0.0,0.0,0.0,0.0,0.0,0.0,0.0,0.0,0.0,0.0,0.0,0.0,0.0,0.0,0.0,0.0,0.0,0.0,0.0,0.0,0.0,0.0,0.0,0.0,0.0,0.0,0.0,0.0,0.0,0.0,0.0,0.0,0.0,0.0,0.0,0.0,0.0,0.0,0.0,-4.161,-3.9579,-3.727,-3.5015,-3.3032,-3.1317,0.0,0.0,0.0,0.0,0.0,0.0,0.0,0.0,0.0,0.0,0.0,0.0,0.0,0.0,0.0,0.0,0.0,0.0,0.0,0.0,0.0,0.0,0.0,0.0,0.0,0.0,0.0,0.0,0.0,0.0,0.0,0.0,0.0,0.0,0.0,0.0,0.0,0.0,0.0,0.0,0.0,0.0,0.0,0.0,0.0,0.0,0.0,0.0,0.0,0.0,0.0,0.0,0.0,0.0,0.0,0.0,0.0,0.0,0.0,0.0,0.0,0.0,0.0,0.0,0.0,0.0,0.0,0.0,0.0,0.0,0.0,0.0,0.0,0.0,0.0,0.0,0.0,0.0,0.0,0.0,0.0,0.0,0.0,0.0,0.0,0.0,0.0,0.0,0.0,0.0,0.0,0.0,0.0,0.0,0.0,0.0,0.0,0.0,0.0,0.0,0.0,0.0,0.0,0.0,0.0,0.0,0.0,0.0,0.0,-4.0341,-3.8718,-3.6882,-3.5124,-3.3497,-3.1889,-3.0501,0.0,0.0,0.0,0.0,0.0,0.0,0.0,0.0,0.0,0.0,0.0,0.0,0.0,0.0,0.0,0.0,0.0,0.0,0.0,0.0,0.0,0.0,0.0,0.0,0.0,0.0,0.0,0.0,0.0,0.0,0.0,0.0,0.0,0.0,0.0,0.0,0.0,0.0,0.0,0.0,0.0,0.0,0.0,0.0,0.0,0.0,0.0,0.0,0.0,0.0,0.0,0.0,0.0,0.0,0.0,0.0,0.0,0.0,0.0,0.0,0.0,0.0,0.0,0.0,0.0,0.0,0.0,0.0,0.0,0.0,0.0,0.0,0.0,0.0,0.0,0.0,0.0,0.0,0.0,0.0,0.0,0.0,0.0,0.0,0.0,0.0,0.0,0.0,0.0,0.0,0.0,0.0,0.0,0.0,0.0,0.0,0.0,0.0,0.0,0.0,0.0,0.0,0.0,0.0,0.0,0.0,0.0,0.0,-3.9706,-3.8809,-3.7768,-3.6458,-3.509,-3.3575,0.0,0.0,0.0,0.0,0.0,0.0,0.0,0.0,0.0,0.0,0.0,0.0,0.0,0.0,0.0,0.0,0.0,0.0,0.0,0.0,0.0,0.0,0.0,0.0,0.0,0.0,0.0,0.0,0.0,0.0,0.0,0.0,0.0,0.0,0.0,0.0,0.0,0.0,0.0,0.0,0.0,0.0,0.0,0.0,0.0,0.0,0.0,0.0,0.0,0.0,0.0,0.0,0.0,0.0,0.0,0.0,0.0,0.0,0.0,0.0,0.0,0.0,0.0,0.0,0.0,0.0,0.0,0.0,0.0,0.0,0.0,0.0,0.0,0.0,0.0,0.0,0.0,0.0,0.0,0.0,0.0,0.0,0.0,0.0,0.0,0.0,0.0,0.0,0.0,0.0,0.0,0.0,0.0,0.0,0.0,0.0,0.0,0.0,0.0,0.0,0.0,0.0,0.0,0.0,0.0,0.0,0.0,0.0,0.0,-4.0485,-4.0667,-3.9979,-3.8591,-3.7017,-3.5429,0.0,0.0,0.0,0.0,0.0,0.0,0.0,0.0,0.0,0.0,0.0,0.0,0.0,0.0,0.0,0.0,0.0,0.0,0.0,0.0,0.0,0.0,0.0,0.0,0.0,0.0,0.0,0.0,0.0,0.0,0.0,0.0,0.0,0.0,0.0,0.0,0.0,0.0,0.0,0.0,0.0,0.0,0.0,0.0,0.0,0.0,0.0,0.0,0.0,0.0,0.0,0.0,0.0,0.0,0.0,0.0,0.0,0.0,0.0,0.0,0.0,0.0,0.0,0.0,0.0,0.0,0.0,0.0,0.0,0.0,0.0,0.0,0.0,0.0,0.0,0.0,0.0,0.0,0.0,0.0,0.0,0.0,0.0,0.0,0.0,0.0,0.0,0.0,0.0,0.0,0.0,0.0,0.0,0.0,0.0,0.0,0.0,0.0,0.0,0.0,0.0,0.0,0.0,0.0,0.0,0.0,0.0,0.0,-4.0208,-4.079,-4.1686,-4.1849,-4.1189,-3.9143,-3.7388,0.0,0.0,0.0,0.0,0.0,0.0,0.0,0.0,0.0,0.0,0.0,0.0,0.0,0.0,0.0,0.0,0.0,0.0,0.0,0.0,0.0,0.0,0.0,0.0,0.0,0.0,0.0,0.0,0.0,0.0,0.0,0.0,0.0,0.0,0.0,0.0,0.0,0.0,0.0,0.0,0.0,0.0,0.0,0.0,0.0,0.0,0.0,0.0,0.0,0.0,0.0,0.0,0.0,0.0,0.0,0.0,0.0,0.0,0.0,0.0,0.0,0.0,0.0,0.0,0.0,0.0,0.0,0.0,0.0,0.0,0.0,0.0,0.0,0.0,0.0,0.0,0.0,0.0,0.0,0.0,0.0,0.0,0.0,0.0,0.0,0.0,0.0,0.0,0.0,0.0,0.0,0.0,0.0,0.0,0.0,0.0,0.0,0.0,0.0,0.0,0.0,0.0,0.0,0.0,0.0,0.0,0.0,0.0,-4.0562,-4.1116,-4.2367,-4.3321,-4.3778,-4.1395,-3.9346,0.0,0.0,0.0,0.0,0.0,0.0,0.0,0.0,0.0,0.0,0.0,0.0,0.0,0.0,0.0,0.0,0.0,0.0,0.0,0.0,0.0,0.0,0.0,0.0,0.0,0.0,0.0,0.0,0.0,0.0,0.0,0.0,0.0,0.0,0.0,0.0,0.0,0.0,0.0,0.0,0.0,0.0,0.0,0.0,0.0,0.0,0.0,0.0,0.0,0.0,0.0,0.0,0.0,0.0,0.0,0.0,0.0,0.0,0.0,0.0,0.0,0.0,0.0,0.0,0.0,0.0,0.0,0.0,0.0,0.0,0.0,0.0,0.0,0.0,0.0,0.0,0.0,0.0,0.0,0.0,0.0,0.0,0.0,0.0,0.0,0.0,0.0,0.0,0.0,0.0,0.0,0.0,0.0,0.0,0.0,0.0,0.0,0.0,0.0,0.0,0.0,0.0,0.0,0.0,0.0,0.0,0.0,0.0,-4.1351,-4.2285,-4.3519,-4.4229,-4.413,-4.2911,-4.1656,0.0,0.0,0.0,0.0,0.0,0.0,0.0,0.0,0.0,0.0,0.0,0.0,0.0,0.0,0.0,0.0,0.0,0.0,0.0,0.0,0.0,0.0,0.0,0.0,0.0,0.0,0.0,0.0,0.0,0.0,0.0,0.0,0.0,0.0,0.0,0.0,0.0,0.0,0.0,0.0,0.0,0.0,0.0,0.0,0.0,0.0,0.0,0.0,-4.7774,0.0,0.0,0.0,0.0,0.0,0.0,0.0,0.0,0.0,0.0,0.0,0.0,0.0,0.0,0.0,0.0,0.0,0.0,0.0,0.0,0.0,0.0,0.0,0.0,0.0,0.0,0.0,0.0,0.0,0.0,0.0,0.0,0.0,0.0,0.0,0.0,0.0,0.0,0.0,0.0,0.0,0.0,0.0,0.0,0.0,0.0,0.0,0.0,0.0,0.0,0.0,0.0,0.0,0.0,0.0,0.0,0.0,0.0,0.0,-4.2004,-4.2571,-4.3753,-4.4526,-4.4687,-4.4004,-4.2916,0.0,0.0,0.0,0.0,0.0,0.0,0.0,0.0,0.0,0.0,0.0,0.0,0.0,0.0,0.0,0.0,0.0,0.0,0.0,0.0,0.0,0.0,0.0,0.0,0.0,0.0,0.0,0.0,0.0,0.0,0.0,0.0,0.0,0.0,0.0,0.0,0.0,0.0,0.0,0.0,0.0,0.0,0.0,0.0,0.0,0.0,0.0,0.0,0.0,0.0,0.0,0.0,0.0,0.0,0.0,0.0,0.0,0.0,0.0,0.0,0.0,0.0,0.0,0.0,0.0,0.0,0.0,0.0,0.0,0.0,0.0,0.0,0.0,0.0,0.0,0.0,0.0,0.0,0.0,0.0,0.0,0.0,0.0,0.0,0.0,0.0,0.0,0.0,0.0,0.0,0.0,0.0,0.0,0.0,0.0,0.0,0.0,0.0,0.0,0.0,0.0,0.0,0.0,0.0,0.0,0.0,0.0,-4.184,-4.2636,-4.2861,-4.3641,-4.4453,-4.5119,-4.4662,-4.367,-4.2251,0.0,0.0,0.0,0.0,0.0,0.0,0.0,0.0,0.0,0.0,0.0,0.0,0.0,0.0,0.0,0.0,0.0,0.0,0.0,0.0,0.0,0.0,0.0,0.0,0.0,0.0,0.0,0.0,0.0,0.0,0.0,0.0,0.0,0.0,0.0,0.0,0.0,0.0,-5.2998,-5.4394,0.0,0.0,0.0,0.0,0.0,0.0,0.0,0.0,-4.8157,0.0,0.0,0.0,0.0,0.0,0.0,0.0,0.0,0.0,0.0,0.0,0.0,0.0,0.0,0.0,0.0,0.0,0.0,0.0,0.0,0.0,0.0,0.0,0.0,0.0,0.0,0.0,0.0,0.0,0.0,0.0,0.0,0.0,0.0,0.0,0.0,0.0,0.0,0.0,0.0,0.0,0.0,0.0,0.0,0.0,0.0,0.0,0.0,0.0,0.0,0.0,0.0,0.0,0.0,0.0,0.0,-4.1033,-4.2005,-4.2931,-4.3937,-4.405,-4.4643,-4.5639,-4.4775,-4.4249,-4.4059,0.0,0.0,0.0,0.0,0.0,0.0,0.0,0.0,0.0,0.0,0.0,0.0,0.0,0.0,0.0,0.0,0.0,0.0,0.0,0.0,0.0,0.0,0.0,0.0,0.0,0.0,0.0,0.0,0.0,0.0,0.0,0.0,0.0,0.0,0.0,0.0,0.0,0.0,0.0,-5.5015,-5.53,0.0,0.0,0.0,0.0,0.0,0.0,0.0,0.0,-4.9304,0.0,0.0,0.0,0.0,0.0,0.0,0.0,0.0,0.0,0.0,0.0,0.0,0.0,0.0,0.0,0.0,0.0,0.0,0.0,0.0,0.0,0.0,0.0,0.0,0.0,0.0,0.0,0.0,0.0,0.0,0.0,0.0,0.0,0.0,0.0,0.0,0.0,0.0,0.0,0.0,0.0,0.0,0.0,0.0,0.0,0.0,0.0,0.0,0.0,0.0,0.0,0.0,0.0,0.0,0.0,-4.1198,-4.2573,-4.3686,-4.4434,-4.4757,-4.5502,-4.6567,-4.5898,-4.5433,0.0,0.0,0.0,0.0,0.0,0.0,0.0,0.0,0.0,0.0,0.0,0.0,0.0,0.0,0.0,0.0,0.0,0.0,0.0,0.0,0.0,0.0,0.0,0.0,0.0,0.0,0.0,0.0,0.0,0.0,0.0,0.0,0.0,0.0,0.0,0.0,0.0,0.0,0.0,0.0,-5.5042,-5.5434,-5.4924,0.0,0.0,0.0,0.0,0.0,0.0,-5.138,-5.119,0.0,0.0,0.0,0.0,0.0,0.0,0.0,0.0,0.0,0.0,0.0,0.0,0.0,0.0,0.0,0.0,0.0,0.0,0.0,0.0,0.0,0.0,0.0,0.0,0.0,0.0,0.0,0.0,0.0,0.0,0.0,0.0,0.0,0.0,0.0,0.0,0.0,0.0,0.0,0.0,0.0,0.0,0.0,0.0,0.0,0.0,0.0,0.0,0.0,0.0,0.0,0.0,0.0,0.0,0.0,-4.1245,-4.3225,-4.4443,-4.4833,-4.5579,-4.6478,-4.7454,-4.6972,-4.6598,0.0,0.0,0.0,0.0,0.0,0.0,0.0,0.0,0.0,0.0,0.0,0.0,0.0,0.0,0.0,0.0,0.0,0.0,0.0,0.0,0.0,0.0,0.0,0.0,0.0,0.0,0.0,0.0,0.0,0.0,0.0,0.0,0.0,0.0,0.0,0.0,0.0,0.0,0.0,0.0,0.0,-5.5512,-5.4891,-5.5016,0.0,0.0,0.0,0.0,-5.3555,-5.3596,0.0,0.0,0.0,0.0,0.0,0.0,0.0,0.0,0.0,0.0,0.0,0.0,0.0,0.0,0.0,0.0,0.0,0.0,0.0,0.0,0.0,0.0,0.0,0.0,0.0,0.0,0.0,0.0,0.0,0.0,0.0,0.0,0.0,0.0,0.0,0.0,0.0,0.0,0.0,0.0,0.0,0.0,0.0,0.0,0.0,0.0,0.0,0.0,0.0,0.0,0.0,0.0,0.0,0.0,0.0,0.0,-4.1398,-4.3196,-4.4618,-4.5566,-4.5972,-4.6895,-4.8327,-4.7595,-4.721,0.0,0.0,0.0,0.0,0.0,0.0,0.0,0.0,0.0,0.0,0.0,0.0,0.0,0.0,0.0,0.0,0.0,0.0,0.0,0.0,0.0,0.0,0.0,0.0,0.0,0.0,0.0,0.0,0.0,0.0,0.0,0.0,0.0,0.0,0.0,0.0,0.0,0.0,0.0,0.0,0.0,-5.5799,-5.582,-5.5869,-5.5811,0.0,0.0,-5.5914,-5.6169,-5.6018,0.0,0.0,0.0,0.0,0.0,0.0,0.0,0.0,0.0,0.0,0.0,0.0,0.0,0.0,0.0,0.0,0.0,0.0,0.0,0.0,0.0,0.0,0.0,0.0,0.0,0.0,0.0,0.0,0.0,0.0,0.0,0.0,0.0,0.0,0.0,0.0,0.0,0.0,0.0,0.0,0.0,0.0,0.0,0.0,0.0,0.0,0.0,0.0,0.0,0.0,0.0,0.0,0.0,0.0,0.0,-4.1564,-4.2013,-4.4116,-4.5726,-4.6751,-4.8018,-4.9133,-4.9953,-4.9699,-4.9108,0.0,0.0,0.0,0.0,0.0,0.0,0.0,0.0,0.0,0.0,0.0,0.0,0.0,0.0,0.0,0.0,0.0,0.0,0.0,0.0,0.0,0.0,0.0,0.0,0.0,0.0,0.0,0.0,0.0,0.0,0.0,0.0,0.0,0.0,0.0,0.0,0.0,0.0,0.0,0.0,0.0,0.0,-5.7027,-5.7413,0.0,0.0,0.0,-5.8714,-5.8872,0.0,0.0,0.0,0.0,0.0,0.0,0.0,0.0,0.0,0.0,0.0,0.0,0.0,0.0,0.0,0.0,0.0,0.0,0.0,0.0,0.0,0.0,0.0,0.0,0.0,0.0,0.0,0.0,0.0,0.0,0.0,0.0,0.0,0.0,0.0,0.0,0.0,0.0,0.0,0.0,0.0,0.0,0.0,0.0,0.0,0.0,0.0,0.0,0.0,0.0,0.0,0.0,0.0,0.0,0.0,0.0,0.0,-4.2641,-4.4816,-4.6547,-4.7672,-4.9581,-5.0917,-5.1324,-5.1353,0.0,0.0,0.0,0.0,0.0,0.0,0.0,0.0,0.0,0.0,0.0,0.0,0.0,0.0,0.0,0.0,0.0,0.0,0.0,0.0,0.0,0.0,0.0,0.0,0.0,0.0,0.0,-4.6921,0.0,0.0,0.0,0.0,0.0,0.0,0.0,0.0,0.0,0.0,0.0,0.0,0.0,0.0,-5.6176,-5.7819,-5.8777,-5.9471,0.0,0.0,-6.0975,-6.0975,-6.0229,-5.9618,0.0,0.0,0.0,0.0,0.0,0.0,0.0,0.0,0.0,0.0,0.0,0.0,0.0,0.0,0.0,0.0,0.0,0.0,0.0,0.0,0.0,0.0,0.0,0.0,0.0,0.0,0.0,0.0,0.0,0.0,0.0,0.0,0.0,0.0,0.0,0.0,0.0,0.0,0.0,0.0,0.0,0.0,0.0,0.0,0.0,0.0,0.0,0.0,0.0,0.0,0.0,0.0,0.0,0.0,0.0,-4.3299,-4.5054,-4.6634,-4.7911,-4.9897,-5.1245,-5.1959,-5.1988,-5.1274,0.0,0.0,0.0,0.0,0.0,0.0,0.0,0.0,0.0,0.0,0.0,0.0,0.0,0.0,0.0,0.0,0.0,0.0,0.0,0.0,0.0,0.0,0.0,0.0,0.0,0.0,0.0,0.0,0.0,0.0,0.0,0.0,0.0,0.0,0.0,0.0,0.0,0.0,0.0,0.0,0.0,-5.6965,-5.8093,-5.9455,-6.0536,0.0,0.0,-6.2032,-6.2032,-6.1408,-6.0618,-5.9622,0.0,0.0,0.0,0.0,0.0,0.0,0.0,0.0,0.0,0.0,0.0,0.0,0.0,0.0,0.0,0.0,0.0,0.0,0.0,0.0,0.0,0.0,0.0,0.0,0.0,0.0,0.0,0.0,0.0,0.0,0.0,0.0,0.0,0.0,0.0,0.0,0.0,0.0,0.0,0.0,0.0,0.0,0.0,0.0,0.0,0.0,0.0,0.0,0.0,0.0,0.0,0.0,0.0,-4.303,-4.3958,-4.6237,-4.788,-4.8835,-5.106,-5.224,-5.2091,-5.2477,-5.1884,0.0,0.0,0.0,0.0,0.0,0.0,0.0,0.0,0.0,0.0,0.0,0.0,0.0,0.0,0.0,0.0,0.0,0.0,0.0,0.0,0.0,0.0,0.0,0.0,0.0,0.0,0.0,0.0,-4.6714,-4.7049,-4.7613,0.0,0.0,0.0,0.0,0.0,0.0,0.0,0.0,0.0,0.0,-5.7808,-5.947,-6.0735,0.0,0.0,-6.2869,-6.3404,-6.3519,-6.2676,-6.1674,-6.0986,-5.8893,0.0,0.0,0.0,0.0,0.0,0.0,0.0,0.0,0.0,0.0,0.0,0.0,0.0,0.0,0.0,0.0,0.0,0.0,0.0,0.0,0.0,0.0,0.0,0.0,0.0,0.0,0.0,0.0,0.0,0.0,0.0,0.0,0.0,0.0,0.0,0.0,0.0,0.0,0.0,0.0,0.0,0.0,0.0,0.0,0.0,0.0,0.0,0.0,0.0,0.0,0.0,0.0,-4.3868,-4.4915,-4.713,-4.8686,-4.9553,-5.1738,-5.2665,-5.2217,-5.2665,-5.2067,0.0,0.0,0.0,0.0,0.0,0.0,0.0,0.0,0.0,0.0,0.0,0.0,0.0,0.0,0.0,0.0,0.0,0.0,0.0,0.0,0.0,0.0,0.0,0.0,0.0,0.0,0.0,0.0,-4.704,-4.7533,-4.8386,0.0,0.0,0.0,0.0,0.0,0.0,0.0,0.0,0.0,0.0,-5.8512,-6.0593,-6.178,-6.2755,-6.3532,-6.3985,-6.4226,-6.4274,-6.3464,-6.2466,-6.1774,0.0,0.0,0.0,0.0,0.0,0.0,0.0,0.0,0.0,0.0,0.0,0.0,0.0,0.0,0.0,0.0,0.0,0.0,0.0,0.0,0.0,0.0,0.0,0.0,0.0,0.0,0.0,0.0,0.0,0.0,-4.0487,0.0,0.0,0.0,0.0,0.0,0.0,0.0,0.0,0.0,0.0,0.0,0.0,0.0,0.0,0.0,0.0,0.0,0.0,0.0,0.0,0.0,0.0,-4.4377,-4.6262,-4.7608,-4.8925,-5.0182,-5.1528,-5.2217,-5.2187,-5.2217,-5.1588,-5.0242,0.0,0.0,0.0,0.0,0.0,0.0,0.0,0.0,0.0,0.0,0.0,0.0,0.0,0.0,0.0,0.0,0.0,0.0,0.0,0.0,0.0,0.0,0.0,0.0,0.0,0.0,-4.6553,-4.6946,-4.7704,0.0,0.0,0.0,0.0,0.0,0.0,0.0,0.0,0.0,0.0,-5.7038,-5.9195,-6.1427,-6.2625,-6.3697,-6.4562,-6.4795,-6.4611,-6.4026,-6.3518,-6.2807,0.0,0.0,0.0,0.0,0.0,0.0,0.0,0.0,0.0,0.0,0.0,0.0,0.0,0.0,0.0,0.0,0.0,0.0,0.0,0.0,0.0,0.0,0.0,0.0,0.0,0.0,0.0,-4.2453,-4.3102,0.0,0.0,0.0,0.0,0.0,0.0,0.0,0.0,0.0,0.0,0.0,-4.7967,-4.8835,0.0,0.0,0.0,0.0,0.0,0.0,0.0,0.0,0.0,0.0,0.0,0.0,-4.5424,-4.695,-4.8267,-4.9374,-5.0242,-5.1528,-5.1977,-5.1558,-5.1977,-5.1379,-4.9643,0.0,0.0,0.0,0.0,0.0,0.0,0.0,0.0,0.0,0.0,0.0,0.0,0.0,0.0,0.0,0.0,0.0,0.0,0.0,0.0,0.0,0.0,0.0,0.0,0.0,-4.8493,0.0,0.0,0.0,0.0,0.0,0.0,0.0,0.0,0.0,0.0,0.0,-5.5626,-5.6591,-5.8887,-6.0794,-6.1834,-6.2836,-6.3778,0.0,0.0,0.0,0.0,0.0,0.0,0.0,0.0,0.0,0.0,0.0,0.0,0.0,0.0,-6.408,-6.211,-6.1611,-6.1316,-6.0534,0.0,0.0,0.0,0.0,0.0,0.0,0.0,0.0,0.0,0.0,0.0,0.0,0.0,0.0,-4.3522,0.0,-4.4379,0.0,0.0,0.0,0.0,0.0,0.0,0.0,0.0,-4.7938,-4.9224,-5.0301,-5.096,-5.1259,0.0,-5.0361,-4.9284,0.0,0.0,0.0,0.0,0.0,0.0,0.0,0.0,-4.6561,-4.7638,-4.8955,-4.9942,-5.0571,-5.1409,-5.1648,-5.1229,-5.1409,-5.081,-4.9314,-4.7818,-4.7147,0.0,0.0,0.0,0.0,0.0,0.0,0.0,0.0,0.0,0.0,0.0,0.0,0.0,0.0,0.0,0.0,0.0,0.0,0.0,0.0,0.0,0.0,0.0,-4.8311,0.0,0.0,0.0,0.0,0.0,0.0,0.0,0.0,0.0,-5.4485,-5.5741,-5.7286,-5.8436,-6.0442,-6.2104,-6.2965,0.0,0.0,0.0,0.0,0.0,0.0,0.0,-6.5782,-6.5764,-6.5408,-6.5264,-6.5239,-6.6278,-6.738,-6.8028,0.0,0.0,-6.5548,-6.4785,-6.4361,-6.3718,-6.3015,-6.2632,-6.2514,-6.2382,-6.2366,0.0,0.0,0.0,0.0,0.0,0.0,0.0,0.0,-4.3409,-4.4603,0.0,-4.5698,0.0,0.0,0.0,0.0,0.0,-4.5813,0.0,0.0,-5.0361,-5.1618,-5.2276,-5.2935,-5.3234,-5.3144,-5.1887,-5.1229,-5.099,-4.7967,0.0,0.0,0.0,0.0,0.0,0.0,-4.7638,-4.8386,-4.9583,-5.0541,-5.1169,-5.1229,-5.1229,-5.1199,-5.0601,-4.9972,-4.9284,-4.8626,-4.823,-4.7995,-4.8152,0.0,0.0,0.0,0.0,0.0,0.0,0.0,0.0,0.0,0.0,0.0,0.0,0.0,0.0,0.0,0.0,0.0,0.0,0.0,0.0,-4.8241,0.0,0.0,0.0,0.0,0.0,0.0,0.0,0.0,0.0,0.0,-5.6824,-5.729,-5.8446,-6.0485,0.0,0.0,0.0,0.0,-6.6355,-6.7522,-6.7781,-6.7814,-6.7943,-6.8144,-6.8013,-6.7372,0.0,0.0,-6.8071,-6.8636,-6.9194,-6.9682,-7.0276,-7.0052,-6.7458,-6.7334,-6.7309,-6.6402,-6.578,-6.5392,-6.5225,-6.469,-6.427,-4.2536,0.0,0.0,0.0,0.0,-4.1568,-4.2393,-4.3057,-4.5064,-4.6389,-4.6917,-4.7724,0.0,0.0,0.0,0.0,0.0,0.0,-4.9134,-5.0421,-5.1917,-5.2965,-5.3653,-5.4311,-5.4371,-5.3892,-5.3054,-5.2127,-5.1199,-4.9793,-4.8297,-4.6741,0.0,0.0,0.0,0.0,-4.8087,-4.9613,-5.0062,-5.0571,-5.1229,-5.1229,-5.1229,-5.1229,-5.0571,-5.0034,-4.9554,-4.8892,-4.849,-4.8416,-4.8748,0.0,0.0,0.0,0.0,0.0,0.0,0.0,0.0,0.0,0.0,0.0,0.0,0.0,0.0,0.0,0.0,0.0,0.0,0.0,-4.8925,-4.8446,-4.879,0.0,0.0,0.0,0.0,0.0,0.0,0.0,0.0,0.0,-6.0738,-6.1086,-6.1718,0.0,0.0,-6.4426,-6.4899,-6.5312,-6.589,-6.674,0.0,0.0,0.0,-6.8818,-6.8855,-6.9044,-6.9256,-6.9647,-7.0232,-7.0097,-6.9895,-7.0073,-6.9836,-6.9309,-6.8715,-6.9039,-6.9107,-6.8412,-6.7671,-6.7131,-6.7098,-6.6576,-6.6086,-4.4483,-4.3108,-4.2124,-4.16,-4.1584,-4.2798,-4.3614,-4.4308,-4.6276,-4.7653,-4.8522,-4.9029,-4.8952,-4.8476,-4.8626,0.0,0.0,0.0,-5.075,-5.2037,-5.3114,-5.3952,-5.461,-5.4999,-5.497,-5.4581,-5.3922,-5.3025,-5.1977,-5.1079,-4.9883,-4.8476,0.0,0.0,-4.8057,-4.8356,-4.9045,-5.0182,-5.0511,-5.081,-5.1199,-5.1229,-5.1229,-5.1293,-5.0663,-5.0186,-4.988,-4.9156,-4.8748,-4.8749,-4.9128,-4.9474,0.0,0.0,0.0,0.0,0.0,0.0,0.0,0.0,0.0,0.0,0.0,-5.142,-5.0439,0.0,0.0,0.0,-4.9308,-4.9122,-4.906,-4.9546,0.0,0.0,0.0,0.0,0.0,0.0,0.0,-5.9017,-6.1099,-6.2771,-6.3265,-6.3985,-6.4407,-6.4487,-6.4916,-6.5392,-6.557,0.0,-6.6134,-6.6923,-6.7391,-6.8048,-6.8875,-6.9069,-6.9203,-6.9435,-6.968,-6.9938,-7.0263,-6.9992,-6.9789,-6.9654,-6.9147,-6.8639,-6.8605,-6.8774,-6.8977,-6.9059,-6.8417,-6.7929,-6.7877,-6.7117,-6.6373,-4.61,-4.5422,-4.389,-4.3187,-4.3162,-4.4055,-4.4735,-4.5434,-4.7096,-4.8518,-4.9876,-4.9796,-5.0165,-5.0941,-4.997,0.0,-5.0511,-5.1139,-5.2127,-5.3294,-5.3982,-5.461,-5.5179,-5.5179,-5.5209,-5.5179,-5.4461,-5.3803,-5.3114,-5.1858,-5.09,-5.0301,-4.9703,-4.9404,-4.9374,-4.9912,-5.0272,-5.0331,-5.09,-5.1229,-5.1229,-5.1229,-5.1293,-5.1572,-5.0999,-5.0607,-5.0319,-4.9565,-4.9096,-4.9058,-4.921,-4.9505,-4.9791,0.0,0.0,0.0,0.0,0.0,0.0,0.0,0.0,0.0,0.0,0.0,0.0,0.0,0.0,0.0,-4.948,0.0,-4.9726,-5.1389,0.0,0.0,0.0,-5.6633,-5.7588,-5.8477,-5.9674,-6.1129,0.0,0.0,-6.4444,0.0,-6.639,-6.5788,-6.5801,-6.6042,-6.6421,-6.644,-6.6727,-6.7471,-6.7692,-6.7963,-6.8485,-6.8695,-6.8816,-6.8829,-6.8897,-6.8929,-6.8879,-6.8793,-6.8808,-6.8707,-6.8166,-6.759,-6.7624,-6.7083,-6.7049,-6.8267,-6.8064,-6.7692,-6.7557,-6.6542,-6.5595,-4.6979,-4.61,-4.5673,-4.502,-4.4292,-4.5168,-4.5744,-4.6257,-4.7722,-4.8857,-4.961,-5.0509,-5.1353,-5.2307,-5.1762,-5.1858,-5.2516,-5.3174,-5.3653,-5.3982,-5.464,-5.5029,-5.5179,-5.5209,-5.5209,-5.5119,-5.3982,-5.3354,-5.3114,-5.1858,-5.1139,-5.099,-5.084,-5.0511,-5.0032,-5.0152,-5.0481,-5.096,-5.1139,-5.1229,-5.1229,-5.1229,-5.1293,-5.1602,-5.1421,-5.1061,-5.0524,-5.0309,-4.9951,-4.9546,-4.9693,-5.0073,-5.0725,-5.1001,0.0,0.0,0.0,0.0,0.0,0.0,0.0,0.0,0.0,-5.1657,-5.0744,0.0,-5.0676,0.0,-5.0652,-5.1128,-5.2196,-5.2597,0.0,0.0,-5.6203,-5.7015,-5.8518,-5.9404,-6.0216,-6.1197,-6.2618,-6.3565,-6.3734,-6.4546,-6.5039,-6.4907,-6.5851,-6.6558,-6.6728,-6.6221,-6.5917,-6.6203,-6.6237,-6.6271,-6.6542,-6.6965,-6.7337,-6.733,-6.7331,-6.7371,-6.7384,-6.6878,-6.6508,-6.6474,-6.5899,-6.5459,-6.5392,-6.5222,-6.5019,-6.4986,-6.5561,-6.6203,-6.6203,-6.5459,-6.485,-4.7079,-4.6326,-4.6326,-4.5949,-4.5397,-4.5842,-4.6298,-4.6678,-4.7691,-4.8656,-4.9552,-5.113,-5.2165,-5.2783,-5.2718,-5.2995,-5.3653,-5.4042,-5.4371,-5.467,-5.5029,-5.5209,-5.5209,-5.5209,-5.5209,-5.5149,-5.4132,-5.3473,-5.3144,-5.2157,-5.1498,-5.1229,-5.1229,-5.105,-5.069,-5.0661,-5.084,-5.1229,-5.1229,-5.1229,-5.1229,-5.1229,-5.1416,-5.1757,-5.1485,-5.1363,-5.1389,-5.0962,-5.0652,-5.0517,-5.0533,-5.0639,-5.0978,-5.1316,-5.1814,0.0,0.0,0.0,0.0,0.0,0.0,0.0,0.0,0.0,0.0,0.0,-5.1217,-5.1217,-5.1457,-5.2202,-5.3715,-5.4018,-5.4929,-5.6959,-5.7161,-5.76,-5.8896,-5.937,-5.9911,-6.0689,-6.1806,-6.255,-6.255,-6.3497,-6.414,-6.414,-6.483,-6.544,-6.573,-6.5459,-6.5189,-6.5222,-6.5222,-6.5189,-6.5189,-6.5309,-6.5372,-6.5299,-6.5017,-6.4864,-6.481,-6.4491,-6.4208,-6.4174,-6.3632,-6.3125,-6.3125,-6.2821,-6.2448,-6.2245,-6.2618,-6.3396,-6.4072,-6.3666,-6.3125,-4.6803,-4.6326,-4.6326,-4.6326,-4.6326,-4.6326,-4.6446,-4.678,-4.7272,-4.8247,-4.9594,-5.1541,-5.2647,-5.2951,-5.3247,-5.3773,-5.4311,-5.4341,-5.464,-5.5179,-5.5209,-5.5209,-5.5209,-5.5209,-5.5149,-5.5029,-5.4401,-5.3743,-5.3054,-5.2396,-5.1768,-5.1229,-5.1229,-5.1229,-5.1229,-5.1229,-5.1229,-5.1229,-5.1229,-5.1229,-5.1229,-5.1229,-5.1416,-5.1972,-5.1425,-5.1478,-5.2168,-5.1491,-5.1194,-5.1517,-5.1406,-5.1186,-5.1092,-5.1905,-5.2324,0.0,-5.3045,0.0,0.0,0.0,0.0,0.0,0.0,0.0,0.0,-5.1522,-5.1522,-5.1522,-5.2097,-5.3044,-5.4465,-5.5277,-5.6258,-5.7577,-5.7814,-5.8186,-5.8896,-5.8998,-5.9302,-6.0013,-6.0723,-6.1163,-6.1231,-6.2268,-6.3045,-6.299,-6.2967,-6.3249,-6.3802,-6.4005,-6.4072,-6.4174,-6.4072,-6.3768,-6.3789,-6.3424,-6.3033,-6.2992,-6.2634,-6.2154,-6.2178,-6.2042,-6.1941,-6.1907,-6.1332,-6.0892,-6.0858,-6.0283,-5.9844,-5.9708,-5.9742,-6.0283,-6.1535,-6.1637,-6.1095,-4.6803,-4.6326,-4.6326,-4.6326,-4.6326,-4.6326,-4.6301,-4.6396,-4.6298,-4.7325,-4.9334,-5.1365,-5.279,-5.3745,-5.4285,-5.4678,-5.4999,-5.4999,-5.5089,-5.5209,-5.5209,-5.5209,-5.5209,-5.5209,-5.491,-5.4371,-5.3683,-5.3025,-5.2366,-5.1738,-5.1349,-5.1229,-5.1229,-5.1229,-5.1229,0.0,0.0,0.0,-5.1229,-5.1229,-5.1229,-5.1229,-5.1416,-5.2002,-5.188,0.0,-5.1514,-5.1465,-5.1335,-5.1032,-5.1286,0.0,0.0,0.0,0.0,0.0,0.0,0.0,0.0,0.0,0.0,0.0,-5.3382,-5.3213,-5.3078,-5.3078,-5.3078,-5.3078,-5.3213,-5.3619,-5.4499,-5.5277,-5.6055,-5.69,-5.7543,-5.8186,-5.8896,-5.8998,-5.9302,-6.0013,-6.0216,-6.0317,-6.0317,-6.0622,-6.0757,-6.0791,-6.0723,-6.0833,-6.0926,-6.1569,-6.1941,-6.1907,-6.1535,-6.1008,-6.0976,-6.0953,-6.0782,-6.0734,-6.0659,-6.0536,-6.0419,-5.9979,-5.9674,-5.9641,-5.9032,-5.8558,-5.8558,-5.8389,-5.8152,-5.7543,-5.7476,-5.7881,-5.9336,-6.0013,-5.9979,-4.6577,0.0,-4.6326,-4.6326,0.0,-4.6326,-4.6326,-4.6276,-4.6054,-4.7054,-4.8949,-5.0816,-5.2309,-5.3785,-5.4466,-5.5006,-5.5209,-5.5209,-5.5209,-5.5209,-5.5209,-5.5209,-5.5209,-5.5209,-5.485,-5.4192,-5.3503,-5.2845,-5.2187,-5.1528,-5.1229,-5.1229,-5.1229,-5.1229,-5.1229,-5.1229,-5.1229,-5.1229,-5.1229,-5.1229,-5.1229,-5.1229,-5.1416,-5.2002,0.0,0.0,0.0,0.0,0.0,0.0,0.0,0.0,0.0,0.0,0.0,-5.3348,-5.345,-5.3518,-5.3518,-5.3518,-5.3518,-5.3518,-5.3518,-5.3518,-5.3518,-5.3518,-5.3518,-5.3518,-5.3518,-5.3822,-5.4499,-5.4938,-5.5446,-5.619,-5.6596,-5.7002,-5.7306,-5.7374,-5.7471,-5.7842,-5.791,-5.8084,-5.841,-5.8788,-5.8998,-5.8998,-5.8998,-5.8896,-5.8693,-5.9776,-6.0689,-6.0689,-6.008,-5.97,-5.9919,-5.905,-5.8665,-5.8875,-5.8366,-5.7988,-5.7944,-5.7606,-5.7374,-5.7374,-5.7036,-5.6833,-5.6799,-5.6799,-5.6697,-5.6359,-5.6258,-5.6292,-5.6833,-5.7408,-5.7746,-4.6326,-4.6326,-4.6326,-4.6326,-4.6326,-4.6326,-4.62,-4.5974,0.0,0.0,0.0,-4.9829,-5.1619,-5.3297,-5.42,-5.4875,-5.5179,-5.5209,-5.5209,-5.5209,-5.5209,-5.5119,-5.5029,-5.5029,-5.461,-5.3862,-5.3264,-5.2665,-5.2037,-5.1468,-5.1229,-5.1229,-5.1229,-5.1229,-5.1229,-5.1229,-5.1229,-5.1229,-5.1229,-5.1229,-5.1229,-5.1229,-5.1356,-5.182,-5.1454,-5.1647,-5.2313,-5.2277,-5.2363,-5.2604,-5.2942,-5.3114,-5.3212,-5.3247,-5.3348,-5.3518,-5.3518,-5.3518,-5.3518,-5.3518,-5.3518,-5.3518,-5.3518,-5.3518,-5.3518,-5.3518,-5.3518,-5.3518,-5.3518,-5.3754,-5.4329,-5.4532,-5.4837,-5.5446,-5.5649,-5.5716,-5.575,-5.5716,-5.5815,-5.5711,-5.5849,-5.5916,-5.6588,-5.7167,-5.7509,-5.7509,-5.7509,-5.734,-5.6968,-5.8118,-5.9133,-5.9066,-5.8558,-5.8558,-5.8856,-5.7876,-5.6929,-5.7378,-5.6568,-5.5716,-5.568,-5.5579,-5.5547,-5.5649,-5.5446,-5.5344,-5.531,-5.531,-5.531,-5.531,-5.531,-5.5141,-5.4634,-5.4905,-5.5344,-4.6326,-4.6326,-4.6326,-4.6326,-4.6326,-4.6326,-4.5748,-4.492,-4.5649,-4.6077,-4.6561,-4.8489,-5.0509,-5.2405,-5.3552,-5.4436,-5.5179,-5.5209,-5.5209,0.0,-5.5209,-5.488,-5.4371,-5.4341,-5.3683,-5.2546,-5.2366,-5.2007,-5.1409,-5.1259,-5.1229,-5.1229,-5.1229,-5.1229,-5.1229,-5.1229,-5.1229,-5.1229,-5.1229,-5.1229,-5.1229,-5.1229,-5.1146,-5.1182,-5.1241,-5.1271,-5.1177,-5.1582,-5.1977,-5.2145,-5.2615,-5.3004,-5.3212,-5.3348,-5.3518,-5.3518,-5.3518,-5.3518,-5.3518,-5.3518,-5.3518,-5.3518,-5.3518,-5.3518,-5.3518,-5.3518,-5.3518,-5.3518,-5.3518,-5.3518,-5.3687,-5.4228,-5.46,-5.4769,-5.531,-5.5716,-5.5649,-5.5615,-5.5579,-5.5609,-5.5714,-5.5615,-5.582,-5.599,-5.6089,-5.6055,-5.6055,-5.5953,-5.5919,-5.6122,-5.6325,-5.6325,-5.6258,-5.6224,-5.6525,-5.6208,-5.5871,-5.5962,-5.5826,-5.5553,-5.5517,-5.504,-5.4769,-5.4735,-5.4329,-5.3991,-5.3923,-5.3822,-5.389,-5.389,-5.3856,-5.3754,-5.3619,-5.3788,-5.3856,-4.6326,-4.6326,-4.6326,-4.6326,-4.6326,-4.6326,-4.5673,-4.4669,-4.5244,-4.5602,-4.5994,-4.7758,-4.9671,-5.1431,-5.2997,-5.4036,-5.467,-5.5029,-5.5209,-5.5149,-5.482,-5.4521,-5.4192,-5.3832,-5.3144,-5.2217,-5.2187,-5.1858,-5.1289,-5.1229,-5.1229,-5.1229,-5.1229,-5.1229,-5.1229,-5.1229,-5.1229,-5.1229,-5.1229,-5.1229,-5.1229,-5.1229,-5.1086,-5.0819,-5.0725,-5.0753,-5.0731,-5.1087,-5.1502,-5.2164,-5.259,-5.3041,-5.3348,-5.3416,-5.3518,-5.3518,-5.3518,-5.3518,-5.3518,-5.3518,-5.3518,-5.3518,-5.3518,-5.3518,-5.3518,-5.3518,-5.3518,-5.3518,-5.3518,-5.3518,-5.3518,-5.3822,-5.4025,-5.4025,-5.4329,-5.4499,-5.4499,-5.4499,-5.4532,-5.4531,-5.4497,-5.4669,-5.5043,-5.5075,-5.5108,-5.5074,-5.4837,-5.4532,-5.4566,-5.4532,-5.4837,-5.5513,-5.5378,-5.5344,-5.5581,-5.4968,-5.4734,-5.5009,-5.4737,-5.4534,-5.4465,-5.4126,-5.4025,-5.3991,-5.3687,-5.3551,-5.3484,-5.3079,-5.2876,-5.2841,-5.247,-5.2403,-5.2639,-5.2841,-5.301,-4.6326,-4.6326,-4.6326,-4.6326,-4.6326,-4.6326,-4.5748,-4.4844,-4.5041,-4.5346,-4.5831,-4.7269,-4.8917,-5.064,-5.2325,-5.3385,-5.4042,-5.4491,-5.473,-5.467,-5.4221,-5.3892,-5.3713,-5.3204,-5.2606,-5.2037,-5.1977,-5.1708,-5.1259,-5.1229,-5.1229,-5.1229,-5.1229,-5.1229,-5.1229,-5.1229,-5.1229,-5.1229,-5.1229,-5.1229,-5.1229,-5.1229,-5.0903,-5.0397,-5.036,-5.0352,-5.0348,-5.0703,-5.1327,-5.2236,-5.2764,-5.3144,-5.3518,-5.3518,-5.3518,-5.3518,-5.3518,-5.3518,-5.3518,-5.3518,-5.3518,-5.3518,-5.3518,-5.3518,-5.3518,-5.3518,-5.3518,-5.3518,-5.3518,-5.3518,-5.3518,-5.3518,-5.3518,-5.3518,-5.3518,-5.3585,-5.3518,-5.3518,-5.3518,-5.3518,-5.3518,-5.3788,-5.4194,-5.433,-5.4329,-5.4262,-5.3856,-5.3518,-5.3518,-5.3518,-5.4059,-5.4702,-5.4702,-5.4532,-5.5074,-5.4363,-5.3924,-5.4296,-5.389,-5.3687,-5.3585,-5.345,-5.3247,-5.3213,-5.3044,-5.2875,-5.2909,-5.2471,-5.2134,-5.1997,-5.1693,-5.1459,-5.1961,-5.2063,-5.2334,-4.6326,-4.6326,-4.6326,-4.6326,-4.6326,-4.6326,-4.5949,-4.5464,-4.5425,-4.5659,-4.6024,-4.6948,-4.8326,-4.9938,-5.1482,-5.2575,-5.3294,-5.3324,-5.3414,-5.3414,-5.3324,-5.2965,-5.2486,-5.2336,-5.1947,-5.1409,-5.1349,-5.1319,-5.1229,-5.1229,-5.1229,-5.1229,-5.1229,-5.1229,-5.1229,-5.1229,-5.1229,-5.1229,-5.1229,-5.1229,-5.1229,-5.1229,-5.0723,-4.9733,-5.0117,-5.0136,-4.9721,-5.0557,-5.1401,-5.2236,-5.2834,-5.328,-5.3416,-5.3518,-5.3518,-5.3518,-5.3518,-5.3518,-5.3518,-5.3518,-5.3518,-5.3518,-5.3518,-5.3518,-5.3518,-5.3518,-5.3518,-5.3518,-5.3518,-5.3518,-5.3518,-5.3518,-5.3518,-5.3518,-5.3518,-5.3518,-5.3518,-5.3518,-5.3518,-5.3518,-5.3518,-5.3551,-5.3619,-5.3619,-5.3551,-5.3484,-5.3348,-5.3247,-5.3247,-5.3247,-5.3281,-5.3619,-5.3585,-5.3619,-5.3721,-5.3653,-5.3382,-5.3484,-5.3518,-5.3315,-5.3145,-5.2773,-5.2401,-5.2401,-5.1995,-5.1691,-5.1623,-5.1288,-5.1288,-5.1254,-5.1217,-5.1153,-5.1319,-5.1319,-5.1589,-4.6326,-4.6326,-4.6326,-4.6326,-4.6326,-4.6326,-4.5999,-4.5565,-4.545,-4.5659,-4.6081,-4.6889,-4.808,-4.958,-5.1041,-5.2023,-5.2636,-5.2995,-5.3174,-5.3144,-5.2785,-5.2456,-5.2187,-5.1768,-5.1439,-5.1259,-5.1229,-5.1229,-5.1229,-5.1229,-5.1229,-5.1229,-5.1229,-5.1229,-5.1229,-5.1229,-5.1229,-5.1229,-5.1229,-5.1229,-5.1229,-5.1229,-5.0601,-4.9584,-4.9702,-4.9677,-4.9334,-4.9947,-5.0951,-5.1987,-5.259,-5.3041,-5.3484,-5.3518,-5.3518,-5.3518,-5.3518,-5.3518,-5.3518,-5.3518,-5.3518,-5.3518,-5.3518,-5.3518,-5.3518,-5.3518,-5.3518,-5.3518,-5.3518,-5.3518,-5.3518,-5.3518,-5.3518,-5.3518,-5.3518,-5.3518,-5.3518,-5.3518,-5.3518,-5.3518,-5.3518,-5.3484,-5.3416,-5.3078,-5.2638,-5.23,-5.2164,-5.2232,-5.2198,-5.2164,-5.2164,-5.2164,-5.2164,-5.2367,-5.2604,-5.2369,-5.2269,-5.2135,-5.2166,-5.2128,-5.2131,-5.1961,-5.1657,-5.1657,-5.1319,-5.115,-5.1319,-5.0781,-5.0544,-5.0574,-5.0541,-5.0541,-5.0574,-5.0541,-5.071,-4.6326,-4.6326,-4.6326,-4.6326,-4.6326,-4.6326,-4.5999,-4.5565,-4.554,-4.5745,-4.6164,-4.7037,-4.8122,-4.9433,-5.0681,-5.1469,-5.2007,-5.2426,-5.2636,-5.2606,-5.2157,-5.1947,-5.1887,-5.1468,-5.1229,-5.1199,-5.102,-5.093,-5.096,-5.096,-5.102,-5.1199,-5.1229,-5.1229,-5.1229,-5.1229,-5.1229,-5.1229,-5.1229,-5.1139,-5.096,-5.096,-5.0421,-4.9464,-4.9343,-4.9118,-4.8883,-4.955,-5.0538,-5.1842,-5.2345,-5.287,-5.3416,-5.3518,-5.3518,-5.3518,-5.3518,-5.3518,-5.3518,-5.3518,-5.3518,-5.3518,-5.3518,-5.3518,-5.3518,-5.3518,-5.3518,-5.3518,-5.3518,-5.3518,-5.3518,-5.3518,-5.3518,-5.3518,-5.3518,-5.3518,-5.3518,-5.3518,-5.3518,-5.3518,-5.3281,-5.3078,-5.2841,-5.2334,-5.1826,-5.142,-5.1285,-5.1217,-5.1217,-5.1285,-5.1285,-5.1217,-5.1082,-5.1183,-5.179,-5.1691,-5.1258,-5.1191,-5.1349,-5.138,-5.1146,-5.1078,-5.0913,-5.0879,-5.0777,-5.0574,-5.0338,-4.9936,-4.9835,-4.983,-4.983,-4.983,-4.9796,-4.9796,-4.9796,-4.6326,-4.6301,-4.6301,-4.625,-4.6301,-4.625,-4.5974,-4.549,-4.5745,-4.6055,-4.649,-4.7481,-4.8524,-4.9669,-5.0338,-5.0816,-5.1195,-5.1379,-5.1439,-5.1409,-5.1349,-5.1289,-5.1259,-5.1229,-5.1199,-5.1079,-5.0601,-5.0331,-5.0301,-5.0301,-5.0601,-5.1169,-5.1199,-5.1229,-5.1229,-5.1229,-5.1229,-5.1229,-5.1229,-5.093,-5.0391,-5.0301,-4.9942,-4.9344,-4.8922,-4.8693,-4.8696,-4.947,-5.0493,-5.1696,-5.2274,-5.2903,-5.3416,-5.3518,-5.3518,-5.3518,-5.3518,-5.3518,-5.3518,-5.3518,-5.3518,-5.3518,-5.3518,-5.3518,-5.3518,-5.3518,-5.3518,-5.3518,-5.3518,-5.3518,-5.3518,-5.3518,-5.3518,-5.3518,-5.3518,-5.3518,-5.3518,-5.3518,-5.3518,-5.3348,-5.2773,-5.2131,-5.1488,-5.1285,-5.1217,-5.1082,-5.115,-5.1082,-5.098,-5.1082,-5.1048,-5.0913,-5.0608,-5.0435,-5.1074,-5.0879,-5.0973,-5.0871,-5.074,-5.1011,-5.0929,-5.0691,-5.0396,-5.0033,-4.9729,-4.9458,-4.9187,-4.912,-4.9187,-4.9187,-4.9221,-4.9221,-4.9323,-4.9154,-4.9187,-4.5573,-4.5246,-4.5221,-4.5221,-4.5221,-4.5246,-4.5238,-4.5244,-4.5371,-4.5989,-4.6867,-4.766,-4.8753,-4.996,-5.0029,-5.056,-5.1199,-5.1229,-5.1229,-5.1229,-5.1229,-5.1229,-5.1229,-5.1229,-5.099,-5.0601,-5.0361,-5.0032,-4.9703,-5.0032,-5.0361,-5.0631,-5.102,-5.1229,-5.1229,-5.1229,-5.1229,-5.1229,-5.1229,-5.09,-5.0212,-4.9823,-4.9374,-4.8922,-4.8651,-4.8718,-4.9047,-4.955,-5.0461,-5.1842,-5.2378,-5.2903,-5.3416,-5.3518,-5.3518,-5.3518,-5.3518,-5.3518,-5.3518,-5.3518,-5.3518,-5.3518,-5.3518,-5.3518,-5.3518,-5.3518,-5.3518,-5.3518,-5.3518,-5.3518,-5.3518,-5.3518,-5.3518,-5.3518,-5.3484,-5.345,-5.3518,-5.3484,-5.3315,-5.2772,-5.2061,-5.1315,-5.071,-5.0507,-5.0304,-4.9898,-4.983,-4.9864,-4.983,-4.9796,-4.9898,-4.9796,-4.9593,-4.9458,-4.969,-4.9763,-4.9791,-4.9757,-4.9723,-4.9791,-4.9718,-4.9752,-4.9526,-4.956,-4.912,-4.9052,-4.9052,-4.9052,-4.9018,-4.9018,-4.9018,-4.9018,-4.9018,-4.9018,-4.9018,-4.4995,-4.4644,-4.4618,-4.4618,-4.4618,-4.4618,-4.4634,-4.4916,-4.5098,-4.5919,-4.6889,-4.7689,-4.8636,-4.9677,-4.9779,-4.9968,-5.0571,-5.0601,-5.0601,-5.0571,-5.0571,-5.0601,-5.0601,-5.0571,-5.0361,-4.9942,-4.9703,-4.9374,-4.9045,-4.9404,-4.9823,-5.0272,-5.069,-5.102,-5.1169,-5.1229,-5.1139,-5.096,-5.09,-5.0481,-4.9673,-4.9194,-4.8803,-4.8494,-4.8546,-4.8845,-4.9291,-4.9741,-5.0647,-5.1842,-5.2345,-5.2903,-5.3416,-5.3518,-5.3518,-5.3518,-5.3518,-5.3518,-5.3518,-5.3518,-5.3518,-5.3518,-5.3518,-5.3518,-5.3518,-5.3518,-5.3518,-5.3518,-5.3518,-5.345,-5.3179,-5.3112,-5.3112,-5.3078,-5.2909,-5.2773,-5.2773,-5.2739,-5.2334,-5.1688,-5.1142,-5.0532,-4.9961,-4.9763,-4.9526,-4.9052,-4.9018,-4.9018,-4.9018,-4.9018,-4.9018,-4.9018,-4.9086,-4.9086,-4.9187,-4.9289,-4.9323,-4.9255,-4.9283,-4.9086,-4.9018,-4.9018,-4.9018,-4.9018,-4.9018,-4.9018,-4.9018,-4.9018,-4.9018,-4.9018,-4.9018,-4.9018,-4.9018,-4.9018,-4.9018,-4.4543,-4.4418,-4.4568,-4.4367,-4.4317,-4.4292,-4.4306,-4.4255,-4.4986,-4.566,-4.6392,-4.7447,-4.8326,-4.8975,-4.9189,-4.9284,-4.9344,-4.9284,-4.9344,-4.9434,-4.9404,-4.9404,-4.9434,-4.9464,-4.9404,-4.9224,-4.8596,-4.8297,-4.8297,-4.8446,-4.9045,-5.0002,-5.0272,-5.0661,-5.1229,-5.1199,-5.09,-5.0451,-5.0331,-4.9673,-4.8476,-4.8386,-4.832,-4.8116,-4.8446,-4.8914,-4.934,-4.9979,-5.0843,-5.1915,-5.2416,-5.287,-5.3416,-5.3518,-5.3518,-5.3518,-5.3518,-5.3518,-5.3518,-5.3518,-5.3518,-5.3518,-5.3518,-5.3518,-5.3518,-5.3518,-5.3484,-5.3382,-5.3348,-5.3145,-5.2469,-5.2232,-5.2232,-5.2232,-5.1826,-5.1522,-5.142,-5.1251,-5.0947,-5.0371,-5.0159,-4.9814,-4.9249,-4.912,-4.9086,-4.9052,-4.9018,-4.9018,-4.9018,-4.9018,-4.9018,-4.9018,-4.9018,-4.9018,-4.9018,-4.9018,-4.9018,-4.9018,-4.9052,-4.9018,-4.9018,-4.9018,-4.9018,-4.9018,-4.9018,-4.9018,-4.9018,-4.9018,-4.9018,-4.9018,-4.9018,-4.9018,-4.9018,-4.9018,-4.9018,-4.271,-4.2384,-4.2359,-4.2359,-4.2359,-4.2359,-4.2478,-4.2869,-4.3488,-4.4516,-4.5733,-4.6854,-4.7759,-4.8488,-4.8625,-4.8596,-4.8566,-4.8177,-4.8386,-4.9105,-4.9224,-4.9224,-4.9224,-4.9224,-4.9045,-4.8536,-4.7938,-4.7608,-4.7698,-4.8057,-4.8745,-4.9494,-5.0032,-5.0571,-5.1169,-5.1199,-5.09,-5.0331,-5.0242,-4.9583,-4.8416,-4.8443,-4.8373,-4.8279,-4.8769,-4.9421,-5.0136,-5.0723,-5.1443,-5.2378,-5.28,-5.3179,-5.3416,-5.3518,-5.3518,-5.3518,-5.3518,-5.3518,-5.3518,-5.3518,-5.3518,-5.3518,-5.3518,-5.3518,-5.3518,-5.3484,-5.3247,-5.2807,-5.2638,-5.2365,-5.1657,-5.1048,-5.1048,-5.1488,-5.1352,-5.115,-5.1048,-5.071,-5.0371,-5.0101,-4.9656,-4.9283,-4.9052,-4.9018,-4.9018,-4.9018,-4.9018,-4.9018,-4.9018,-4.9018,-4.9018,-4.9018,-4.9018,-4.9018,-4.9018,-4.9018,-4.9018,-4.9018,-4.9018,-4.9018,-4.9018,-4.9018,-4.9018,-4.9018,-4.9018,-4.9018,-4.9018,-4.9018,-4.9018,-4.9018,-4.9018,-4.9018,-4.9018,-4.9018,-4.9018,-4.1656,-4.1354,-4.1329,-4.1329,-4.1329,-4.1329,-4.1544,-4.2076,-4.2604,-4.3721,-4.5084,-4.5942,-4.7001,-4.7842,-4.7852,-4.785,-4.7878,-4.7459,-4.7728,-4.8446,-4.8536,-4.8536,-4.8536,-4.8536,-4.8356,-4.7938,-4.7489,-4.7309,-4.7339,-4.7728,-4.8267,-4.8895,-4.9553,-5.0212,-5.078,-5.084,-5.0511,-4.9942,-4.9613,-4.8985,-4.8235,-4.8083,-4.8304,-4.8499,-4.9097,-4.9979,-5.0832,-5.1475,-5.2059,-5.259,-5.3041,-5.3348,-5.3484,-5.3518,-5.3518,-5.3518,-5.3518,-5.3518,-5.3518,-5.3518,-5.3518,-5.3518,-5.3518,-5.3518,-5.345,-5.3315,-5.2773,-5.2401,-5.2029,-5.162,-5.0879,-5.0405,-5.0236,-5.0338,-5.0338,-5.0405,-5.0304,-4.9999,-4.9729,-4.956,-4.9289,-4.9052,-4.9018,-4.9018,-4.9018,-4.9018,-4.9018,-4.9018,-4.9018,-4.9018,-4.9018,-4.9018,-4.9018,-4.9018,-4.9018,-4.9018,-4.9018,-4.9018,-4.9018,-4.9018,-4.9018,-4.9018,-4.9018,-4.9018,-4.9018,-4.9018,-4.9018,-4.9018,-4.9018,-4.9018,-4.9018,-4.9018,-4.9018,-4.9018,-4.9018,-4.1279,-4.1254,-4.1229,-4.1153,-4.1153,-4.1153,-4.1342,-4.1737,-4.2213,-4.3174,-4.4284,-4.5024,-4.5938,-4.6894,-4.7081,-4.7225,-4.7309,-4.7339,-4.7339,-4.7459,-4.7489,-4.7519,-4.7519,-4.7549,-4.7519,-4.7399,-4.7309,-4.7309,-4.7309,-4.7399,-4.7638,-4.8356,-4.8955,-4.9553,-5.0062,-5.0182,-4.9853,-4.9224,-4.8686,-4.8087,-4.7516,-4.7598,-4.8079,-4.8687,-4.955,-5.0416,-5.1327,-5.2131,-5.259,-5.2731,-5.3212,-5.3518,-5.3518,-5.3518,-5.3518,-5.3518,-5.3518,-5.3518,-5.3518,-5.3518,-5.3518,-5.3518,-5.3518,-5.345,-5.3281,-5.2807,-5.23,-5.1928,-5.1488,-5.0845,-5.0236,-4.9965,-4.9695,-4.9187,-4.9289,-4.9221,-4.9052,-4.9086,-4.9154,-4.9086,-4.9018,-4.9018,-4.9018,-4.9018,-4.9018,-4.9018,-4.9018,-4.9018,-4.9018,-4.9018,-4.9018,-4.9018,-4.9018,-4.9018,-4.9018,-4.9018,-4.9018,-4.9018,-4.9018,-4.9018,-4.9018,-4.9018,-4.9018,-4.9018,-4.9018,-4.9018,-4.9018,-4.9018,-4.9018,-4.9018,-4.9018,-4.9018,-4.9018,-4.9018,-4.9018,-4.0501,-4.0149,-4.0124,-4.0124,-4.0124,-4.0124,-4.0332,-4.0643,-4.1158,-4.1997,-4.3057,-4.4054,-4.5153,-4.6159,-4.6668,-4.7019,-4.7222,-4.7309,-4.7309,-4.7309,-4.7309,-4.7309,-4.7309,-4.7309,-4.7309,-4.7309,-4.7309,-4.7309,-4.7309,-4.7309,-4.7638,-4.8267,-4.8476,-4.8895,-4.9434,-4.9523,-4.9164,-4.8626,-4.8416,-4.8025,-4.7658,-4.788,-4.8521,-4.934,-5.0104,-5.0951,-5.1842,-5.259,-5.311,-5.328,-5.3348,-5.3518,-5.3518,-5.3518,-5.3518,-5.3518,-5.3518,-5.3518,-5.3518,-5.3518,-5.3518,-5.3518,-5.345,-5.3247,-5.2672,-5.2435,-5.1758,-5.1014,-5.0443,-5.0105,-4.9492,-4.9323,-4.9187,-4.9086,-4.9018,-4.9018,-4.9018,-4.9018,-4.9018,-4.9018,-4.9018,-4.9018,-4.9018,-4.9018,-4.9018,-4.9018,-4.9018,-4.9018,-4.9018,-4.9018,-4.9018,-4.9018,-4.9018,-4.9018,-4.9018,-4.9018,-4.9018,-4.9018,-4.9018,-4.9018,-4.9018,-4.9018,-4.9018,-4.9018,-4.9018,-4.9018,-4.9018,-4.9018,-4.9018,-4.9018,-4.9018,-4.9018,-4.9018,-4.9018,-4.9018,-3.9998,-3.9697,-3.9697,-3.9697,-3.9697,-3.9697,-3.98,-3.9981,-4.0491,-4.1272,-4.2235,-4.3491,-4.462,-4.5656,-4.6491,-4.6931,-4.7309,-4.7309,-4.7309,-4.7309,-4.7309,-4.7309,-4.7309,-4.7309,-4.7309,-4.7309,-4.7309,-4.7309,-4.7309,-4.7309,-4.7549,-4.7848,-4.8147,-4.8476,-4.8805,-4.8835,-4.8686,-4.8297,-4.8057,-4.7725,-4.7654,-4.8133,-4.8852,-4.9741,-5.057,-5.1475,-5.2449,-5.3041,-5.3416,-5.3518,-5.3518,-5.3518,-5.3518,-5.3518,-5.3518,-5.3518,-5.3518,-5.3518,-5.3518,-5.3518,-5.3518,-5.3416,-5.3247,-5.2807,-5.2266,-5.1792,-5.0845,-5.0304,-4.9835,-4.9429,-4.9154,-4.9018,-4.9018,-4.9018,-4.9018,-4.9018,-4.9018,-4.9018,-4.9018,-4.9018,-4.9018,-4.9018,-4.9018,-4.9018,-4.9018,-4.9018,-4.9018,-4.9018,-4.9018,-4.9018,-4.9018,-4.9018,-4.9018,-4.9018,-4.9018,-4.9018,-4.9018,-4.9018,-4.9018,-4.9018,-4.9018,-4.9018,-4.9018,-4.9018,-4.9018,-4.9018,-4.9018,-4.9018,-4.9018,-4.9018,-4.9018,-4.9018,-4.9018,-4.9018,-4.9018,-3.9697,-3.9697,-3.9697,-3.9697,-3.9697,-3.9697,-3.9697,-3.98,-4.0313,-4.0997,-4.1868,-4.3012,-4.4369,-4.5504,-4.6314,-4.6873,-4.7309,-4.7309,-4.7309,-4.7309,-4.7309,-4.7309,-4.7309,-4.7309,-4.7309,-4.7309,-4.7309,-4.7309,-4.7309,-4.7309,-4.7309,-4.7489,-4.7908,-4.8117,-4.8177,-4.8177,-4.8207,-4.8057,-4.7725,-4.7572,-4.788,-4.8469,-4.9259,-5.0104,-5.1252,-5.2131,-5.2972,-5.3416,-5.3518,-5.3518,-5.3518,-5.3518,-5.3518,-5.3518,-5.3518,-5.3518,-5.3518,-5.3518,-5.3518,-5.3518,-5.3518,-5.3416,-5.2773,-5.2232,-5.1928,-5.1014,-5.0202,-4.9864,-4.9357,-4.912,-4.9052,-4.9018,-4.9018,-4.9018,-4.9018,-4.9018,-4.9018,-4.9018,-4.9018,-4.9018,-4.9018,-4.9018,-4.9018,-4.9018,-4.9018,-4.9018,-4.9018,-4.9018,-4.9018,-4.9018,-4.9018,-4.9018,-4.9018,-4.9018,-4.9018,-4.9018,-4.9018,-4.9018,-4.9018,-4.9018,-4.9018,-4.9018,-4.9018,-4.9018,-4.9018,-4.9018,-4.9018,-4.9018,-4.9018,-4.9018,-4.9018,-4.9018,-4.9018,-4.9018,-4.9018,-3.9697,-3.9697,-3.9697,-3.9697,-3.9697,-3.9697,-3.9697,-3.98,-4.0287,-4.0896,-4.167,-4.2916,-4.4153,-4.5264,-4.6135,-4.6873,-4.7309,-4.7309,-4.7309,-4.7309,-4.7309,-4.7309,-4.7309,-4.7309,-4.7309,-4.7309,-4.7309,-4.7309,-4.7309,-4.7309,-4.7309,-4.7369,-4.7459,-4.7519,-4.7549,-4.7608,-4.7519,-4.7489,-4.7512,-4.7709,-4.8218,-4.8934,-4.9821,-5.0876,-5.2059,-5.287,-5.328,-5.3484,-5.3518,-5.3518,-5.3518,-5.3518,-5.3518,-5.3518,-5.3518,-5.3518,-5.3518,-5.3518,-5.3518,-5.3518,-5.3484,-5.3348,-5.2672,-5.2063,-5.142,-5.0608,-4.983,-4.9424,-4.9086,-4.9018,-4.9018,-4.9018,-4.9018,-4.9018,-4.9018,-4.9018,-4.9018,-4.9018,-4.9018,-4.9018,-4.9018,-4.9018,-4.9018,-4.9018,-4.9018,-4.9018,-4.9018,-4.9018,-4.9018,-4.9018,-4.9018,-4.9018,-4.9018,-4.9018,-4.9018,-4.9018,-4.9018,-4.9018,-4.9018,-4.9018,-4.9018,-4.9018,-4.9018,-4.9018,-4.9018,-4.9018,-4.9018,-4.9018,-4.9018,-4.9018,-4.9018,-4.9018,-4.9018,-4.9018,-4.9018,-3.9697,-3.9697,-3.9697,-3.9697,-3.9697,-3.9697,-3.9697,-3.98,-4.0313,-4.0795,-4.1571,-4.2916,-4.4153,-4.5173,-4.6106,-4.6844,-4.7222,-4.7309,-4.7309,-4.7309,-4.7309,-4.7309,-4.7309,-4.7309,-4.7309,-4.7309,-4.7309,-4.7309,-4.7309,-4.7309,-4.7309,-4.7309,-4.7309,-4.7339,-4.7309,-4.7309,-4.7339,-4.7339,-4.7452,-4.7794,-4.8385,-4.9259,-5.0493,-5.1623,-5.2661,-5.328,-5.3484,-5.3518,-5.3518,-5.3518,-5.3518,-5.3518,-5.3518,-5.3518,-5.3518,-5.3518,-5.3518,-5.3518,-5.3518,-5.3484,-5.3348,-5.2976,-5.2232,-5.1488,-5.0744,-4.9999,-4.9492,-4.912,-4.9018,-4.9018,-4.9018,-4.9018,-4.9018,-4.9018,-4.9018,-4.9018,-4.9018,-4.9018,-4.9018,-4.9018,-4.9018,-4.9018,-4.9018,-4.8815,-4.8917,-4.8849,-4.8883,-4.8917,-4.8984,-4.8984,-4.9018,-4.9018,-4.9018,-4.9018,-4.9018,-4.9018,-4.9018,-4.9018,-4.9018,-4.9018,-4.9018,-4.9018,-4.9018,-4.9018,-4.9018,-4.9018,-4.9018,-4.9018,-4.9018,-4.9018,-4.9018,-4.9018,-4.9018,-4.9018,-4.9018,-3.9697,-3.9697,-3.9697,-3.9697,-3.9697,-3.9697,-3.9697,-3.9903,-4.0313,-4.0795,-4.1571,-4.2916,-4.4059,-4.5173,-4.6106,-4.6756,-4.7222,-4.7309,-4.7309,-4.7309,-4.7309,-4.7309,-4.7309,-4.7309,-4.7309,-4.7309,-4.7309,-4.7309,-4.7309,-4.7309,-4.7309,-4.7309,-4.7309,-4.7309,-4.7309,-4.7309,-4.7309,-4.7309,-4.7538,-4.7964,-4.8521,-4.947,-5.0876,-5.2307,-5.2972,-5.3348,-5.3484,-5.3518,-5.3518,-5.3518,-5.3518,-5.3518,-5.3518,-5.3518,-5.3518,-5.3518,-5.3518,-5.3518,-5.3518,-5.345,-5.3179,-5.2367,-5.1657,-5.0947,-5.0202,-4.956,-4.9154,-4.9052,-4.9018,-4.9018,-4.9018,-4.9018,-4.9018,-4.9018,-4.9018,-4.9018,-4.9018,-4.9018,-4.8984,-4.8781,-4.8646,-4.8578,-4.8443,-4.8308,-4.8511,-4.868,-4.8714,-4.8714,-4.8748,-4.8815,-4.8714,-4.8849,-4.8849,-4.8984,-4.9018,-4.9018,-4.9018,-4.9018,-4.9018,-4.9018,-4.9018,-4.9018,-4.9018,-4.9018,-4.9018,-4.9018,-4.908,-4.908,-4.908,-4.9018,-4.908,-4.908,-4.908,-4.9018,-4.9018,-3.9697,-3.9697,-3.9697,-3.9697,-3.9697,-3.9672,-3.9725,-4.0083,-4.0287,-4.0896,-4.1769,-4.2819,-4.3909,-4.5081,-4.5927,-4.6668,-4.7222,-4.7309,-4.7309,-4.7309,-4.7309,-4.7309,-4.7309,-4.7309,-4.7309,-4.7309,-4.7309,-4.7309,-4.7309,-4.7309,-4.7309,-4.7309,-4.7309,-4.7309,-4.7309,-4.7309,-4.7309,-4.7396,-4.7709,-4.8187,-4.8903,-4.9915,-5.1177,-5.2694,-5.3212,-5.3416,-5.3518,-5.3518,-5.3518,-5.3518,-5.3518,-5.3518,-5.3518,-5.3518,-5.3518,-5.3518,-5.3518,-5.3518,-5.3518,-5.3484,-5.3078,-5.2367,-5.1623,-5.0845,-5.0101,-4.9458,-4.9086,-4.9018,-4.9018,-4.9018,-4.9018,-4.9018,-4.9018,-4.9018,-4.9018,-4.9018,-4.9018,-4.8984,-4.868,-4.8206,-4.8071,-4.797,-4.78,-4.7665,-4.7699,-4.7733,-4.7725,-4.7665,-4.7665,-4.7902,-4.8105,-4.8342,-4.8646,-4.8849,-4.9018,-4.9018,-4.9018,-4.9018,-4.8984,-4.9046,-4.8984,-4.9018,-4.9018,-4.9141,-4.908,-4.908,-4.9046,-4.9107,-4.9236,-4.927,-4.9236,-4.9202,-4.9141,-4.908,-4.9018,-3.8818,-3.8818,-3.8818,-3.8818,-3.8818,-3.8818,-3.8919,-3.922,-3.952,-4.027,-4.1462,-4.2576,-4.3873,-4.5115,-4.6046,-4.6756,-4.7106,-4.7309,-4.7309,-4.7309,-4.7309,-4.7309,-4.7309,-4.7309,-4.7309,-4.7309,-4.7309,-4.7309,-4.7309,-4.7309,-4.7309,-4.7309,-4.7309,-4.7309,-4.7309,-4.7309,-4.7396,-4.7538,-4.7964,-4.8438,-4.9228,-5.0493,-5.1842,-5.2661,-5.328,-5.3518,-5.3518,-5.3518,-5.3518,-5.3518,-5.3518,-5.3518,-5.3518,-5.3518,-5.3518,-5.3518,-5.3518,-5.3518,-5.3518,-5.345,-5.2976,-5.186,-5.1386,-5.0676,-4.983,-4.9187,-4.9018,-4.9018,-4.9018,-4.9018,-4.9018,-4.9018,-4.9018,-4.9018,-4.9018,-4.9018,-4.9018,-4.9018,-4.8443,-4.7767,-4.7834,-4.7665,-4.709,-4.6989,-4.6828,-4.6786,-4.6743,-4.6709,-4.6616,-4.6989,-4.7394,-4.8071,-4.8443,-4.8781,-4.9046,-4.908,-4.9107,-4.9073,-4.9107,-4.9107,-4.9229,-4.929,-4.929,-4.929,-4.9229,-4.9229,-4.9107,-4.9229,-4.9297,-4.9487,-4.9358,-4.929,-4.9168,-4.9107,-4.9141,-3.799,-3.799,-3.799,-3.799,-3.8015,-3.8114,-3.8237,-3.8507,-3.8825,-3.986,-4.1069,-4.2137,-4.3497,-4.4957,-4.5903,-4.6545,-4.707,-4.707,-4.713,-4.7309,-4.7309,-4.7309,-4.7309,-4.7309,-4.7309,-4.7309,-4.7309,-4.7309,-4.7309,-4.7309,-4.7309,-4.7309,-4.7309,-4.7309,-4.7309,-4.7309,-4.7482,-4.7709,-4.8133,-4.88,-4.9868,-5.122,-5.2378,-5.2903,-5.328,-5.3518,-5.3518,-5.3518,-5.3518,-5.3518,-5.3518,-5.3518,-5.3518,-5.3518,-5.3518,-5.3518,-5.3518,-5.3518,-5.3484,-5.3213,-5.2604,-5.1454,-5.1116,-5.027,-4.9492,-4.9086,-4.9018,-4.9018,-4.9018,-4.9018,-4.9018,-4.9018,-4.9018,-4.9018,-4.9018,-4.9018,-4.9018,-4.8883,-4.8409,-4.8003,-4.7868,-4.7225,-4.6481,-4.6007,-4.5838,-4.5838,-4.5794,-4.5862,-4.5838,-4.6278,-4.6819,-4.7733,-4.8308,-4.8741,-4.8978,-4.9202,-4.9195,-4.9214,-4.9342,-4.9376,-4.9496,-4.958,-4.9615,-4.9708,-4.9649,-4.959,-4.9471,-4.9411,-4.9683,-4.9742,-4.959,-4.9496,-4.9674,-4.9496,-4.9411,-3.799,-3.799,-3.799,-3.799,-3.7965,-3.8162,-3.8456,-3.8723,-3.9084,-3.9886,-4.0911,-4.1626,-4.2683,-4.3979,-4.5128,-4.5848,-4.6292,-4.6561,-4.68,-4.713,-4.7279,-4.7309,-4.7309,-4.7309,-4.7309,-4.7309,-4.7309,-4.7309,-4.7309,-4.7309,-4.7309,-4.7309,-4.7309,-4.7309,-4.7309,-4.7309,-4.7396,-4.7709,-4.8271,-4.947,-5.0919,-5.1987,-5.2661,-5.311,-5.3348,-5.3518,-5.3518,-5.3518,-5.3518,-5.3518,-5.3518,-5.3518,-5.3518,-5.3518,-5.3518,-5.3518,-5.3518,-5.3518,-5.3416,-5.2942,-5.2232,-5.1285,-5.071,-4.9898,-4.9289,-4.9018,-4.9018,-4.9018,-4.9018,-4.9018,-4.9018,-4.9018,-4.9018,-4.9018,-4.9018,-4.9018,-4.9018,-4.8984,-4.8477,-4.8071,-4.7868,-4.6684,-4.5635,-4.5196,-4.4823,-4.4823,-4.4891,-4.5026,-4.5286,-4.5828,-4.6496,-4.7505,-4.8311,-4.8719,-4.9222,-4.9385,-4.9436,-4.9478,-4.9605,-4.9732,-4.9873,-5.0045,-5.0159,-5.0194,-5.0137,-5.0137,-5.008,-5.008,-5.0228,-5.0228,-5.008,-5.0159,-5.0328,-5.0045,-4.9767,-3.7374,-3.7061,-3.7086,-3.7061,-3.7182,-3.7349,-3.7636,-3.8136,-3.8606,-3.9508,-4.0786,-4.1535,-4.2765,-4.4147,-4.5108,-4.5454,-4.5783,-4.6082,-4.6441,-4.683,-4.707,-4.7279,-4.7309,-4.7309,-4.7309,-4.7309,-4.7309,-4.7309,-4.7309,-4.7309,-4.7309,-4.7309,-4.7309,-4.7309,-4.7309,-4.7366,-4.7709,-4.8271,-4.9228,-5.0461,-5.1623,-5.2378,-5.2903,-5.3212,-5.3416,-5.3518,-5.3518,-5.3518,-5.3518,-5.3518,-5.3518,-5.3518,-5.3518,-5.3518,-5.3518,-5.3518,-5.3518,-5.3518,-5.3416,-5.2706,-5.1961,-5.1251,-5.0507,-4.9796,-4.9221,-4.9018,-4.9018,-4.9018,-4.9018,-4.9018,-4.9018,-4.9018,-4.9018,-4.9018,-4.9018,-4.9018,-4.9018,-4.8984,-4.8748,-4.8308,-4.7868,-4.6921,-4.6143,-4.6065,-4.5896,-4.5703,-4.5568,-4.5466,-4.5557,-4.575,-4.6567,-4.7455,-4.8196,-4.8744,-4.9316,-4.9718,-4.9732,-4.9804,-5.0022,-5.0171,-5.0384,-5.055,-5.0714,-5.0875,-5.0929,-5.0875,-5.0714,-5.0659,-5.064,-5.0694,-5.0729,-5.0714,-5.0733,-5.0474,-5.0228,-3.6852,-3.6828,-3.664,-3.6546,-3.664,-3.6922,-3.732,-3.769,-3.8357,-3.9446,-4.0636,-4.1622,-4.2992,-4.4181,-4.4571,-4.4796,-4.5095,-4.5603,-4.5903,-4.6232,-4.6681,-4.698,-4.707,-4.713,-4.7309,-4.7309,-4.7309,-4.7309,-4.7309,-4.7309,-4.7309,-4.7309,-4.7309,-4.7309,-4.7366,-4.7538,-4.788,-4.8852,-5.0151,-5.1252,-5.2059,-5.2661,-5.3041,-5.328,-5.3416,-5.3518,-5.3518,-5.3518,-5.3518,-5.3518,-5.3518,-5.3518,-5.3518,-5.3518,-5.3518,-5.345,-5.3315,-5.3078,-5.2875,-5.2367,-5.1725,-5.098,-5.0304,-4.9492,-4.9154,-4.9018,-4.9018,-4.9018,-4.9018,-4.9018,-4.9018,-4.9018,-4.9018,-4.9018,-4.9018,-4.9018,-4.9018,-4.8984,-4.8951,-4.868,-4.8342,-4.8105,-4.753,-4.7386,-4.7149,-4.6752,-4.6413,-4.6007,-4.5919,-4.5932,-4.6567,-4.7442,-4.8135,-4.8916,-4.9803,-5.0171,-5.0159,-5.0237,-5.0453,-5.071,-5.0929,-5.1192,-5.1485,-5.1586,-5.1651,-5.1651,-5.1551,-5.1296,-5.1087,-5.128,-5.1383,-5.1244,-5.114,-5.0857,-5.0803,-3.697,-3.8031,-3.7361,-3.7083,-3.7108,-3.7572,-3.7939,-3.8213,-3.9087,-3.9908,-4.08,-4.1705,-4.2702,-4.3248,-4.3668,-4.3958,-4.4407,-4.4436,-4.4885,-4.5484,-4.6022,-4.6381,-4.6621,-4.695,-4.7249,-4.7309,-4.7309,-4.7309,-4.7309,-4.7309,-4.7309,-4.7309,-4.7309,-4.7309,-4.7482,-4.7794,-4.8604,-4.963,-5.0876,-5.1769,-5.2449,-5.2972,-5.3247,-5.3416,-5.3518,-5.3518,-5.3518,-5.3518,-5.3518,-5.3518,-5.3382,-5.3315,-5.3281,-5.3179,-5.3112,-5.301,-5.2672,-5.2401,-5.2097,-5.1657,-5.098,-5.0236,-4.9627,-4.9187,-4.9018,-4.9018,-4.9018,-4.9018,-4.9018,-4.9018,-4.9018,-4.9018,-4.9018,-4.9018,-4.9018,-4.9018,-4.9018,-4.9018,-4.8984,-4.8951,-4.8781,-4.8511,-4.8443,-4.8233,-4.7988,-4.759,-4.7199,-4.6826,-4.6283,-4.6315,-4.6811,-4.7499,-4.8154,-4.9116,-5.0468,-5.0803,-5.0892,-5.0999,-5.1121,-5.1398,-5.1601,-5.1884,-5.2078,-5.2173,-5.2221,-5.2268,-5.2268,-5.203,-5.1884,-5.1982,-5.1982,-5.1848,-5.1799,-5.1651,-5.1651,-3.7547,-3.8038,-3.7631,-3.7527,-3.7546,-3.7939,-3.8213,-3.8575,-3.9618,-4.0717,-4.1757,-4.2526,-4.293,-4.317,-4.325,-4.3449,-4.3778,-4.4197,-4.4436,-4.4825,-4.5334,-4.5873,-4.6262,-4.6561,-4.689,-4.7189,-4.7279,-4.7309,-4.7309,-4.7309,-4.7309,-4.7309,-4.7309,-4.7396,-4.7624,-4.8355,-4.947,-5.0461,-5.1475,-5.2307,-5.287,-5.3179,-5.3416,-5.3518,-5.3518,-5.3518,-5.3518,-5.3518,-5.3518,-5.3382,-5.3044,-5.2909,-5.2739,-5.2469,-5.2266,-5.2232,-5.1826,-5.1488,-5.1116,-5.071,-5.0202,-4.9593,-4.9187,-4.9018,-4.9018,-4.9018,-4.9018,-4.9018,-4.9018,-4.9018,-4.9018,-4.9018,-4.9018,-4.9018,-4.9018,-4.9018,-4.9018,-4.9018,-4.908,-4.9012,-4.8984,-4.8883,-4.8944,-4.8944,-4.8734,-4.8455,-4.8005,-4.7602,-4.7124,-4.6886,-4.7503,-4.8225,-4.894,-4.9827,-5.1185,-5.1521,-5.1714,-5.1772,-5.179,-5.197,-5.2185,-5.2361,-5.2581,-5.2672,-5.2717,-5.2672,-5.2627,-5.2581,-5.2536,-5.2444,-5.2397,-5.2361,-5.2315,-5.2315,-5.2315,-3.795,-3.8338,-3.7952,-3.7687,-3.7695,-3.7954,-3.8354,-3.8932,-3.9837,-4.1251,-4.2769,-4.2981,-4.3061,-4.325,-4.3329,-4.3329,-4.3479,-4.3778,-4.3958,-4.4257,-4.4706,-4.5244,-4.5693,-4.6172,-4.6591,-4.698,-4.7249,-4.7309,-4.7309,-4.7309,-4.7309,-4.7309,-4.7396,-4.7482,-4.788,-4.9015,-5.0214,-5.1102,-5.1915,-5.259,-5.311,-5.3348,-5.3484,-5.3518,-5.3518,-5.3518,-5.3518,-5.3518,-5.3518,-5.3247,-5.2875,-5.2401,-5.2063,-5.1725,-5.1319,-5.115,-5.0947,-5.0608,-5.0236,-4.9796,-4.956,-4.9154,-4.9052,-4.9018,-4.9018,-4.9018,-4.9018,-4.9018,-4.9018,-4.9018,-4.9018,-4.9018,-4.9018,-4.9018,-4.9018,-4.9018,-4.8984,-4.9046,-4.9046,-4.9046,-4.9107,-4.929,-4.9411,-4.953,-4.9393,-4.911,-4.8538,-4.8358,-4.8204,-4.8151,-4.847,-4.927,-5.0147,-5.1047,-5.197,-5.2078,-5.2234,-5.2257,-5.2299,-5.2436,-5.2607,-5.2769,-5.2893,-5.293,-5.2974,-5.3017,-5.2974,-5.2886,-5.2806,-5.2761,-5.2761,-5.2717,-5.2761,-5.2761,-5.2717,-3.7975,-3.9178,-3.8319,-3.7702,-3.7501,-3.7751,-3.8276,-3.9084,-4.0096,-4.1401,-4.2871,-4.3061,-4.317,-4.325,-4.3329,-4.3329,-4.3329,-4.3419,-4.3479,-4.3658,-4.4047,-4.4347,-4.4855,-4.5484,-4.6112,-4.6466,-4.68,-4.716,-4.7309,-4.7309,-4.7309,-4.7482,-4.7624,-4.7794,-4.7794,-4.9147,-5.0416,-5.1401,-5.2203,-5.28,-5.3179,-5.3416,-5.3518,-5.3518,-5.3518,-5.3518,-5.3518,-5.3518,-5.3518,-5.3382,-5.257,-5.2164,-5.2029,-5.1319,-5.0947,-5.0947,-5.0405,-5.0101,-4.9999,-4.939,-4.912,-4.9052,-4.9018,-4.9018,-4.9018,-4.9018,-4.9018,-4.9018,-4.9018,-4.9018,-4.9018,-4.9018,-4.9018,-4.9018,-4.9018,-4.908,-4.9046,-4.9168,-4.9168,-4.935,-4.953,-4.9708,-4.9884,-4.9999,-5.0057,-4.9746,-4.9148,-4.9007,-4.9164,-4.9451,-4.9745,-5.0289,-5.1155,-5.1679,-5.2381,-5.2635,-5.2761,-5.2769,-5.2777,-5.282,-5.282,-5.2937,-5.306,-5.3182,-5.3146,-5.3103,-5.3103,-5.3146,-5.306,-5.2937,-5.306,-5.306,-5.3103,-5.3103,-5.3017,-3.851,-3.8964,-3.838,-3.7947,-3.776,-3.8116,-3.8505,-3.8978,-4.0335,-4.1909,-4.2971,-4.317,-4.325,-4.325,-4.3329,-4.3329,-4.3329,-4.3329,-4.3329,-4.3389,-4.3629,-4.3958,-4.4377,-4.4825,-4.5454,-4.6142,-4.6621,-4.692,-4.7309,-4.7249,-4.7366,-4.7538,-4.8133,-4.8604,-4.9178,-5.0136,-5.1177,-5.1915,-5.2661,-5.311,-5.3348,-5.345,-5.3518,-5.3518,-5.3518,-5.3518,-5.3518,-5.3518,-5.3518,-5.3315,-5.2469,-5.1725,-5.142,-5.0676,-4.9864,-4.983,-4.9424,-4.939,-4.9357,-4.9086,-4.9018,-4.9018,-4.9018,-4.9018,-4.9018,-4.9018,-4.9018,-4.9018,-4.9018,-4.9018,-4.9018,-4.9018,-4.9018,-4.9018,-4.9018,-4.9046,-4.9107,-4.929,-4.9471,-4.9674,-4.9849,-5.025,-5.0474,-5.0659,-5.0768,-5.0822,-5.04,-5.0365,-5.047,-5.0748,-5.1087,-5.1515,-5.2108,-5.2445,-5.2813,-5.2893,-5.2974,-5.298,-5.3023,-5.3066,-5.3103,-5.3103,-5.3103,-5.3182,-5.3182,-5.3225,-5.3225,-5.3225,-5.3146,-5.3146,-5.3188,-5.3225,-5.3182,-5.3182,-5.3146,-3.8561,-3.8767,-3.8352,-3.8127,-3.794,-3.8088,-3.838,-3.9121,-4.0829,-4.211,-4.2862,-4.321,-4.3329,-4.3329,-4.3329,-4.3329,-4.3329,-4.3329,-4.3329,-4.3329,-4.3359,-4.3599,-4.3898,-4.4227,-4.4817,-4.5567,-4.5933,-4.6262,-4.683,-4.692,-4.7327,-4.7904,-4.8687,-4.939,-5.0104,-5.0876,-5.1549,-5.2307,-5.287,-5.328,-5.3416,-5.3518,-5.3518,-5.3518,-5.3518,-5.3518,-5.3518,-5.3518,-5.3484,-5.3078,-5.2266,-5.1285,-5.0777,-4.9999,-4.912,-4.9018,-4.9018,-4.9018,-4.9052,-4.9052,-4.9018,-4.9018,-4.9018,-4.9018,-4.9018,-4.9018,-4.9018,-4.9018,-4.9018,-4.9018,-4.9018,-4.9018,-4.908,-4.908,-4.9168,-4.9229,-4.9411,-4.959,-4.9884,-5.008,-5.0495,-5.0768,-5.1087,-5.1347,-5.1551,-5.1601,-5.1665,-5.1701,-5.1651,-5.1799,-5.1946,-5.2278,-5.2554,-5.2769,-5.298,-5.3103,-5.3146,-5.3182,-5.3225,-5.3225,-5.3225,-5.3146,-5.3146,-5.3225,-5.3225,-5.3225,-5.3225,-5.3188,-5.3146,-5.3146,-5.3188,-5.3225,-5.3225,-5.3225,-5.3225,-3.8148,-3.8605,-3.8323,-3.8069,-3.7872,-3.7758,-3.8361,-3.9583,-4.1145,-4.2019,-4.2432,-4.303,-4.324,-4.3329,-4.3329,-4.3329,-4.3329,-4.3329,-4.3329,-4.3329,-4.3329,-4.3419,-4.3599,-4.3928,-4.4338,-4.4569,-4.5019,-4.5574,-4.6196,-4.6611,-4.7196,-4.8232,-4.9178,-5.0026,-5.08,-5.1401,-5.1987,-5.259,-5.3041,-5.3348,-5.3518,-5.3518,-5.3518,-5.3518,-5.3518,-5.3518,-5.3518,-5.3518,-5.3416,-5.2909,-5.2063,-5.1454,-5.071,-4.9763,-4.9289,-4.9018,-4.9018,-4.9018,-4.9018,-4.9018,-4.9018,-4.9018,-4.9018,-4.9018,-4.9018,-4.9018,-4.9018,-4.9018,-4.9018,-4.9018,-4.9018,-4.9107,-4.9168,-4.929,-4.9411,-4.959,-4.9767,-5.0057,-5.0307,-5.0694,-5.114,-5.15,-5.1799,-5.2042,-5.2042,-5.2232,-5.2278,-5.2315,-5.2315,-5.2268,-5.2408,-5.259,-5.285,-5.298,-5.3103,-5.3146,-5.3225,-5.3225,-5.3225,-5.3225,-5.3225,-5.3225,-5.3225,-5.3225,-5.3225,-5.3225,-5.3225,-5.3225,-5.3225,-5.3225,-5.3225,-5.3225,-5.3225,-5.3225,-5.3225,-3.7615,-3.7612,-3.7551,-3.7387,-3.7296,-3.7774,-3.858,-3.9572,-4.0394,-4.1232,-4.2449,-4.2551,-4.291,-4.3329,-4.3329,-4.3329,-4.3329,-4.3329,-4.3329,-4.3329,-4.3329,-4.3329,-4.3419,-4.3599,-4.3918,-4.4218,-4.4526,-4.4915,-4.5657,-4.6214,-4.7433,-4.8646,-4.9519,-5.0538,-5.1327,-5.1987,-5.252,-5.287,-5.3247,-5.3416,-5.3518,-5.3518,-5.3518,-5.3518,-5.3518,-5.3518,-5.3518,-5.3518,-5.3315,-5.2536,-5.1758,-5.1082,-5.0304,-4.9526,-4.9018,-4.9018,-4.9018,-4.9018,-4.9018,-4.9018,-4.9018,-4.9018,-4.9018,-4.9018,-4.9018,-4.9018,-4.9018,-4.9018,-4.9046,-4.9046,-4.9107,-4.9229,-4.935,-4.953,-4.9708,-5.0022,-5.0194,-5.055,-5.091,-5.1347,-5.1799,-5.209,-5.2408,-5.2454,-5.2499,-5.268,-5.285,-5.285,-5.2806,-5.2761,-5.2761,-5.2893,-5.298,-5.3103,-5.3146,-5.3225,-5.3225,-5.3225,-5.3225,-5.3225,-5.3225,-5.3225,-5.3225,-5.3225,-5.3225,-5.3225,-5.3225,-5.3225,-5.3225,-5.3225,-5.3225,-5.3225,-5.3225,-5.3225,-5.3225,-3.699,-3.691,-3.6794,-3.672,-3.6888,-3.7688,-3.851,-3.9237,-3.9876,-4.095,-4.1923,-4.2282,-4.2731,-4.3269,-4.3329,-4.3329,-4.3329,-4.3329,-4.3329,-4.3329,-4.3329,-4.3329,-4.3329,-4.3359,-4.3539,-4.3838,-4.4018,-4.4257,-4.5139,-4.6425,-4.7732,-4.86,-4.9726,-5.0843,-5.1696,-5.2378,-5.287,-5.3179,-5.3416,-5.3518,-5.3518,-5.3518,-5.3518,-5.3518,-5.3518,-5.3518,-5.3518,-5.3518,-5.3078,-5.2334,-5.1623,-5.0879,-5.0135,-4.9424,-4.9018,-4.9018,-4.9018,-4.9018,-4.9018,-4.9018,-4.9018,-4.9018,-4.9018,-4.9018,-4.9018,-4.9018,-4.9018,-4.9018,-4.9046,-4.9073,-4.9229,-4.935,-4.959,-4.9801,-5.008,-5.0474,-5.0768,-5.1087,-5.1551,-5.1994,-5.2361,-5.259,-5.2761,-5.2806,-5.285,-5.2937,-5.306,-5.306,-5.306,-5.3017,-5.2974,-5.306,-5.3103,-5.3103,-5.3146,-5.3225,-5.3225,-5.3225,-5.3225,-5.3225,-5.3225,-5.3225,-5.3225,-5.3225,-5.3225,-5.3225,-5.3225,-5.3225,-5.3225,-5.3225,-5.3225,-5.3225,-5.3225,-5.3225,-5.3225,-3.6408,-3.6353,-3.6043,-3.6111,-3.6514,-3.7462,-3.8277,-3.8856,-3.9787,-4.0666,-4.1324,-4.1983,-4.2551,-4.306,-4.324,-4.3329,-4.3329,-4.3329,-4.3329,-4.3329,-4.3329,-4.3329,-4.3329,-4.3359,-4.3419,-4.3389,-4.3479,-4.3868,-4.477,-4.6011,-4.7299,-4.8309,-4.986,-5.1057,-5.2026,-5.2391,-5.2808,-5.2977,-5.3078,-5.3078,-5.3416,-5.3518,-5.3518,-5.3518,-5.3518,-5.3518,-5.3518,-5.3382,-5.3112,-5.23,-5.1589,-5.0845,-4.9965,-4.9424,-4.9086,-4.9018,-4.9018,-4.9018,-4.9018,-4.9018,-4.9018,-4.9018,-4.9018,-4.9018,-4.9018,-4.9018,-4.9018,-4.9046,-4.9073,-4.9195,-4.9316,-4.9708,-4.9999,-5.0307,-5.0659,-5.0982,-5.1296,-5.1651,-5.209,-5.2499,-5.2717,-5.2937,-5.3017,-5.3017,-5.3017,-5.3146,-5.3146,-5.3182,-5.3182,-5.3182,-5.3182,-5.3146,-5.3146,-5.3146,-5.3146,-5.3225,-5.3225,-5.3225,-5.3225,-5.3225,-5.3225,-5.3225,-5.3225,-5.3225,-5.3225,-5.3225,-5.3225,-5.3225,-5.3225,-5.3225,-5.3225,-5.3225,-5.3225,-5.3225,-5.3225,-3.5288,-3.498,-3.5195,-3.5564,-3.6107,-3.731,-3.8202,-3.8575,-3.9341,-4.0038,-4.0666,-4.1324,-4.2013,-4.2641,-4.318,-4.3329,-4.3329,-4.3329,-4.3329,-4.3329,-4.3329,-4.3329,-4.3329,-4.3329,-4.3329,-4.3329,-4.3449,-4.3708,-4.4599,-4.5734,-4.7029,-4.8622,-4.9963,-5.0936,-5.208,-5.2334,-5.2337,-5.257,-5.2266,-5.257,-5.3179,-5.3416,-5.3518,-5.345,-5.3416,-5.3315,-5.3348,-5.3348,-5.2604,-5.1691,-5.1386,-5.0541,-4.9357,-4.912,-4.9018,-4.9018,-4.9018,-4.9018,-4.9018,-4.9018,-4.9018,-4.9018,-4.9018,-4.9018,-4.9018,-4.9018,-4.9046,-4.9073,-4.9161,-4.9282,-4.9555,-5.0022,-5.0509,-5.0857,-5.1192,-5.1536,-5.1835,-5.2221,-5.2635,-5.285,-5.306,-5.3103,-5.3182,-5.3225,-5.3225,-5.3225,-5.3225,-5.3225,-5.3225,-5.3182,-5.3182,-5.3182,-5.3182,-5.3182,-5.3225,-5.3225,-5.3225,-5.3225,-5.3225,-5.3225,-5.3225,-5.3225,-5.3225,-5.3225,-5.3225,-5.3225,-5.3225,-5.3225,-5.3225,-5.3225,-5.3225,-5.3225,-5.3225,-5.3225,-5.3225,-3.4802,-3.4369,-3.4909,-3.5321,-3.5921,-3.7347,-3.8277,-3.8679,-3.9192,-3.9619,-4.0098,-4.0935,-4.1743,-4.2402,-4.303,-4.3329,-4.3329,-4.3329,-4.3329,-4.3329,-4.3329,-4.3329,-4.3329,-4.3329,-4.3329,-4.3329,-4.3438,-4.3886,-4.4534,-4.5712,-4.6993,-4.8392,-4.9498,-5.0636,-5.1693,-5.1665,-5.1663,-5.1792,-5.1319,-5.1691,-5.2503,-5.2536,-5.2503,-5.2503,-5.2503,-5.2536,-5.2503,-5.2435,-5.1792,-5.0879,-5.0405,-4.9965,-4.9187,-4.9052,-4.9018,-4.9018,-4.9018,-4.9018,-4.9018,-4.9018,-4.9018,-4.9018,-4.9018,-4.9018,-4.9046,-4.9046,-4.9107,-4.9195,-4.9368,-4.9546,-5.0045,-5.053,-5.0982,-5.1347,-5.1799,-5.2185,-5.2408,-5.2672,-5.2893,-5.3017,-5.3146,-5.3146,-5.3225,-5.3225,-5.3225,-5.3225,-5.3225,-5.3225,-5.3225,-5.3225,-5.3225,-5.3225,-5.3225,-5.3225,-5.3225,-5.3225,-5.3225,-5.3225,-5.3225,-5.3225,-5.3225,-5.3225,-5.3225,-5.3225,-5.3225,-5.3225,-5.3225,-5.3225,-5.3225,-5.3225,-5.3225,-5.3225,-5.3225,-5.3225,-5.3225,-3.4735,-3.4232,-3.4909,-3.5345,-3.5793,-3.7457,-3.8427,-3.8797,-3.9192,-3.9439,-3.9649,-4.0846,-4.1683,-4.2282,-4.3,-4.321,-4.3329,-4.3329,-4.3329,-4.3329,-4.3329,-4.3329,-4.3329,-4.3329,-4.3329,-4.3409,-4.3518,-4.391,-4.4388,-4.5597,-4.6655,-4.7748,-4.8907,-5.0123,-5.056,-5.0791,-5.0953,-5.095,-5.0811,-5.0811,-5.098,-5.115,-5.1352,-5.1319,-5.1217,-5.1217,-5.1251,-5.115,-5.0811,-5.0202,-4.9627,-4.9289,-4.912,-4.9018,-4.9018,-4.9018,-4.9018,-4.9018,-4.9018,-4.9018,-4.9018,-4.9018,-4.9018,-4.9046,-4.9046,-4.9168,-4.9256,-4.9462,-4.9688,-4.9976,-5.0495,-5.1017,-5.1449,-5.1848,-5.2278,-5.268,-5.285,-5.3017,-5.3103,-5.3225,-5.3225,-5.3225,-5.3225,-5.3225,-5.3225,-5.3225,-5.3225,-5.3225,-5.3225,-5.3225,-5.3225,-5.3225,-5.3225,-5.3225,-5.3225,-5.3225,-5.3225,-5.3225,-5.3225,-5.3225,-5.3225,-5.3225,-5.3225,-5.3225,-5.3225,-5.3225,-5.3225,-5.3225,-5.3225,-5.3261,-5.3225,-5.3225,-5.3225,-5.3225,-5.3225,-3.4534,-3.3939,-3.5096,-3.5638,-3.6012,-3.768,-3.8575,-3.887,-3.9192,-3.9439,-3.9798,-4.0726,-4.1504,-4.1654,-4.2851,-4.3329,-4.3329,-4.3329,-4.3329,-4.3329,-4.3329,-4.3329,-4.3329,-4.3329,-4.3329,-4.3438,-4.3675,-4.4065,-4.4723,-4.552,-4.6638,-4.8042,-4.8793,-4.9792,-5.0624,-5.0649,-5.024,-5.0236,-4.9898,-4.9695,-4.9965,-5.0371,-5.115,-5.1217,-5.1217,-5.1217,-5.1217,-5.1217,-5.0777,-5.0135,-4.9424,-4.912,-4.9018,-4.9018,-4.9018,-4.9018,-4.9018,-4.9018,-4.9018,-4.9018,-4.9018,-4.9046,-4.9046,-4.9168,-4.929,-4.953,-4.9674,-5.0022,-5.0237,-5.0425,-5.084,-5.1398,-5.1799,-5.2185,-5.259,-5.285,-5.306,-5.3103,-5.3146,-5.3225,-5.3225,-5.3225,-5.3225,-5.3225,-5.3225,-5.3225,-5.3225,-5.3225,-5.3225,-5.3225,-5.3225,-5.3225,-5.3225,-5.3225,-5.3225,-5.3225,-5.3225,-5.3225,-5.3225,-5.3225,-5.3225,-5.3225,-5.3225,-5.3225,-5.3225,-5.3225,-5.3225,-5.3298,-5.3371,-5.3408,-5.3261,-5.3225,-5.3225,-5.3225,-5.3225]}]]